[[{"header":{"parameterUnit":"m.s-1","parameterCategory":1,"la1":31.0,"la2":29.5877,"lo1":-88.7671,"lo2":-86.6584,"dy":0.0162,"dx":0.0185,"nx":115,"ny":88,"refTime":"2023-07-24T18:00:00:Z","depth":0,"parameterNumber":2,"parameterNumberName":"U-component_of_WINDS"},"data":[0.0,0.0,0.0,0.0,0.0,0.0,0.0,0.0,0.0,0.0,0.0,0.0,0.0,0.0,0.0,0.0,0.0,0.0,0.0,0.0,0.0,0.0,0.0,0.0,0.0,0.0,0.0,0.0,0.0,0.0,0.0,0.0,0.0,0.0,0.0,0.0,0.0,0.0,0.0,0.0,0.0,0.0,0.0,0.0,0.0,0.0,0.0,0.0,0.0,0.0,0.0,0.0,0.0,0.0,0.0,0.0,0.0,0.0,0.0,0.0,0.0,0.0,0.0,0.0,0.0,0.0,0.0,0.0,0.0,0.0,0.0,0.0,0.0,0.0,0.0,0.0,0.0,0.0,0.0,0.0,0.0,0.0,0.0,0.0,0.0,0.0,0.0,0.0,0.0,0.0,0.0,0.0,0.0,0.0,0.0,0.0,0.0,0.0,0.0,0.0,0.0,0.0,0.0,0.0,0.0,0.0,0.0,0.0,0.0,0.0,0.0,0.0,0.0,0.0,0.0,0.0,0.0,0.0,0.0,0.0,0.0,0.0,0.0,0.0,0.0,0.0,0.0,0.0,0.0,0.0,0.0,0.0,0.0,0.0,0.0,0.0,0.0,0.0,0.0,0.0,0.0,0.0,0.0,0.0,0.0,0.0,0.0,0.0,0.0,0.0,0.0,0.0,0.0,0.0,0.0,0.0,0.0,0.0,0.0,0.0,0.0,0.0,0.0,0.0,0.0,0.0,0.0,0.0,0.0,0.0,0.0,0.0,0.0,0.0,0.0,0.0,0.0,0.0,0.0,0.0,0.0,0.0,0.0,0.0,0.0,0.0,0.0,0.0,0.0,0.0,0.0,0.0,0.0,0.0,0.0,0.0,0.0,0.0,0.0,0.0,0.0,0.0,0.0,0.0,0.0,0.0,0.0,0.0,0.0,0.0,0.0,0.0,0.0,0.0,0.0,0.0,0.0,0.0,0.0,0.0,0.0,0.0,0.0,0.0,0.0,0.0,0.0,0.0,0.0,0.0,0.0,0.0,0.0,0.0,0.0,0.0,0.0,0.0,0.0,0.0,0.0,0.0,0.0,0.0,0.0,0.0,0.0,0.0,0.0,0.0,0.0,0.0,0.0,0.0,0.0,0.0,0.0,0.0,0.0,0.0,0.0,0.0,0.0,0.0,0.0,0.0,0.0,0.0,0.0,0.0,0.0,0.0,0.0,0.0,0.0,0.0,0.0,0.0,0.0,0.0,0.0,0.0,0.0,0.0,0.0,0.0,0.0,0.0,0.0,0.0,0.0,0.0,0.0,0.0,0.0,0.0,0.0,0.0,0.0,0.0,0.0,0.0,0.0,0.0,0.0,0.0,0.0,0.0,0.0,0.0,0.0,0.0,0.0,0.0,0.0,0.0,0.0,0.0,0.0,0.0,0.0,0.0,0.0,0.0,0.0,0.0,0.0,0.0,0.0,0.0,0.0,0.0,0.0,0.0,0.0,0.0,0.0,0.0,0.0,0.0,0.0,0.0,0.0,0.0,0.0,0.0,0.0,0.0,0.0,0.0,0.0,0.0,0.0,0.0,0.0,0.0,0.0,0.0,0.0,0.0,0.0,0.0,0.0,0.0,0.0,0.0,0.0,0.0,0.0,0.0,0.0,0.0,0.0,0.0,0.0,0.0,0.0,0.0,0.0,0.0,0.0,0.0,0.0,0.0,0.0,0.0,0.0,0.0,0.0,0.0,0.0,0.0,0.0,0.0,0.0,0.0,0.0,0.0,0.0,0.0,0.0,0.0,0.0,0.0,0.0,0.0,0.0,0.0,0.0,0.0,0.0,0.0,0.0,0.0,0.0,0.0,0.0,0.0,0.0,0.0,0.0,0.0,0.0,0.0,0.0,0.0,0.0,0.0,0.0,0.0,0.0,0.0,0.0,0.0,0.0,0.0,0.0,0.0,0.0,0.0,0.0,0.0,0.0,0.0,0.0,0.0,0.0,0.0,0.0,0.0,0.0,0.0,0.0,0.0,0.0,0.0,0.0,0.0,0.0,0.0,0.0,0.0,0.0,0.0,0.0,0.0,0.0,0.0,0.0,0.0,0.0,0.0,0.0,0.0,0.0,0.0,0.0,0.0,0.0,0.0,0.0,0.0,0.0,0.0,0.0,0.0,0.0,0.0,0.0,0.0,0.0,0.0,0.0,0.0,0.0,0.0,0.0,0.0,0.0,0.0,0.0,0.0,0.0,0.0,0.0,0.0,0.0,0.0,0.0,0.0,0.0,0.0,0.0,0.0,0.0,0.0,0.0,0.0,0.0,0.0,0.0,0.0,0.0,0.0,0.0,0.0,0.0,0.0,0.0,0.0,0.0,0.0,0.0,0.0,0.0,0.0,0.0,0.0,0.0,0.0,0.0,0.0,0.0,0.0,0.0,0.0,0.0,0.0,0.0,0.0,0.0,0.0,0.0,0.0,0.0,0.0,0.0,0.0,0.0,0.0,0.0,0.0,0.0,0.0,0.0,0.0,0.0,0.0,0.0,0.0,0.0,0.0,0.0,0.0,0.0,0.0,0.0,0.0,0.0,0.0,0.0,0.0,0.0,0.0,0.0,0.0,0.0,0.0,0.0,0.0,0.0,0.0,0.0,0.0,0.0,0.0,0.0,0.0,0.0,0.0,0.0,0.0,0.0,0.0,0.0,0.0,0.0,0.0,0.0,0.0,0.0,0.0,0.0,0.0,0.0,0.0,0.0,0.0,0.0,0.0,0.0,0.0,0.0,0.0,0.0,0.0,0.0,0.0,0.0,0.0,0.0,0.0,0.0,0.0,0.0,0.0,0.0,0.0,0.0,0.0,0.0,0.0,0.0,0.0,0.0,0.0,0.0,0.0,0.0,0.0,0.0,0.0,0.0,0.0,0.0,0.0,0.0,0.0,0.0,0.0,0.0,0.0,0.0,0.0,0.0,0.0,0.0,0.0,0.0,0.0,0.0,0.0,0.0,0.0,0.0,0.0,0.0,0.0,0.0,0.0,0.0,0.0,0.0,0.0,0.0,0.0,0.0,0.0,0.0,0.0,0.0,0.0,0.0,0.0,0.0,0.0,0.0,0.0,0.0,0.0,0.0,0.0,0.0,0.0,0.0,0.0,0.0,0.0,0.0,0.0,0.0,0.0,0.0,0.0,0.0,0.0,0.0,0.0,0.0,0.0,0.0,0.0,0.0,0.0,0.0,0.0,0.0,0.0,0.0,0.0,0.0,0.0,0.0,0.0,0.0,0.0,0.0,0.0,0.0,0.0,0.0,0.0,0.0,0.0,0.0,0.0,0.0,0.0,0.0,0.0,0.0,0.0,0.0,0.0,0.0,0.0,0.0,0.0,0.0,0.0,0.0,0.0,0.0,0.0,0.0,0.0,0.0,0.0,0.0,0.0,0.0,0.0,0.0,0.0,0.0,0.0,0.0,0.0,0.0,0.0,0.0,0.0,0.0,0.0,0.0,0.0,0.0,0.0,0.0,0.0,0.0,0.0,0.0,0.0,0.0,0.0,0.0,0.0,0.0,0.0,0.0,0.0,0.0,0.0,0.0,0.0,0.0,0.0,0.0,0.0,0.0,0.0,0.0,0.0,0.0,0.0,0.0,0.0,0.0,0.0,0.0,0.0,0.0,0.0,0.0,0.0,0.0,0.0,0.0,0.0,0.0,0.0,0.0,0.0,0.0,0.0,0.0,0.0,0.0,0.0,0.0,0.0,0.0,0.0,0.0,0.0,0.0,0.0,0.0,0.0,0.0,0.0,0.0,0.0,0.0,0.0,0.0,0.0,0.0,0.0,0.0,0.0,0.0,0.0,0.0,0.0,0.0,0.0,0.0,0.0,0.0,0.0,0.0,0.0,0.0,0.0,0.0,0.0,0.0,0.0,0.0,0.0,0.0,0.0,0.0,0.0,0.0,0.0,0.0,0.0,0.0,0.0,0.0,0.0,0.0,0.0,0.0,0.0,0.0,0.0,0.0,0.0,0.0,0.0,0.0,0.0,0.0,0.0,0.0,0.0,0.0,0.0,0.0,0.0,0.0,0.0,0.0,0.0,0.0,0.0,0.0,0.0,0.0,0.0,0.0,0.0,0.0,0.0,0.0,0.0,0.0,0.0,0.0,0.0,0.0,0.0,0.0,0.0,0.0,0.0,0.0,0.0,0.0,0.0,0.0,0.0,0.0,0.0,0.0,0.0,0.0,0.0,0.0,0.0,0.0,0.0,0.0,0.0,0.0,0.0,0.0,0.0,0.0,0.0,0.0,0.0,0.3809,0.0,0.0,0.0,0.0,0.0,0.0,0.0,0.0,0.0,0.0,0.0,0.0,0.0,0.0,0.0,0.0,0.0,0.0,0.0,0.0,0.0,0.0,0.0,0.0,0.0,0.0,0.0,0.0,0.0,0.0,0.0,0.0,0.0,0.0,0.0,0.0,0.0,0.0,0.0,0.0,0.0,0.0,0.0,0.0,0.0,0.0,0.0,0.0,0.0,0.0,0.0,0.0,0.0,0.0,0.0,0.0,0.0,0.0,0.0,0.0,0.0,0.0,0.0,0.0,0.0,0.0,0.0,0.0,0.0,0.0,0.0,0.0,0.0,0.0,0.0,0.0,0.0,0.0,0.0,0.0,0.0,0.0,0.0,0.0,0.0,0.0,0.0,0.0,0.0,0.0,0.0,0.0,0.0,0.0,0.0,0.0,0.0,0.0,0.0,0.0,0.0,0.0,0.0,0.0,0.0,0.0,0.0,0.0,0.0,0.0,0.3836,0.3703,0.3913,0.3963,0.3891,0.0,0.0,0.0,0.0,0.0,0.0,0.0,0.0,0.0,0.0,0.0,0.0,0.0,0.0,0.0,0.0,0.0,0.0,0.0,0.0,0.0,0.0,0.0,0.0,0.0,0.0,0.0,0.0,0.0,0.0,0.0,0.0,0.0,0.0,0.0,0.0,0.0,0.0,0.0,0.0,0.0,0.0,0.0,0.0,0.0,0.0,0.0,0.0,0.0,0.0,0.0,0.0,0.0,0.0,0.0,0.0,0.0,0.0,0.0,0.0,0.0,0.0,0.0,0.0,0.0,0.0,0.0,0.0,0.0,0.0,0.0,0.0,0.0,0.0,0.0,0.0,0.0,0.0,0.0,0.0,0.0,0.0,0.0,0.0,0.0,0.0,0.0,0.0,0.0,0.0,0.0,0.0,0.0,0.0,0.0,0.0,0.0,0.0,0.0,0.0,0.0,0.0,0.0,0.0,0.0,0.0,0.0,0.0,0.0,0.0,0.0,0.0,0.4486,0.4715,0.4954,0.0,0.0,0.0,0.0,0.0,0.0,0.0,0.0,0.0,0.0,0.0,0.0,0.0,0.0,0.0,0.0,0.0,0.0,0.0,0.0,0.0,0.0,0.0,0.0,0.0,0.0,0.0,0.0,0.0,0.0,0.0,0.0,0.0,0.0,0.0,0.0,0.0,0.0,0.0,0.0,0.0,0.0,0.0,0.0,0.0,0.0,0.0,0.0,0.0,0.0,0.0,0.0,0.0,0.0,0.0,0.0,0.0,0.0,0.0,0.0,0.0,0.0,0.0,0.0,0.0,0.0,0.0,0.0,0.0,0.0,0.0,0.0,0.0,0.0,0.0,0.0,0.0,0.0,0.0,0.0,0.0,0.0,0.0,0.0,0.0,0.0,0.0,0.0,0.0,0.0,0.0,0.0,0.0,0.0,0.0,0.0,0.0,0.0,0.0,0.0,0.0,0.0,0.0,0.0,0.0,0.0,0.0,0.0,0.0,0.0,0.4463,0.5676,0.5951,0.0,0.7906,0.0,0.0,0.0,0.0,0.0,0.0,0.0,0.0,0.0,0.0,0.0,0.0,0.0,0.0,0.0,0.0,0.0,0.0,0.0,0.0,0.0,0.0,0.0,0.0,0.0,0.0,0.0,0.0,0.0,0.0,0.0,0.0,0.0,0.0,0.0,0.0,0.0,0.0,0.0,0.0,0.0,0.0,0.0,0.0,0.0,0.0,0.0,0.0,0.0,0.0,0.0,0.0,0.0,0.0,0.0,0.0,0.0,0.0,0.0,0.0,0.0,0.0,0.0,0.0,0.0,0.0,0.0,0.0,0.0,0.0,0.0,0.0,0.0,0.0,0.0,0.0,0.0,0.0,0.0,0.0,0.0,0.0,0.0,0.0,0.0,0.0,0.0,0.0,0.0,0.0,0.0,0.0,0.0,0.0,0.0,0.0,0.0,0.0,0.0,0.0,0.0,0.0,0.0,0.0,0.0,0.0,0.0,0.0,0.0,0.0,0.4346,0.5279,0.5908,0.6553,0.0,0.0,0.0,0.0,0.0,0.0,0.0,0.0,0.0,0.0,0.0,0.0,0.0,0.0,0.0,0.0,0.0,0.0,0.0,0.0,0.0,0.0,0.0,0.0,0.0,0.0,0.0,0.0,0.0,0.0,0.0,0.0,0.0,0.0,0.0,0.0,0.0,0.0,0.0,0.0,0.0,0.0,0.0,0.0,0.0,0.0,0.0,0.0,0.0,0.0,0.0,0.0,0.0,0.0,0.0,0.0,0.0,0.0,0.0,0.0,0.0,0.0,0.0,0.0,0.0,0.0,0.0,0.0,0.0,0.0,0.0,0.0,0.0,0.0,0.0,0.0,0.0,0.0,0.0,0.0,0.0,0.0,0.0,0.0,0.0,0.0,0.0,0.0,0.0,0.0,0.0,0.0,0.0,0.0,0.0,0.0,0.0,0.0,0.0,0.0,0.0,0.0,0.0,0.0,0.0,0.0,0.0,0.0,0.0,0.0,0.4455,0.4701,0.5623,0.587,0.6333,0.7059,0.0,0.0,0.0,0.0,0.0,0.0,0.0,0.0,0.0,0.0,0.0,0.0,0.0,0.0,0.0,0.0,0.0,0.0,0.0,0.0,0.0,0.0,0.0,0.0,0.0,0.0,0.0,0.0,0.0,0.0,0.0,0.0,0.0,0.0,0.0,0.0,0.0,0.0,0.0,0.0,0.0,0.0,0.0,0.0,0.0,0.0,0.0,0.0,0.0,0.0,0.0,0.0,0.0,0.0,0.0,0.0,0.0,0.0,0.0,0.0,0.0,0.0,0.0,0.0,0.0,0.0,0.0,0.0,0.0,0.0,0.0,0.0,0.0,0.0,0.0,0.0,0.0,0.0,0.0,0.0,0.0,0.0,0.0,0.0,0.0,0.0,0.0,0.0,0.0,0.0,0.0,0.0,0.0,0.0,0.0,0.0,0.0,0.0,0.0,0.0,0.0,0.0,0.0,0.0,0.0,0.0,0.0,0.0,0.6844,0.5776,0.5924,0.7422,0.6195,0.6481,0.0,0.0,0.0,0.0,0.0,0.0,0.0,0.0,0.0,0.0,0.0,0.0,0.0,0.0,0.0,0.0,0.0,0.0,0.0,0.0,0.0,0.0,0.0,0.0,0.0,0.0,0.0,0.0,0.0,0.0,0.0,0.0,0.0,0.0,0.0,0.0,0.0,0.0,0.0,0.0,0.0,0.0,0.0,0.0,0.0,0.0,0.0,0.0,0.0,0.0,0.0,0.0,0.0,0.0,0.0,0.0,0.0,0.0,0.0,0.0,0.0,0.0,0.0,0.0,0.0,0.0,0.0,0.0,0.0,0.0,0.0,0.0,0.0,0.0,0.0,0.0,0.0,0.0,0.0,0.0,0.0,0.0,0.0,0.0,0.0,0.0,0.0,0.0,0.0,0.0,0.0,0.0,0.0,0.0,0.0,0.0,0.0,0.0,0.0,0.0,0.0,0.0,0.0,0.0,0.0,0.0,0.0,0.0,0.0,0.5179,0.5666,0.6251,0.6969,0.7331,0.7731,0.0,0.0,0.0,0.0,0.0,0.0,0.0,0.0,0.0,0.0,0.0,0.0,0.0,0.0,0.0,0.0,0.0,0.0,0.0,0.0,0.0,0.0,0.0,0.0,0.0,0.0,0.0,0.0,0.0,0.0,0.0,0.0,0.0,0.0,0.0,0.0,0.0,0.0,0.0,0.0,0.0,0.0,0.0,0.0,0.0,0.0,0.0,0.0,0.0,0.0,0.0,0.0,0.0,0.0,0.0,0.0,0.0,0.0,0.0,0.0,0.0,0.0,0.0,0.0,0.0,0.0,0.0,0.0,0.0,0.0,0.0,0.0,0.0,0.0,0.0,0.0,0.0,0.0,0.0,0.0,0.0,0.0,0.0,0.0,0.0,0.0,0.0,0.0,0.0,0.0,0.0,0.0,0.0,0.0,0.0,0.0,0.0,0.0,0.0,0.0,0.0,0.0,0.0,0.0,0.0,0.0,0.0,0.0,0.0,0.4546,0.0,0.6277,0.6655,0.7574,0.8009,0.0,0.0,0.0,0.0,0.0,0.0,0.0,0.0,0.0,0.0,0.0,0.0,0.0,0.0,0.0,0.0,0.0,0.0,0.0,0.0,0.0,0.0,0.0,0.0,0.0,0.0,0.0,0.0,0.0,0.0,0.0,0.0,0.0,0.0,0.0,0.0,0.0,0.0,0.0,0.0,0.0,0.0,0.0,0.0,0.0,0.0,0.0,0.0,0.0,0.0,0.0,0.0,0.0,0.0,0.0,0.0,0.0,0.0,0.0,0.0,0.0,0.0,0.0,0.0,0.0,0.0,0.0,0.0,0.0,0.0,0.0,0.0,0.0,0.0,0.0,0.0,0.0,0.0,0.0,0.0,0.0,0.0,0.0,0.0,0.0,0.0,0.0,0.0,0.0,0.0,0.0,0.0,0.0,0.0,0.0,0.0,0.0,0.0,0.0,0.0,0.0,0.0,0.0,0.0,0.0,0.0,0.0,0.0,0.4543,0.5393,0.5601,0.608,0.6732,0.6893,0.7183,0.0,0.0,0.0,0.0,0.0,0.0,0.0,0.0,0.0,0.0,0.0,0.0,0.0,0.0,0.0,0.0,0.0,0.0,0.0,0.0,0.0,0.0,0.0,0.0,0.0,0.0,0.0,0.0,0.0,0.0,0.0,0.0,0.0,0.0,0.0,0.0,0.0,0.0,0.0,0.0,0.0,0.0,0.0,0.0,0.0,0.0,0.0,0.0,0.0,0.0,0.0,0.0,0.0,0.0,0.0,0.0,0.0,0.0,0.0,0.0,0.0,0.0,0.0,0.0,0.0,0.0,0.0,0.0,0.0,0.0,0.0,0.0,0.0,0.0,0.0,0.0,0.0,0.0,0.0,0.0,0.0,0.0,0.0,0.0,0.0,0.0,0.0,0.0,0.0,0.0,0.0,0.0,0.0,0.0,0.0,0.0,0.0,0.0,0.0,0.0,0.0,0.0,0.0,0.0,0.0,0.0,0.0,0.0,0.0,0.691,0.6091,0.678,0.9007,0.8168,0.823,0.0,0.0,0.0,0.0,0.0,0.0,0.0,0.0,0.0,0.0,0.0,0.0,0.0,0.0,0.0,0.0,0.0,0.0,0.0,0.0,0.0,0.0,0.0,0.0,0.0,0.0,0.0,0.0,0.0,0.0,0.0,0.0,0.0,0.0,0.0,0.0,0.0,0.0,0.0,0.0,0.0,0.0,0.0,0.0,0.0,0.0,0.0,0.0,0.0,0.0,0.0,0.0,0.0,0.0,0.0,0.0,0.0,0.0,0.0,0.0,0.0,0.0,0.0,0.0,0.0,0.0,0.0,0.0,0.0,0.0,0.0,0.0,0.0,0.0,0.0,0.0,0.0,0.0,0.0,0.0,0.0,0.0,0.0,0.0,0.0,0.0,0.0,0.0,0.0,0.0,0.0,0.0,0.0,0.0,0.0,0.0,0.0,0.0,0.0,0.0,0.0,0.0,0.0,0.0,0.0,0.0,0.0,0.0,0.0,0.8994,0.7531,0.7708,0.9883,0.932,0.9241,0.9741,0.0,0.0,0.0,0.0,0.0,0.0,0.0,0.0,0.0,0.0,0.0,0.0,0.0,0.0,0.0,0.0,0.0,0.0,0.0,0.0,0.0,0.0,0.0,0.0,0.0,0.0,0.0,0.0,0.0,0.0,0.0,0.0,0.0,0.0,0.0,0.0,0.0,0.0,0.0,0.0,0.0,0.0,0.0,0.0,0.0,0.0,0.0,0.0,0.0,0.0,0.0,0.0,0.0,0.0,0.0,0.0,0.0,0.0,0.0,0.0,0.0,0.0,0.0,0.0,0.0,0.0,0.0,0.0,0.0,0.0,0.0,0.0,0.0,0.0,0.0,0.0,0.0,0.0,0.0,0.0,0.0,0.0,0.0,0.0,0.0,0.0,0.0,0.0,0.0,0.0,0.0,0.0,0.0,0.0,0.0,0.0,0.0,0.0,0.0,0.0,0.0,0.0,0.0,0.0,0.0,0.0,0.0,0.0,1.1695,0.9933,0.9263,0.9724,1.0349,1.0186,0.0,0.0,0.0,0.0,0.0,0.0,0.0,0.0,0.0,0.0,0.0,0.0,0.0,0.0,0.0,0.0,0.0,0.0,0.0,0.0,0.0,0.0,0.0,0.0,0.0,0.0,0.0,0.0,0.0,0.0,0.0,0.0,0.0,0.0,0.0,0.0,0.0,0.0,0.0,0.0,0.0,0.0,0.0,0.0,0.0,0.0,0.0,0.0,0.0,0.0,0.0,0.0,0.0,0.0,0.0,0.0,0.0,0.0,0.0,0.0,0.0,0.0,0.0,0.0,0.0,0.0,0.0,0.0,0.0,0.0,0.0,0.0,0.0,0.0,0.0,0.0,0.0,0.0,0.0,0.0,0.0,0.0,0.0,0.0,0.0,0.0,0.0,0.0,0.0,0.0,0.0,0.0,0.0,0.0,0.0,0.0,0.0,0.0,0.0,0.0,0.0,0.0,0.0,0.0,0.0,0.0,0.0,0.0,0.0,1.3336,1.4347,1.4595,1.4,1.1811,1.0791,0.0,0.0,0.0,0.0,0.0,0.0,0.0,0.0,0.0,0.0,0.0,0.0,0.0,0.0,0.0,0.0,0.0,0.0,0.0,0.0,0.0,0.0,0.0,0.0,0.0,0.0,0.0,0.0,0.0,0.0,0.0,0.0,0.0,0.0,0.0,0.0,0.0,0.0,0.0,0.0,0.0,0.0,0.0,0.0,0.0,0.0,0.0,0.0,0.0,0.0,0.0,0.0,0.0,0.0,0.0,0.0,0.0,0.0,0.0,0.0,0.0,0.0,0.0,0.0,0.0,0.0,0.0,0.0,0.0,0.0,0.0,0.0,0.0,0.0,0.0,0.0,0.0,0.0,0.0,0.0,0.0,0.0,0.0,0.0,0.0,0.0,0.0,0.0,0.0,0.0,0.0,0.0,0.0,0.0,0.0,0.0,0.0,0.0,0.0,0.0,0.0,0.0,0.0,0.0,0.0,0.0,0.0,0.0,1.122,1.3644,1.6188,1.7468,1.7311,1.4937,1.3007,0.0,0.0,0.0,0.0,0.0,0.0,0.0,0.0,0.0,0.0,0.0,0.0,0.0,0.0,0.0,0.0,0.0,0.0,0.0,0.0,0.0,0.0,0.0,0.0,0.0,0.0,0.0,0.0,0.0,0.0,0.0,0.0,0.0,0.0,0.0,0.0,0.0,0.0,0.0,0.0,0.0,0.0,0.0,0.0,0.0,0.0,0.0,0.0,0.0,0.0,0.0,0.0,0.0,0.0,0.0,0.0,0.0,0.0,0.0,0.0,0.0,0.0,0.0,0.0,0.0,0.0,0.0,0.0,0.0,0.0,0.0,0.0,0.0,0.0,0.0,0.0,0.0,0.0,0.0,0.0,0.0,0.0,0.0,0.0,0.0,0.0,0.0,0.0,0.0,0.0,0.0,0.0,0.0,0.0,0.0,0.0,0.0,0.0,0.0,0.0,0.0,0.0,0.0,0.0,0.0,0.0,0.0,0.0,1.1387,1.3301,1.662,1.8752,1.9522,1.8273,1.5709,0.0,0.0,0.0,0.0,0.0,0.0,0.0,0.0,0.0,0.0,0.0,0.0,0.0,0.0,0.0,0.0,0.0,0.0,0.0,0.0,0.0,0.0,0.0,0.0,0.0,0.0,0.0,0.0,0.0,0.0,0.0,0.0,0.0,0.0,0.0,0.0,0.0,0.0,0.0,0.0,0.0,0.0,0.0,0.0,0.0,0.0,0.0,0.0,0.0,0.0,0.0,0.0,0.0,0.0,0.0,0.0,0.0,0.0,0.0,0.0,0.0,0.0,0.0,0.0,0.0,0.0,0.0,0.0,0.0,0.0,0.0,0.0,0.0,0.0,0.0,0.0,0.0,0.0,0.0,0.0,0.0,0.0,0.0,0.0,0.0,0.0,0.0,0.0,0.0,0.0,0.0,0.0,0.0,0.0,0.0,0.0,0.0,0.0,0.0,0.0,0.0,0.0,0.0,0.0,0.0,0.0,0.0,0.0,1.2944,1.4764,1.8179,2.0079,2.0257,1.7391,1.4863,0.0,0.0,0.0,0.0,0.0,0.0,0.0,0.0,0.0,0.0,0.0,0.0,0.0,0.0,0.0,0.0,0.0,0.0,0.0,0.0,0.0,0.0,0.0,0.0,0.0,0.0,0.0,0.0,0.0,0.0,0.0,0.0,0.0,0.0,0.0,0.0,0.0,0.0,0.0,0.0,0.0,0.0,0.0,0.0,0.0,0.0,0.0,0.0,0.6337,0.0,0.0,0.0,0.0,0.0,0.0,0.0,0.0,0.0,0.0,0.0,0.0,0.0,0.0,0.0,0.0,0.0,0.0,0.0,0.0,0.0,0.0,0.0,0.0,0.0,0.0,0.0,0.0,0.0,0.0,0.0,0.0,0.0,0.0,0.0,0.0,0.0,0.0,0.0,0.0,0.0,0.0,0.0,0.0,0.0,0.0,0.0,0.0,0.0,0.0,0.0,0.0,0.0,0.0,0.0,0.0,0.0,0.0,0.0,1.252,1.4664,1.7745,1.9565,1.9806,1.7351,1.5203,0.0,0.0,0.0,0.0,0.0,0.0,0.0,0.0,0.0,0.0,0.0,0.0,0.0,0.0,0.0,0.0,0.0,0.0,0.0,0.0,0.0,0.0,0.0,0.0,0.0,0.0,0.0,0.0,0.0,0.0,0.0,0.0,0.0,0.0,0.0,0.0,0.0,0.0,0.0,0.0,0.0,0.0,0.0,0.0,0.0,0.0,0.0,0.0,0.0,0.0,0.0,0.0,0.0,0.0,0.0,0.0,0.0,0.0,0.0,0.0,0.0,0.0,0.0,0.0,0.0,0.0,0.0,0.0,0.0,0.0,0.0,0.0,0.0,0.0,0.0,0.0,0.0,0.0,0.0,0.0,0.0,0.0,0.0,0.0,0.0,0.0,0.0,0.0,0.0,0.0,0.0,0.0,0.0,0.0,0.0,0.0,0.0,0.0,0.0,0.0,0.0,0.0,0.0,0.0,0.0,0.0,0.0,1.0138,1.1658,1.406,1.6796,1.8471,1.8886,1.7359,1.5714,1.398,0.0,0.0,0.0,0.0,0.0,0.0,0.0,0.0,0.0,0.0,0.0,0.0,0.0,0.0,0.0,0.0,0.0,0.0,0.0,0.0,0.0,0.0,0.0,0.0,0.0,0.0,0.0,0.0,0.0,0.0,0.0,0.0,0.0,0.0,0.0,0.0,0.0,0.0,0.8123,0.8477,0.0,0.0,0.0,0.0,0.0,0.0,0.0,0.0,1.1571,0.0,0.0,0.0,0.0,0.0,0.0,0.0,0.0,0.0,0.0,0.0,0.0,0.0,0.0,0.0,0.0,0.0,0.0,0.0,0.0,0.0,0.0,0.0,0.0,0.0,0.0,0.0,0.0,0.0,0.0,0.0,0.0,0.0,0.0,0.0,0.0,0.0,0.0,0.0,0.0,0.0,0.0,0.0,0.0,0.0,0.0,0.0,0.0,0.0,0.0,0.0,0.0,0.0,0.0,0.0,0.0,0.9478,1.1066,1.2568,1.4028,1.7183,1.8365,1.7316,1.6265,1.4877,1.3159,0.0,0.0,0.0,0.0,0.0,0.0,0.0,0.0,0.0,0.0,0.0,0.0,0.0,0.0,0.0,0.0,0.0,0.0,0.0,0.0,0.0,0.0,0.0,0.0,0.0,0.0,0.0,0.0,0.0,0.0,0.0,0.0,0.0,0.0,0.0,0.0,0.0,0.0,0.0,0.7185,0.7778,0.0,0.0,0.0,0.0,0.0,0.0,0.0,0.0,1.2123,0.0,0.0,0.0,0.0,0.0,0.0,0.0,0.0,0.0,0.0,0.0,0.0,0.0,0.0,0.0,0.0,0.0,0.0,0.0,0.0,0.0,0.0,0.0,0.0,0.0,0.0,0.0,0.0,0.0,0.0,0.0,0.0,0.0,0.0,0.0,0.0,0.0,0.0,0.0,0.0,0.0,0.0,0.0,0.0,0.0,0.0,0.0,0.0,0.0,0.0,0.0,0.0,0.0,0.0,0.0,1.1123,1.1293,1.2437,1.4661,1.6412,1.7167,1.6867,1.5214,1.3856,0.0,0.0,0.0,0.0,0.0,0.0,0.0,0.0,0.0,0.0,0.0,0.0,0.0,0.0,0.0,0.0,0.0,0.0,0.0,0.0,0.0,0.0,0.0,0.0,0.0,0.0,0.0,0.0,0.0,0.0,0.0,0.0,0.0,0.0,0.0,0.0,0.0,0.0,0.0,0.0,0.8466,0.9118,0.9893,0.0,0.0,0.0,0.0,0.0,0.0,1.2137,1.2151,0.0,0.0,0.0,0.0,0.0,0.0,0.0,0.0,0.0,0.0,0.0,0.0,0.0,0.0,0.0,0.0,0.0,0.0,0.0,0.0,0.0,0.0,0.0,0.0,0.0,0.0,0.0,0.0,0.0,0.0,0.0,0.0,0.0,0.0,0.0,0.0,0.0,0.0,0.0,0.0,0.0,0.0,0.0,0.0,0.0,0.0,0.0,0.0,0.0,0.0,0.0,0.0,0.0,0.0,0.0,1.2473,1.1614,1.2316,1.477,1.5527,1.6048,1.6376,1.428,1.2992,0.0,0.0,0.0,0.0,0.0,0.0,0.0,0.0,0.0,0.0,0.0,0.0,0.0,0.0,0.0,0.0,0.0,0.0,0.0,0.0,0.0,0.0,0.0,0.0,0.0,0.0,0.0,0.0,0.0,0.0,0.0,0.0,0.0,0.0,0.0,0.0,0.0,0.0,0.0,0.0,0.0,1.0813,1.2121,1.1841,0.0,0.0,0.0,0.0,1.2435,1.2997,0.0,0.0,0.0,0.0,0.0,0.0,0.0,0.0,0.0,0.0,0.0,0.0,0.0,0.0,0.0,0.0,0.0,0.0,0.0,0.0,0.0,0.0,0.0,0.0,0.0,0.0,0.0,0.0,0.0,0.0,0.0,0.0,0.0,0.0,0.0,0.0,0.0,0.0,0.0,0.0,0.0,0.0,0.0,0.0,0.0,0.0,0.0,0.0,0.0,0.0,0.0,0.0,0.0,0.0,0.0,0.0,1.1656,1.2594,1.3071,1.3196,1.5253,1.5887,1.4809,1.3567,1.2589,0.0,0.0,0.0,0.0,0.0,0.0,0.0,0.0,0.0,0.0,0.0,0.0,0.0,0.0,0.0,0.0,0.0,0.0,0.0,0.0,0.0,0.0,0.0,0.0,0.0,0.0,0.0,0.0,0.0,0.0,0.0,0.0,0.0,0.0,0.0,0.0,0.0,0.0,0.0,0.0,0.0,1.1449,1.2271,1.2026,1.1906,0.0,0.0,1.0712,1.2425,1.3993,0.0,0.0,0.0,0.0,0.0,0.0,0.0,0.0,0.0,0.0,0.0,0.0,0.0,0.0,0.0,0.0,0.0,0.0,0.0,0.0,0.0,0.0,0.0,0.0,0.0,0.0,0.0,0.0,0.0,0.0,0.0,0.0,0.0,0.0,0.0,0.0,0.0,0.0,0.0,0.0,0.0,0.0,0.0,0.0,0.0,0.0,0.0,0.0,0.0,0.0,0.0,0.0,0.0,0.0,0.0,1.1586,1.2436,1.2852,1.3275,1.3769,1.4371,1.4624,1.4488,1.2195,1.1357,0.0,0.0,0.0,0.0,0.0,0.0,0.0,0.0,0.0,0.0,0.0,0.0,0.0,0.0,0.0,0.0,0.0,0.0,0.0,0.0,0.0,0.0,0.0,0.0,0.0,0.0,0.0,0.0,0.0,0.0,0.0,0.0,0.0,0.0,0.0,0.0,0.0,0.0,0.0,0.0,0.0,0.0,1.2521,1.323,0.0,0.0,0.0,1.1043,1.3704,0.0,0.0,0.0,0.0,0.0,0.0,0.0,0.0,0.0,0.0,0.0,0.0,0.0,0.0,0.0,0.0,0.0,0.0,0.0,0.0,0.0,0.0,0.0,0.0,0.0,0.0,0.0,0.0,0.0,0.0,0.0,0.0,0.0,0.0,0.0,0.0,0.0,0.0,0.0,0.0,0.0,0.0,0.0,0.0,0.0,0.0,0.0,0.0,0.0,0.0,0.0,0.0,0.0,0.0,0.0,0.0,0.0,1.3109,1.3094,1.3518,1.4374,1.3901,1.3893,1.4414,1.1793,0.0,0.0,0.0,0.0,0.0,0.0,0.0,0.0,0.0,0.0,0.0,0.0,0.0,0.0,0.0,0.0,0.0,0.0,0.0,0.0,0.0,0.0,0.0,0.0,0.0,0.0,0.0,0.7206,0.0,0.0,0.0,0.0,0.0,0.0,0.0,0.0,0.0,0.0,0.0,0.0,0.0,0.0,1.33,1.3329,1.4407,1.4753,0.0,0.0,1.2428,1.5369,1.8329,2.0296,0.0,0.0,0.0,0.0,0.0,0.0,0.0,0.0,0.0,0.0,0.0,0.0,0.0,0.0,0.0,0.0,0.0,0.0,0.0,0.0,0.0,0.0,0.0,0.0,0.0,0.0,0.0,0.0,0.0,0.0,0.0,0.0,0.0,0.0,0.0,0.0,0.0,0.0,0.0,0.0,0.0,0.0,0.0,0.0,0.0,0.0,0.0,0.0,0.0,0.0,0.0,0.0,0.0,0.0,1.2929,1.2953,1.3507,1.3939,1.4201,1.4353,1.4442,1.4478,1.3427,1.2815,0.0,0.0,0.0,0.0,0.0,0.0,0.0,0.0,0.0,0.0,0.0,0.0,0.0,0.0,0.0,0.0,0.0,0.0,0.0,0.0,0.0,0.0,0.0,0.0,0.0,0.0,0.0,0.0,0.0,0.0,0.0,0.0,0.0,0.0,0.0,0.0,0.0,0.0,0.0,0.0,0.0,1.4958,1.502,1.5138,1.517,0.0,1.4939,1.5481,1.7255,1.9064,2.0294,2.0289,0.0,0.0,0.0,0.0,0.0,0.0,0.0,0.0,0.0,0.0,0.0,0.0,0.0,0.0,0.0,0.0,0.0,0.0,0.0,0.0,0.0,0.0,0.0,0.0,0.0,0.0,0.0,0.0,0.0,0.0,0.0,0.0,0.0,0.0,0.0,0.0,0.0,0.0,0.0,0.0,0.0,0.0,0.0,0.0,0.0,0.0,0.0,0.0,0.0,0.0,0.0,0.0,0.0,1.3258,1.3269,1.3685,1.406,1.4356,1.397,1.3985,1.4488,1.3108,1.2509,0.0,0.0,0.0,0.0,0.0,0.0,0.0,0.0,0.0,0.0,0.0,0.0,0.0,0.0,0.0,0.0,0.0,0.0,0.0,0.0,0.0,0.0,0.0,0.0,0.0,0.0,0.0,0.0,0.9553,0.9067,0.8344,0.0,0.0,0.0,0.0,0.0,0.0,0.0,0.0,0.0,0.0,1.5171,1.5209,1.6994,0.0,0.0,1.7648,1.8189,1.7756,1.7391,1.7873,1.9956,1.8541,0.0,0.0,0.0,0.0,0.0,0.0,0.0,0.0,0.0,0.0,0.0,0.0,0.0,0.0,0.0,0.0,0.0,0.0,0.0,0.0,0.0,0.0,0.0,0.0,0.0,0.0,0.0,0.0,0.0,0.0,0.0,0.0,0.0,0.0,0.0,0.0,0.0,0.0,0.0,0.0,0.0,0.0,0.0,0.0,0.0,0.0,0.0,0.0,0.0,0.0,0.0,0.0,1.3463,1.3493,1.3826,1.4153,1.4497,1.396,1.3921,1.4442,1.3552,1.3199,0.0,0.0,0.0,0.0,0.0,0.0,0.0,0.0,0.0,0.0,0.0,0.0,0.0,0.0,0.0,0.0,0.0,0.0,0.0,0.0,0.0,0.0,0.0,0.0,0.0,0.0,0.0,0.0,1.066,0.9985,0.8568,0.0,0.0,0.0,0.0,0.0,0.0,0.0,0.0,0.0,0.0,1.585,1.5709,1.8309,1.9604,1.768,1.9049,1.9879,1.8677,1.7051,1.6246,1.7092,0.0,0.0,0.0,0.0,0.0,0.0,0.0,0.0,0.0,0.0,0.0,0.0,0.0,0.0,0.0,0.0,0.0,0.0,0.0,0.0,0.0,0.0,0.0,0.0,0.0,0.0,0.0,0.0,0.0,0.0,1.5674,0.0,0.0,0.0,0.0,0.0,0.0,0.0,0.0,0.0,0.0,0.0,0.0,0.0,0.0,0.0,0.0,0.0,0.0,0.0,0.0,0.0,0.0,1.3572,1.3525,1.3958,1.4304,1.4515,1.4488,1.4508,1.4561,1.5215,1.5506,1.5288,0.0,0.0,0.0,0.0,0.0,0.0,0.0,0.0,0.0,0.0,0.0,0.0,0.0,0.0,0.0,0.0,0.0,0.0,0.0,0.0,0.0,0.0,0.0,0.0,0.0,0.0,0.7985,0.8344,0.8578,0.0,0.0,0.0,0.0,0.0,0.0,0.0,0.0,0.0,0.0,1.6466,1.7324,1.6809,1.8752,1.9398,1.7103,1.8722,2.0227,2.0129,1.8696,1.5981,0.0,0.0,0.0,0.0,0.0,0.0,0.0,0.0,0.0,0.0,0.0,0.0,0.0,0.0,0.0,0.0,0.0,0.0,0.0,0.0,0.0,0.0,0.0,0.0,0.0,0.0,0.0,1.632,1.6639,0.0,0.0,0.0,0.0,0.0,0.0,0.0,0.0,0.0,0.0,0.0,1.6977,1.629,0.0,0.0,0.0,0.0,0.0,0.0,0.0,0.0,0.0,0.0,0.0,0.0,1.3657,1.3783,1.4045,1.4551,1.5267,1.5288,1.5554,1.6065,1.583,1.5375,1.468,0.0,0.0,0.0,0.0,0.0,0.0,0.0,0.0,0.0,0.0,0.0,0.0,0.0,0.0,0.0,0.0,0.0,0.0,0.0,0.0,0.0,0.0,0.0,0.0,0.0,0.9532,0.0,0.0,0.0,0.0,0.0,0.0,0.0,0.0,0.0,0.0,0.0,1.533,1.6974,1.6853,1.7202,1.8867,1.8674,1.8132,0.0,0.0,0.0,0.0,0.0,0.0,0.0,0.0,0.0,0.0,0.0,0.0,0.0,0.0,1.8109,1.6571,1.6323,1.5772,1.3859,0.0,0.0,0.0,0.0,0.0,0.0,0.0,0.0,0.0,0.0,0.0,0.0,0.0,0.0,1.7112,0.0,1.7566,0.0,0.0,0.0,0.0,0.0,0.0,0.0,0.0,1.7808,1.8063,1.8241,1.7921,1.7994,0.0,1.8887,1.8395,0.0,0.0,0.0,0.0,0.0,0.0,0.0,0.0,1.3789,1.3937,1.4447,1.5174,1.6065,1.6114,1.6371,1.6881,1.6661,1.6237,1.5636,1.5709,1.5408,0.0,0.0,0.0,0.0,0.0,0.0,0.0,0.0,0.0,0.0,0.0,0.0,0.0,0.0,0.0,0.0,0.0,0.0,0.0,0.0,0.0,0.0,0.0,1.002,0.0,0.0,0.0,0.0,0.0,0.0,0.0,0.0,0.0,2.0518,1.8068,1.6506,1.7823,1.7453,1.7509,1.8761,0.0,0.0,0.0,0.0,0.0,0.0,0.0,1.5946,1.8172,1.831,1.9365,2.3128,2.0024,1.7558,1.9234,0.0,0.0,1.9802,1.8922,1.7972,1.7231,1.5657,1.5635,1.9523,2.0357,2.0402,0.0,0.0,0.0,0.0,0.0,0.0,0.0,0.0,1.7458,1.752,0.0,1.8401,0.0,0.0,0.0,0.0,0.0,1.8299,0.0,0.0,2.0145,2.0115,1.9453,2.0028,2.029,2.0234,2.0093,1.9955,1.9843,1.9946,0.0,0.0,0.0,0.0,0.0,0.0,1.3985,1.415,1.5175,1.6117,1.6899,1.6945,1.6936,1.6982,1.7706,1.809,1.8079,1.8064,1.8198,1.8364,1.6123,0.0,0.0,0.0,0.0,0.0,0.0,0.0,0.0,0.0,0.0,0.0,0.0,0.0,0.0,0.0,0.0,0.0,0.0,0.0,0.0,1.3026,0.0,0.0,0.0,0.0,0.0,0.0,0.0,0.0,0.0,0.0,2.1589,1.8697,1.6554,1.735,0.0,0.0,0.0,0.0,1.6287,1.6205,1.8467,1.9385,1.7102,1.5962,1.5393,1.5489,0.0,0.0,2.0507,2.0502,2.0444,2.0407,2.0381,2.1062,2.3032,2.106,1.9552,2.034,1.8992,1.8428,1.9867,2.0374,2.0458,1.8275,0.0,0.0,0.0,0.0,1.7293,1.8325,1.9961,2.0022,2.0111,2.0203,2.0492,0.0,0.0,0.0,0.0,0.0,0.0,2.0499,2.0798,2.1252,2.1297,2.1106,2.1266,2.1361,2.1361,2.1862,2.1808,2.1298,2.24,2.1164,1.7637,0.0,0.0,0.0,0.0,1.5128,1.5842,1.6327,1.6942,1.7743,1.7761,1.7743,1.7775,1.8528,1.8704,1.8126,1.88,1.9193,1.9263,2.0004,0.0,0.0,0.0,0.0,0.0,0.0,0.0,0.0,0.0,0.0,0.0,0.0,0.0,0.0,0.0,0.0,0.0,0.0,0.0,1.6627,1.5626,1.4411,0.0,0.0,0.0,0.0,0.0,0.0,0.0,0.0,0.0,2.0295,1.879,1.7705,0.0,0.0,1.672,1.7055,1.5923,1.551,1.684,1.8471,0.0,1.8971,1.8456,1.8345,1.8953,1.9821,2.0387,2.0366,2.1795,2.2406,2.0736,2.0443,2.0858,2.1935,2.2153,2.195,2.2042,2.0866,1.9938,2.038,2.054,2.0542,2.1118,2.0098,1.8342,1.825,1.9251,1.9192,2.0165,2.1767,2.1776,2.1769,2.179,2.2274,2.2087,2.144,2.0872,0.0,0.0,0.0,2.162,2.2036,2.2218,2.2268,2.2305,2.2592,2.2575,2.2325,2.3097,2.3061,2.229,2.2841,2.2085,1.997,0.0,0.0,1.6597,1.6014,1.6009,1.6615,1.7125,1.7757,1.8555,1.8574,1.8427,1.8124,1.8876,1.893,1.8144,1.907,1.9935,2.0659,2.1907,2.1483,0.0,0.0,0.0,0.0,0.0,0.0,0.0,0.0,0.0,0.0,0.0,1.5393,1.4514,0.0,0.0,0.0,1.4847,1.636,1.8179,1.7359,0.0,0.0,0.0,0.0,0.0,0.0,0.0,1.6601,1.9126,2.0594,1.9901,1.9242,1.8749,1.8578,1.7612,1.6995,1.7182,0.0,1.6609,1.8297,1.7891,1.7945,1.9457,1.9716,1.9887,2.0398,2.0439,2.0614,2.1046,2.2347,2.2724,2.1526,2.0823,2.0696,2.1179,2.2003,2.2966,2.3628,2.2035,2.0984,2.2262,2.1584,2.0602,2.3574,2.3328,2.0448,2.0029,2.1244,2.1108,2.176,2.2938,2.2977,2.2793,2.2586,2.3679,2.3438,2.2227,2.2011,0.0,2.3061,2.2097,2.2164,2.3079,2.3087,2.3097,2.3123,2.386,2.3821,2.3132,2.3849,2.3823,2.3079,2.2191,2.196,2.2372,2.0947,1.9336,1.7657,1.691,1.6655,1.6814,1.7645,1.8514,1.9372,1.9341,1.8941,1.8234,1.8904,1.8967,1.8282,1.9083,2.0386,2.208,2.2319,2.2498,2.2364,0.0,0.0,0.0,0.0,0.0,0.0,0.0,0.0,0.0,0.0,0.0,0.0,0.0,0.0,0.0,1.5301,0.0,1.9828,1.8551,0.0,0.0,0.0,1.8868,1.9976,2.1363,2.1694,2.0249,0.0,0.0,2.049,2.0064,1.9683,1.9095,1.8876,1.8383,1.7276,1.7886,1.8914,2.0297,1.7425,1.6198,1.924,2.0012,2.0248,2.0319,2.0369,2.0768,2.1671,2.1991,2.2082,2.201,2.1288,2.0612,2.0604,2.1305,2.2484,2.4495,2.2645,2.1539,2.3975,2.2568,2.0615,2.4124,2.418,2.3294,2.293,2.2954,2.3042,2.3564,2.4303,2.4447,2.4388,2.4228,2.4512,2.4444,2.4119,2.408,2.4105,2.4121,2.3712,2.3673,2.3905,2.3914,2.3924,2.3916,2.4108,2.4098,2.395,2.4116,2.4098,2.3914,2.3665,2.2666,2.0953,1.9907,1.8776,1.7621,1.6837,1.6833,1.7607,1.7821,1.869,2.0136,1.962,1.9213,1.9014,1.9198,1.9292,1.9239,1.9329,2.0006,2.1323,2.2447,2.3534,2.4533,1.8657,0.0,0.0,0.0,0.0,0.0,0.0,0.0,0.0,0.0,1.7437,1.5938,0.0,1.702,0.0,1.551,1.8724,2.1433,2.094,0.0,0.0,2.0042,2.0098,2.1559,2.1783,2.1806,2.1739,2.2215,2.2906,2.3868,2.1653,2.0212,2.0724,1.9574,1.8747,1.904,1.9286,2.0153,2.1639,2.0359,1.9228,1.9915,2.0216,2.0331,2.0369,2.0389,2.0499,2.0778,2.0875,2.0914,2.0939,2.0777,2.0603,2.0596,2.0787,2.1055,2.1676,2.1747,2.1766,2.1836,2.1143,2.0596,2.4275,2.4357,2.4238,2.4042,2.3827,2.402,2.4385,2.4812,2.4886,2.483,2.4657,2.4669,2.4673,2.4654,2.467,2.4552,2.4357,2.4256,2.4412,2.4707,2.4347,2.4383,2.4707,2.4365,2.4199,2.4199,2.4199,2.4199,2.4199,2.4199,2.3501,2.2109,2.1624,2.0316,1.8278,1.6345,1.5655,1.62,1.7334,1.8939,2.0961,2.0629,2.0035,1.9248,1.8855,1.835,1.7666,1.7292,1.7739,1.9102,2.0297,2.167,2.3195,2.2678,1.9572,0.0,0.0,0.0,0.0,0.0,0.0,0.0,0.0,0.0,0.0,0.0,1.7565,1.2768,1.6967,2.0973,2.3398,2.2526,2.1933,2.2264,2.1787,2.2007,2.3473,2.3424,2.3388,2.3599,2.3311,2.3367,2.4044,2.2144,2.0718,2.0959,2.0372,1.9936,2.0002,2.005,2.0518,2.1607,2.2331,2.2081,2.0734,2.0429,2.0417,2.0369,2.0417,2.0446,2.0434,2.048,2.0506,2.0538,2.0566,2.0596,2.0596,2.0596,2.0596,2.0674,2.1094,2.126,2.0732,2.0596,2.0596,2.4199,2.4199,2.4199,2.4255,2.4356,2.4448,2.4619,2.4885,2.4883,2.4854,2.477,2.468,2.4703,2.4759,2.4683,2.4559,2.4337,2.4236,2.4633,2.5345,2.4669,2.4715,2.5364,2.4669,2.43,2.4199,2.4199,2.4199,2.4199,2.4199,2.4043,2.3731,2.3711,2.2049,1.8785,1.5856,1.44,1.4419,1.6889,1.9301,2.1539,2.1292,2.0293,1.866,1.7914,1.679,1.5166,1.4628,1.5039,1.647,1.7479,1.8842,2.0724,2.3414,2.3534,0.0,1.8826,0.0,0.0,0.0,0.0,0.0,0.0,0.0,0.0,2.0011,1.7404,1.3313,1.9157,2.3716,2.5168,2.3713,2.303,2.3881,2.3745,2.4036,2.5139,2.5178,2.5139,2.5293,2.4572,2.3696,2.2601,2.2014,2.1495,2.0993,2.1328,2.1459,2.0829,2.0502,2.0454,2.0595,2.3487,2.4147,2.1351,2.056,2.0493,2.0356,2.0396,2.0503,2.0497,2.0504,2.0576,2.0732,2.0703,2.0654,2.0723,2.0703,2.0596,2.0596,2.0664,2.0674,2.0615,2.0596,2.0596,2.4199,2.4199,2.4199,2.4587,2.5123,2.4513,2.4654,2.5297,2.5458,2.5777,2.6163,2.568,2.5737,2.6144,2.569,2.5356,2.5155,2.4493,2.4642,2.5392,2.5247,2.5237,2.5392,2.5259,2.4832,2.4217,2.4199,2.4199,2.4199,2.4199,2.3162,2.1178,2.1116,1.973,1.7104,0.0,0.0,0.0,1.8507,2.0081,2.0462,1.8497,1.6958,1.5974,1.5792,0.0,1.4607,1.4302,1.4643,1.5698,1.7131,0.0,0.0,0.0,0.0,0.0,0.0,0.0,0.0,0.0,0.0,0.0,2.1629,2.1087,2.1132,2.0236,1.8777,1.6892,2.1588,2.4947,2.5245,2.4975,2.4801,2.4985,2.4965,2.5043,2.5255,2.4505,2.4245,2.5168,2.4447,2.3079,2.1423,2.2213,2.3059,2.2434,2.2582,2.2659,2.2474,2.1237,2.0779,2.1876,2.389,2.4233,2.1109,2.0595,2.0687,2.037,2.04,2.046,2.0572,2.0568,2.0879,2.1435,2.1074,2.0898,2.1455,2.1094,2.0644,2.0605,2.0596,2.0596,2.0596,2.0596,2.0596,2.5153,0.0,2.5224,2.5392,0.0,2.5395,2.561,2.5976,2.5683,2.5941,2.6557,2.5876,2.572,2.5991,2.5281,2.5142,2.5357,2.4557,2.5049,2.6533,2.5775,2.5599,2.6008,2.5711,2.5317,2.4818,2.4922,2.4915,2.4768,2.4401,2.3547,2.2292,2.2263,2.1416,1.9756,1.9702,1.9261,1.8349,1.9666,2.0952,2.21,2.0952,1.963,1.8369,1.7943,0.0,0.0,0.0,0.0,0.0,0.0,0.0,0.0,2.0975,0.0,2.2111,2.1944,2.2154,2.283,2.2527,2.2792,2.3976,2.3639,2.2853,2.164,2.2129,2.1866,2.0455,2.3352,2.5332,2.539,2.5341,2.5303,2.5303,2.5303,2.5303,2.5284,2.4822,2.4341,2.4063,2.3861,2.3435,2.3056,2.304,2.3259,2.3075,2.3414,2.3529,2.3046,2.206,2.1448,2.1538,2.3059,2.4064,2.3358,2.2922,2.2369,2.1806,2.0933,2.0853,2.1591,2.1054,2.0837,2.1836,2.2158,2.2187,2.1348,2.1201,2.1123,2.0732,2.0596,2.0596,2.0596,2.0596,2.0596,2.6135,2.5485,2.6269,2.6234,2.5675,2.6315,2.6695,2.6763,0.0,0.0,0.0,2.6185,2.5828,2.5779,2.4979,2.4979,2.5559,2.4787,2.5642,2.7717,2.6443,2.617,2.6768,2.6371,2.5892,2.543,2.5626,2.5539,2.5162,2.4502,2.4199,2.4199,2.4199,2.3867,2.325,2.3205,2.2507,2.1148,2.0753,2.1607,2.3638,2.3417,2.2474,2.0889,2.0245,1.8812,1.6508,1.5835,1.5852,1.6573,1.5677,1.6886,2.0558,2.0856,2.1445,2.2771,2.3649,2.4548,2.5451,2.4852,2.4679,2.5255,2.5303,2.4534,2.271,2.4255,2.4774,2.3498,2.4562,2.5361,2.5486,2.5399,2.5332,2.5322,2.5313,2.5322,2.5399,2.5404,2.4814,2.3573,2.3621,2.4203,2.5272,2.4315,2.3328,2.3446,2.408,2.4387,2.3646,2.2942,2.2284,2.2134,2.2939,2.3742,2.5108,2.5277,2.4745,2.3436,2.1922,2.1424,2.2307,2.1586,2.1143,2.2451,2.3525,2.332,2.1768,2.1621,2.1602,2.0762,2.0596,2.0596,2.0596,2.0596,2.0596,2.6135,2.5467,2.627,2.6536,2.6429,2.6545,2.6995,2.7613,2.7515,2.7899,2.8608,2.7803,2.7469,2.7411,2.6622,2.6319,2.6374,2.5594,2.6159,2.7773,2.7557,2.7519,2.7638,2.7559,2.6771,2.5467,2.5452,2.5071,2.4419,2.4245,2.4199,2.4199,2.4199,2.4135,2.4033,2.4033,2.3914,2.3646,2.2127,2.1507,2.1834,2.0354,1.9138,1.8275,1.822,1.7588,1.6535,1.6432,1.6698,1.7495,1.8101,1.9483,2.1755,2.3524,2.4706,2.5033,2.5284,2.5505,2.5645,2.5456,2.5312,2.5303,2.5351,2.5216,2.4899,2.512,2.5207,2.4995,2.5168,2.5351,2.5466,2.5476,2.5457,2.539,2.5332,2.5322,2.5399,2.5542,2.544,2.4924,2.4485,2.4522,2.5286,2.5224,2.4763,2.4468,2.4836,2.535,2.5006,2.4022,2.3757,2.4453,2.3906,2.4023,2.5201,2.547,2.5158,2.5013,2.3514,2.261,2.3091,2.2017,2.1728,2.3408,2.4541,2.4629,2.3525,2.2568,2.1689,2.081,2.0596,2.0596,2.0596,2.0596,2.0596,2.7429,2.6823,2.7559,2.7373,2.6603,2.6608,2.73,2.8437,2.8457,2.8659,2.8893,2.8141,2.7807,2.7732,2.6961,2.6851,2.7209,2.641,2.6905,2.8365,2.8,2.7807,2.7844,2.8246,2.7614,2.6109,2.6048,2.564,2.486,2.441,2.4199,2.4199,2.4199,2.4199,2.4199,2.4199,2.4199,2.4171,2.3399,2.2968,2.2949,2.2153,2.1561,2.1216,2.0816,2.0425,2.0036,1.9606,1.9758,2.0532,2.0852,2.1783,2.3465,2.4511,2.5172,2.5476,2.5592,2.5659,2.5658,2.5521,2.5418,2.5361,2.539,2.5399,2.5418,2.5351,2.5322,2.5399,2.5479,2.5527,2.5562,2.5583,2.5556,2.5397,2.5331,2.5332,2.5418,2.5578,2.5657,2.5511,2.5224,2.513,2.5447,2.5515,2.5484,2.5182,2.5478,2.5674,2.5693,2.5088,2.4775,2.5469,2.5029,2.4853,2.5376,2.5386,2.5359,2.55,2.4767,2.4302,2.436,2.3638,2.3833,2.46,2.4932,2.4424,2.3623,2.2666,2.166,2.085,2.0596,2.0596,2.0596,2.0596,2.0596,2.853,2.787,2.8668,2.8283,2.7127,2.6922,2.7711,2.8948,2.8975,2.8984,2.8911,2.8329,2.7967,2.7741,2.7145,2.7209,2.764,2.7154,2.764,2.8819,2.8356,2.8063,2.8123,2.8723,2.8237,2.6969,2.6701,2.619,2.5403,2.4575,2.4199,2.4199,2.4199,2.4199,2.4199,2.4199,2.4199,2.4199,2.4199,2.4199,2.4199,2.4199,2.419,2.4153,2.3575,2.3272,2.3235,2.2675,2.263,2.3201,2.3079,2.3518,2.4676,2.4818,2.5006,2.5427,2.5575,2.5607,2.5562,2.5484,2.5401,2.537,2.5409,2.5437,2.5484,2.5446,2.5436,2.5541,2.5626,2.5671,2.5628,2.5634,2.5616,2.5464,2.5389,2.538,2.5437,2.5571,2.5655,2.5679,2.5639,2.5569,2.5562,2.5572,2.5607,2.5654,2.5693,2.5693,2.5693,2.5693,2.5693,2.5693,2.5693,2.5576,2.5415,2.5386,2.5486,2.5678,2.5502,2.5345,2.529,2.5082,2.5055,2.5078,2.4434,2.3408,2.2685,2.2246,2.1553,2.083,2.0596,2.0596,2.0596,2.0596,2.0596,2.853,2.797,2.8686,2.8929,2.865,2.7972,2.8169,2.8938,2.8984,2.8984,2.8966,2.8911,2.8462,2.7851,2.7723,2.7759,2.7833,2.7723,2.8172,2.8925,2.892,2.8874,2.8856,2.8948,2.8549,2.7644,2.6924,2.6163,2.5311,2.4575,2.4199,2.4199,2.4199,2.4199,2.4199,2.4199,2.4199,2.4199,2.4199,2.4199,2.4199,2.4199,2.4199,2.419,2.4116,2.4089,2.4053,2.4005,2.4006,2.4081,2.4044,2.4261,2.4742,2.4804,2.4996,2.537,2.5565,2.5642,2.5524,2.5488,2.5436,2.535,2.5418,2.5476,2.5515,2.5606,2.5662,2.5684,2.5693,2.5693,2.5697,2.5644,2.5603,2.5582,2.5514,2.5505,2.5553,2.5553,2.5554,2.5692,2.5636,2.5606,2.5658,2.5638,2.5628,2.5693,2.5693,2.5693,2.5693,2.5693,2.5693,2.5693,2.5693,2.5684,2.5644,2.5664,2.5654,2.5689,2.5686,2.5592,2.5149,2.3549,2.1926,2.4648,2.3926,2.2353,2.1562,2.1299,2.1562,2.0859,2.0596,2.0596,2.0596,2.0596,2.0596,2.8539,2.787,2.8677,2.8984,2.8883,2.8141,2.8265,2.8957,2.8984,2.8984,2.8984,2.8984,2.8824,2.8521,2.8521,2.8521,2.8512,2.8512,2.8677,2.8975,2.8984,2.8984,2.8984,2.8984,2.8365,2.7154,2.675,2.5952,2.4841,2.4346,2.4199,2.4199,2.4199,2.4199,2.4199,2.4199,2.4199,2.4199,2.4199,2.4199,2.4199,2.4199,2.4199,2.4153,2.3731,2.374,2.4089,2.3759,2.3704,2.4154,2.4199,2.432,2.4612,2.4737,2.4917,2.5207,2.5434,2.5579,2.5546,2.5486,2.5427,2.5361,2.5418,2.5453,2.5489,2.5619,2.5693,2.5693,2.5693,2.5693,2.5693,2.5674,2.5632,2.5602,2.5559,2.5547,2.5547,2.5549,2.5577,2.5582,2.5632,2.5664,2.5697,2.5675,2.5668,2.5693,2.5693,2.5693,2.5693,2.5693,2.5693,2.5693,2.5693,2.5693,2.5693,2.5693,2.5693,2.5693,2.5699,2.5611,2.4824,2.459,2.401,2.4326,2.3066,2.1865,2.0869,2.082,2.0977,2.0615,2.0596,2.0596,2.0596,2.0596,2.0596,2.8686,2.8264,2.8773,2.8984,2.8938,2.8375,2.8329,2.8677,2.8893,2.8883,2.8705,2.8893,2.8984,2.8984,2.8984,2.8984,2.8984,2.8984,2.8984,2.8984,2.8984,2.8984,2.8984,2.8975,2.8269,2.7071,2.6557,2.5621,2.4337,2.4199,2.4199,2.4199,2.4199,2.4199,2.4199,2.4199,2.4199,2.4199,2.4199,2.4199,2.4199,2.4199,2.4199,2.4144,2.3657,2.3612,2.4135,2.363,2.3584,2.4162,2.4199,2.4284,2.4498,2.4588,2.479,2.5129,2.5345,2.5481,2.5524,2.5447,2.539,2.537,2.539,2.5416,2.5464,2.5568,2.5658,2.5693,2.5693,2.5693,2.5693,2.5693,2.5684,2.5615,2.5605,2.5583,2.5518,2.5539,2.5571,2.557,2.563,2.5693,2.5693,2.5689,2.5668,2.5693,2.5684,2.5693,2.5693,2.5693,2.5693,2.5693,2.5693,2.5693,2.5693,2.5693,2.5693,2.5693,2.5684,2.54,2.4424,2.4609,2.4639,2.3271,2.2422,2.1709,2.0859,2.0644,2.0644,2.0615,2.0596,2.0596,2.0596,2.0586,2.0576,2.8966,2.8929,2.8966,2.898,2.8975,2.8929,2.8517,2.8077,2.87,2.8595,2.8114,2.8686,2.8984,2.8984,2.8984,2.8984,2.8984,2.8984,2.8984,2.8984,2.8984,2.8984,2.8984,2.8975,2.8558,2.7585,2.6493,2.5383,2.43,2.4199,2.4199,2.4226,2.4217,2.4199,2.4199,2.4199,2.4199,2.4199,2.4199,2.4199,2.4199,2.4199,2.4199,2.419,2.4144,2.4116,2.419,2.4153,2.4172,2.419,2.4199,2.4284,2.4452,2.4339,2.4588,2.5173,2.5351,2.5409,2.5399,2.5409,2.537,2.5332,2.5361,2.5361,2.5322,2.5453,2.5544,2.5674,2.5664,2.5674,2.5684,2.5664,2.5668,2.5594,2.5608,2.5577,2.5522,2.551,2.556,2.5625,2.5626,2.5644,2.5684,2.5647,2.5644,2.5666,2.5644,2.5635,2.5684,2.5693,2.5693,2.5693,2.5693,2.5693,2.5693,2.5693,2.5693,2.5693,2.5625,2.5381,2.3975,2.292,2.2656,2.2314,2.1572,2.1025,2.0723,2.0605,2.0605,2.0596,2.0596,2.0596,2.0596,2.0518,2.04,2.8984,2.8943,2.8428,2.8529,2.8966,2.8984,2.8847,2.8595,2.8852,2.8858,2.8654,2.8893,2.8984,2.8984,2.8984,2.8984,2.8984,2.8984,2.8984,2.8984,2.8984,2.8984,2.8984,2.8975,2.8576,2.7741,2.6796,2.5851,2.4989,2.4465,2.4465,2.4806,2.4447,2.4199,2.4199,2.4199,2.4199,2.4199,2.4199,2.4199,2.4199,2.4199,2.4199,2.4199,2.4199,2.4199,2.4199,2.4199,2.4199,2.4199,2.4199,2.4237,2.4321,2.4495,2.4799,2.5223,2.5322,2.5332,2.5332,2.5341,2.5341,2.5303,2.5322,2.5322,2.5313,2.5351,2.5396,2.5434,2.5447,2.546,2.5544,2.5564,2.5564,2.5544,2.5529,2.5524,2.5509,2.5513,2.5534,2.5554,2.5554,2.5576,2.5642,2.5634,2.5623,2.5681,2.5673,2.5674,2.5684,2.5693,2.5693,2.5693,2.5693,2.5693,2.5693,2.5693,2.5693,2.5693,2.5586,2.5059,2.3994,2.2148,2.1543,2.1523,2.083,2.0723,2.0596,2.0596,2.0596,2.0596,2.0596,2.0596,2.0596,1.9717,1.9551,2.8984,2.8916,2.8423,2.8493,2.898,2.8984,2.8856,2.8673,2.8892,2.8899,2.8775,2.891,2.9053,2.9112,2.9125,2.9134,2.9112,2.9044,2.8984,2.8984,2.8984,2.8984,2.8984,2.8984,2.8594,2.7723,2.6704,2.5786,2.5025,2.4465,2.4493,2.4905,2.4447,2.4199,2.4199,2.4199,2.4199,2.4199,2.4199,2.4199,2.4199,2.4199,2.4199,2.4199,2.4199,2.4199,2.4199,2.4199,2.4199,2.4199,2.4199,2.4199,2.4238,2.4545,2.4847,2.5046,2.5128,2.5171,2.5141,2.5137,2.5138,2.515,2.5176,2.5226,2.5293,2.5303,2.5303,2.5303,2.5303,2.5351,2.5409,2.5438,2.5444,2.5469,2.5461,2.5457,2.5447,2.5418,2.5457,2.5486,2.5466,2.5505,2.5599,2.5583,2.5599,2.5647,2.5656,2.5678,2.5693,2.5693,2.5693,2.5693,2.5693,2.5693,2.5693,2.5693,2.5693,2.5693,2.542,2.4863,2.3565,2.1704,2.0732,2.0635,2.0596,2.0596,2.0596,2.0596,2.0596,2.0596,2.0596,2.0596,1.9727,1.8379,1.8652,2.8984,2.8984,2.8989,2.8943,2.8984,2.8984,2.8553,2.8182,2.8718,2.8765,2.8475,2.878,2.9175,2.9372,2.9394,2.9383,2.9353,2.9181,2.9062,2.9044,2.9017,2.8984,2.8984,2.8893,2.8462,2.7627,2.6209,2.5126,2.4548,2.441,2.4373,2.4309,2.4281,2.4199,2.4199,2.4199,2.4199,2.4199,2.4199,2.4199,2.4199,2.4199,2.4199,2.4199,2.4199,2.4199,2.4199,2.4199,2.4199,2.4199,2.4199,2.4199,2.4256,2.4479,2.4626,2.4695,2.4832,2.4868,2.4846,2.4843,2.4874,2.4879,2.496,2.5119,2.5274,2.5303,2.5303,2.5303,2.5303,2.5313,2.5313,2.5313,2.5361,2.539,2.5399,2.537,2.5322,2.5303,2.5351,2.5447,2.5399,2.537,2.5447,2.5501,2.5534,2.559,2.5614,2.5638,2.5693,2.5693,2.5693,2.5693,2.5693,2.5693,2.5693,2.5693,2.5693,2.5644,2.5244,2.4666,2.2822,2.1054,2.072,2.0586,2.0596,2.0596,2.0596,2.0596,2.0596,2.0596,2.0596,2.0566,1.9814,1.8945,1.8408,2.8984,2.8984,2.8984,2.8984,2.8984,2.8984,2.8847,2.865,2.8911,2.898,2.9023,2.9194,2.9382,2.9568,2.9607,2.9607,2.9598,2.9504,2.9409,2.9264,2.9095,2.9007,2.8902,2.8462,2.7739,2.7023,2.6484,2.6089,2.575,2.5236,2.5035,2.4962,2.4447,2.4208,2.4199,2.4199,2.4199,2.4199,2.4199,2.4199,2.4199,2.4199,2.4199,2.4199,2.4199,2.4199,2.4199,2.4199,2.4199,2.4199,2.4199,2.4256,2.4383,2.4538,2.4651,2.4725,2.47,2.4727,2.4785,2.4803,2.4792,2.4837,2.4925,2.5099,2.5263,2.5293,2.5293,2.5303,2.5303,2.5303,2.5303,2.5303,2.5322,2.5332,2.5332,2.5332,2.5303,2.5303,2.5332,2.5351,2.5332,2.5332,2.537,2.5399,2.5493,2.5582,2.5605,2.5625,2.5684,2.5693,2.5693,2.5693,2.5693,2.5693,2.5693,2.5693,2.5693,2.5537,2.5156,2.4404,2.2508,2.103,2.0704,2.0576,2.0596,2.0596,2.0596,2.0596,2.0596,2.0596,2.0596,2.0518,2.04,1.9873,1.9141,2.8984,2.8984,2.8984,2.8984,2.8984,2.8984,2.8984,2.8984,2.8984,2.9144,2.9364,2.9389,2.9503,2.9687,2.9782,2.9813,2.9822,2.9822,2.974,2.9579,2.928,2.9112,2.8962,2.8526,2.7839,2.7091,2.6731,2.6438,2.6126,2.5364,2.4953,2.4852,2.4428,2.4199,2.4199,2.4199,2.4199,2.4199,2.4199,2.4199,2.4199,2.4199,2.4199,2.4199,2.4199,2.4199,2.4199,2.4199,2.4199,2.4199,2.4199,2.4284,2.4384,2.4428,2.4487,2.4536,2.4512,2.4487,2.4568,2.455,2.4575,2.4584,2.4726,2.4898,2.5096,2.5223,2.5293,2.5303,2.5303,2.5303,2.5303,2.5303,2.5303,2.5303,2.5303,2.5303,2.5303,2.5303,2.5303,2.5313,2.5303,2.5303,2.5313,2.539,2.5469,2.556,2.5605,2.5644,2.5693,2.5693,2.5693,2.5693,2.5693,2.5693,2.5693,2.5693,2.5693,2.543,2.5088,2.4082,2.2639,2.1283,2.0547,2.0576,2.0596,2.0596,2.0596,2.0596,2.0596,2.0596,2.0596,2.0547,2.0439,2.0098,1.9336,2.8984,2.8984,2.8984,2.8984,2.8984,2.8984,2.8984,2.8984,2.8984,2.9141,2.936,2.9389,2.9517,2.9713,2.9877,2.9969,2.9999,3.0023,2.9989,2.9884,2.9592,2.9182,2.8489,2.8411,2.7994,2.7334,2.682,2.6209,2.5559,2.4997,2.43,2.4456,2.4549,2.4328,2.4412,2.4301,2.4301,2.4208,2.4199,2.4199,2.4199,2.4199,2.4199,2.4199,2.4199,2.4199,2.4199,2.4199,2.4199,2.4199,2.4199,2.4218,2.4209,2.4199,2.4219,2.4247,2.4209,2.4228,2.4228,2.4266,2.4247,2.4284,2.4472,2.4585,2.4822,2.5063,2.5224,2.5234,2.5243,2.5244,2.5244,2.5284,2.5293,2.5303,2.5303,2.5303,2.5303,2.5303,2.5303,2.5303,2.5303,2.5303,2.5303,2.5409,2.5476,2.5528,2.559,2.5654,2.5693,2.5693,2.5693,2.5693,2.5693,2.5693,2.5693,2.5693,2.5693,2.5576,2.5185,2.4277,2.2959,2.1602,2.0566,2.0586,2.0693,2.0664,2.0605,2.0605,2.0605,2.0596,2.0596,2.0596,2.0449,2.0166,1.9834,2.8984,2.8984,2.8984,2.8984,2.8984,2.8984,2.8984,2.8984,2.8984,2.9145,2.9342,2.9381,2.9505,2.9713,2.9899,2.9999,3.0052,3.0186,3.0167,2.9989,2.9901,2.8465,2.7057,2.7057,2.689,2.6292,2.6444,2.6181,2.5504,2.5667,2.5566,2.5136,2.5548,2.5568,2.5179,2.5021,2.4753,2.4282,2.4199,2.4199,2.4199,2.4199,2.4199,2.4199,2.4199,2.4199,2.4199,2.4199,2.4199,2.4199,2.4199,2.4199,2.4199,2.4199,2.4199,2.4199,2.4199,2.4199,2.4199,2.4199,2.4199,2.4238,2.4494,2.4627,2.4399,2.4776,2.4962,2.4998,2.4998,2.502,2.5044,2.5183,2.5283,2.5303,2.5303,2.5303,2.5303,2.5303,2.5303,2.5303,2.5303,2.5303,2.5313,2.5351,2.5417,2.5485,2.5551,2.5615,2.5664,2.5693,2.5693,2.5693,2.5693,2.5693,2.5693,2.5693,2.5693,2.5693,2.5352,2.4824,2.3359,2.1826,2.1025,2.0596,2.0908,2.0977,2.0752,2.0625,2.0615,2.0596,2.0596,2.0596,2.0596,2.043,2.041,2.8984,2.8984,2.8984,2.8984,2.8984,2.8984,2.8984,2.8984,2.8984,2.9081,2.9242,2.9343,2.9504,2.9715,2.9813,3.0003,3.015,3.0218,3.0186,3.0077,2.9589,2.8581,2.7474,2.7096,2.6597,2.6399,2.6181,2.6034,2.5906,2.608,2.597,2.5917,2.6016,2.5841,2.5375,2.501,2.4698,2.4282,2.4199,2.4199,2.4199,2.4199,2.4199,2.4199,2.4199,2.4246,2.4328,2.4273,2.4199,2.4199,2.4199,2.4199,2.4199,2.4199,2.4199,2.4199,2.4199,2.4199,2.4199,2.4199,2.4199,2.4238,2.4444,2.4435,2.4372,2.4538,2.4638,2.4761,2.4847,2.4892,2.494,2.5141,2.5283,2.5303,2.5303,2.5303,2.5303,2.5303,2.5303,2.5303,2.5303,2.5303,2.5303,2.5332,2.5387,2.5476,2.5541,2.5597,2.5644,2.5674,2.5693,2.5684,2.5693,2.5693,2.5693,2.5693,2.5693,2.5693,2.5596,2.5088,2.418,2.2607,2.1963,2.1533,2.1416,2.1279,2.1191,2.0947,2.0605,2.0596,2.0596,2.0596,2.0596,2.0596,2.0596,2.8984,2.8984,2.8984,2.8984,2.8984,2.8984,2.9035,2.9044,2.9072,2.9081,2.9127,2.9297,2.9441,2.9634,2.9633,2.988,3.0264,3.0099,3.0196,2.9947,2.9398,2.8683,2.8945,2.7394,2.6938,2.691,2.5947,2.5788,2.586,2.563,2.5878,2.6153,2.5876,2.5594,2.5374,2.4785,2.4356,2.4236,2.4199,2.4199,2.4199,2.4199,2.4199,2.4199,2.4199,2.4328,2.4431,2.4348,2.4211,2.4199,2.4199,2.4199,2.4199,2.4199,2.4199,2.4199,2.4199,2.4199,2.4199,2.4199,2.4228,2.4275,2.4266,2.4302,2.443,2.4414,2.4416,2.4532,2.4752,2.4839,2.4943,2.5152,2.5274,2.5303,2.5303,2.5303,2.5303,2.5303,2.5303,2.5303,2.5303,2.5303,2.5322,2.5361,2.5428,2.5434,2.5504,2.5554,2.5609,2.5654,2.5654,2.5654,2.5674,2.5693,2.5693,2.5693,2.5693,2.5693,2.5693,2.543,2.5195,2.4082,2.331,2.2861,2.2852,2.251,2.2021,2.1631,2.1016,2.0596,2.0596,2.0596,2.0596,2.0596,2.0596,2.8984,2.8984,2.8984,2.8984,2.8984,2.8984,2.9108,2.9269,2.9311,2.9259,2.9301,2.9347,2.9328,2.9188,2.9407,2.9626,2.9937,3.0003,3.015,3.0231,2.9259,2.9125,2.9101,2.7656,2.6506,2.6119,2.5673,2.5228,2.5061,2.5832,2.608,2.5796,2.649,2.6629,2.546,2.5117,2.4781,2.4319,2.4218,2.4237,2.4238,2.4228,2.4228,2.4228,2.4209,2.4328,2.4432,2.4318,2.4189,2.4211,2.4199,2.4199,2.4228,2.4209,2.4219,2.4256,2.4238,2.4228,2.4209,2.4238,2.4294,2.4462,2.4409,2.4482,2.4544,2.4463,2.4374,2.4355,2.4467,2.4698,2.4965,2.5173,2.5274,2.5303,2.5303,2.5303,2.5303,2.5303,2.5303,2.5303,2.5303,2.5303,2.5303,2.5313,2.5361,2.5409,2.5447,2.5506,2.5556,2.562,2.5638,2.5634,2.5664,2.5693,2.5693,2.5693,2.5693,2.5693,2.5693,2.5684,2.5459,2.5283,2.4394,2.4209,2.4355,2.3809,2.2959,2.2119,2.1465,2.1045,2.0605,2.0596,2.0596,2.0596,2.0566,2.8984,2.8984,2.8984,2.8984,2.9026,2.9118,2.9044,2.8924,2.9345,2.9078,2.8678,2.9119,2.9303,2.897,2.9355,2.9705,3.0002,3.0142,3.0186,3.0084,2.951,2.9373,2.9178,2.8024,2.6762,2.6076,2.5967,2.5513,2.5309,2.586,2.6365,2.5952,2.6505,2.6105,2.5451,2.5155,2.4746,2.4472,2.4456,2.4475,2.447,2.4393,2.4339,2.4339,2.4339,2.4441,2.4607,2.443,2.4403,2.4399,2.4303,2.4256,2.4312,2.4266,2.4303,2.4491,2.4502,2.45,2.4508,2.4417,2.441,2.4538,2.4426,2.4372,2.4403,2.4382,2.4321,2.4256,2.4339,2.455,2.5053,2.5223,2.5303,2.5303,2.5303,2.5303,2.5303,2.5303,2.5303,2.5303,2.5303,2.5303,2.5303,2.5303,2.5313,2.5361,2.5409,2.5449,2.5498,2.5553,2.5618,2.5644,2.5676,2.5693,2.5693,2.5693,2.5693,2.5693,2.5693,2.5693,2.5605,2.5508,2.5342,2.5195,2.4961,2.4502,2.3672,2.2812,2.1885,2.1103,2.0684,2.0635,2.0566,2.0508,2.0478,2.8984,2.8984,2.8984,2.8984,2.9044,2.9232,2.898,2.8568,2.9255,2.8867,2.7911,2.9049,2.9333,2.8975,2.9408,2.9914,3.0228,3.0364,3.0279,3.0103,2.9849,2.9523,2.9137,2.8417,2.7548,2.676,2.6528,2.6062,2.5713,2.6108,2.6305,2.6174,2.5813,2.5527,2.5246,2.485,2.4602,2.4573,2.4659,2.4745,2.474,2.4607,2.455,2.4579,2.4552,2.4651,2.4754,2.4662,2.4612,2.4771,2.4468,2.4422,2.4467,2.4493,2.4434,2.4835,2.4804,2.4795,2.4708,2.462,2.4561,2.4545,2.4366,2.4275,2.4275,2.4266,2.4228,2.4247,2.4321,2.4556,2.5139,2.5283,2.5293,2.5303,2.5303,2.5303,2.5303,2.5303,2.5303,2.5303,2.5303,2.5303,2.5303,2.5303,2.5303,2.5313,2.5361,2.5409,2.5455,2.5511,2.5585,2.5646,2.5687,2.5693,2.5693,2.5693,2.5693,2.5684,2.5693,2.5684,2.5684,2.5605,2.5508,2.5478,2.5215,2.4824,2.4355,2.3574,2.2559,2.1377,2.0681,2.0541,2.0454,2.0402,2.0386,2.8984,2.8984,2.8984,2.8975,2.8998,2.9044,2.9018,2.9202,2.9276,2.8992,2.833,2.9212,2.9241,2.884,2.9344,2.9836,3.0146,3.0289,3.0367,3.0267,3.0033,2.9654,2.9128,2.9001,2.8251,2.7153,2.6722,2.6268,2.577,2.6147,2.5953,2.5255,2.5389,2.539,2.5019,2.4791,2.4751,2.4739,2.4813,2.4854,2.4837,2.4799,2.479,2.4845,2.479,2.4811,2.4898,2.4825,2.4767,2.478,2.4725,2.4779,2.4879,2.4993,2.4904,2.4752,2.49,2.4891,2.4727,2.47,2.474,2.4716,2.451,2.4434,2.44,2.4284,2.4209,2.4256,2.441,2.466,2.4924,2.5192,2.5293,2.5303,2.5303,2.5303,2.5303,2.5303,2.5303,2.5303,2.5303,2.5303,2.5303,2.5303,2.5303,2.5303,2.5322,2.5409,2.5484,2.5522,2.5568,2.564,2.5692,2.5693,2.5693,2.5693,2.5693,2.5674,2.5674,2.5654,2.5644,2.5625,2.5576,2.5557,2.5576,2.541,2.4863,2.4248,2.4082,2.3535,2.2139,2.0491,2.0378,2.0343,2.0332,2.8737,2.837,2.837,2.8155,2.782,2.7876,2.8002,2.8176,2.8659,2.8268,2.7944,2.8803,2.9055,2.8573,2.9339,2.995,3.0173,3.0323,3.0388,3.0336,3.0101,2.984,2.9338,2.9465,2.8754,2.7881,2.736,2.6508,2.5533,2.5853,2.5514,2.4889,2.5029,2.5082,2.4902,2.4873,2.4898,2.4916,2.4989,2.5036,2.5037,2.5046,2.5072,2.4984,2.4949,2.4946,2.4965,2.4947,2.4908,2.4941,2.5014,2.507,2.5156,2.5183,2.5149,2.4841,2.478,2.4823,2.4702,2.4741,2.4697,2.4846,2.4572,2.443,2.4459,2.4367,2.4218,2.4256,2.4444,2.4751,2.5086,2.5223,2.5293,2.5303,2.5303,2.5303,2.5303,2.5303,2.5303,2.5303,2.5303,2.5303,2.5303,2.5303,2.5303,2.5303,2.5303,2.539,2.5495,2.5534,2.5557,2.5644,2.5693,2.5693,2.5693,2.5693,2.5693,2.5684,2.5656,2.5645,2.5644,2.5635,2.5654,2.5654,2.5693,2.5693,2.5537,2.5019,2.5342,2.519,2.2669,2.0692,2.0429,2.0302,2.0302,2.8145,2.7558,2.756,2.7185,2.6689,2.6779,2.6863,2.7036,2.7945,2.76,2.6637,2.8446,2.8944,2.8398,2.9145,3.0052,3.0232,3.0107,3.0011,3.0129,2.9765,2.9625,2.9585,2.9497,2.8923,2.7913,2.7586,2.6879,2.5848,2.5763,2.5327,2.4898,2.4799,2.487,2.4932,2.5034,2.5052,2.512,2.5197,2.5303,2.5303,2.5293,2.5224,2.5069,2.5057,2.5074,2.5077,2.5072,2.5069,2.5107,2.5178,2.5284,2.5293,2.5303,2.5194,2.4952,2.4556,2.4642,2.4742,2.479,2.4728,2.4809,2.4533,2.4459,2.4393,2.4311,2.4199,2.4247,2.4478,2.4814,2.5171,2.5293,2.5303,2.5303,2.5303,2.5303,2.5303,2.5303,2.5303,2.5303,2.5303,2.5303,2.5313,2.5303,2.5303,2.5303,2.5303,2.5351,2.5447,2.5502,2.5557,2.5644,2.5693,2.5693,2.5693,2.5693,2.5693,2.5693,2.5664,2.5641,2.5655,2.5664,2.5684,2.5684,2.5693,2.5693,2.5693,2.5693,2.5644,2.4686,2.2271,2.0853,2.0453,2.0302,2.0302,2.6833,2.6741,2.6747,2.6689,2.6539,2.6551,2.6633,2.6772,2.7547,2.7488,2.6891,2.8516,2.9017,2.8706,2.9207,2.9706,2.9607,2.9118,2.9158,2.9541,2.9034,2.8679,2.8704,2.921,2.8414,2.7476,2.7026,2.663,2.5914,2.58,2.5583,2.5033,2.4949,2.5046,2.516,2.5186,2.5255,2.5264,2.5293,2.5303,2.5303,2.5303,2.5274,2.5264,2.5244,2.5244,2.5226,2.5221,2.5234,2.5244,2.5264,2.5303,2.5303,2.5303,2.5152,2.4962,2.4799,2.4751,2.4823,2.4841,2.479,2.4752,2.4639,2.453,2.4367,2.4273,2.4218,2.4218,2.4545,2.4906,2.5202,2.5293,2.5303,2.5303,2.5303,2.5303,2.5303,2.5361,2.5351,2.5313,2.5312,2.5322,2.5322,2.5313,2.5303,2.5303,2.5313,2.5361,2.5418,2.5488,2.5557,2.5654,2.5693,2.5693,2.5693,2.5693,2.5693,2.5693,2.5674,2.5644,2.566,2.5678,2.5664,2.5674,2.5684,2.5693,2.5684,2.5684,2.5693,2.4428,2.232,2.1148,2.0356,2.0331,2.0552,2.5511,2.5915,2.5917,2.566,2.5335,2.5705,2.6185,2.6712,2.7428,2.7653,2.7643,2.8608,2.9084,2.8961,2.9106,2.9287,2.9328,2.8374,2.828,2.8682,2.823,2.7802,2.7894,2.8204,2.7789,2.6737,2.5958,2.5596,2.5414,2.5445,2.5241,2.5101,2.5111,2.5195,2.5303,2.5293,2.5303,2.5303,2.5303,2.5303,2.5303,2.5303,2.5303,2.5303,2.5303,2.5303,2.5303,2.5303,2.5303,2.5303,2.5303,2.5303,2.5303,2.5293,2.5243,2.5161,2.5096,2.5003,2.4894,2.4881,2.4827,2.4771,2.4697,2.4478,2.4266,2.4199,2.4199,2.4218,2.4568,2.4932,2.5222,2.5293,2.5303,2.5303,2.5303,2.5303,2.5322,2.5399,2.5428,2.5379,2.534,2.5351,2.5351,2.5322,2.5332,2.5351,2.5332,2.5341,2.5418,2.5513,2.5591,2.5684,2.5693,2.5693,2.5693,2.5693,2.5693,2.5693,2.5693,2.5674,2.5684,2.5686,2.5684,2.5674,2.5693,2.5684,2.5674,2.5371,2.5107,2.3893,2.251,2.158,2.0797,2.1301,2.1358,2.4548,2.5089,2.5091,2.4754,2.4263,2.4855,2.5416,2.605,2.7034,2.7485,2.778,2.848,2.9042,2.892,2.8521,2.8502,2.8717,2.7457,2.7455,2.7534,2.7323,2.7008,2.7152,2.7379,2.7027,2.5895,2.551,2.5154,2.5053,2.5037,2.5087,2.5077,2.5213,2.5283,2.5293,2.5303,2.5303,2.5303,2.5303,2.5303,2.5303,2.5303,2.5303,2.5303,2.5303,2.5303,2.5303,2.5303,2.5303,2.5303,2.5303,2.5303,2.5303,2.5293,2.5303,2.5264,2.5253,2.5172,2.503,2.4968,2.4926,2.486,2.4766,2.4559,2.4437,2.4312,2.4199,2.4209,2.4697,2.5022,2.5233,2.5303,2.5303,2.5303,2.5303,2.5303,2.5313,2.537,2.5399,2.5351,2.5341,2.5398,2.538,2.5351,2.5351,2.538,2.537,2.5341,2.5399,2.5495,2.5579,2.5644,2.5684,2.5684,2.5684,2.5684,2.5693,2.5693,2.5693,2.5693,2.5693,2.5693,2.5693,2.5693,2.5693,2.5693,2.5684,2.5068,2.4458,2.3809,2.3072,2.1969,2.1473,2.2047,2.2329,2.4226,2.4281,2.4309,2.4291,2.4199,2.4255,2.4367,2.4842,2.6159,2.6827,2.7146,2.8164,2.8516,2.8009,2.7733,2.7403,2.6889,2.5948,2.6174,2.6285,2.6022,2.601,2.6248,2.637,2.6282,2.5715,2.5291,2.5154,2.5085,2.4989,2.5109,2.5273,2.5283,2.5293,2.5322,2.5341,2.5341,2.5332,2.5322,2.5322,2.5313,2.5303,2.5303,2.5303,2.5303,2.5303,2.5303,2.5303,2.5303,2.5303,2.5303,2.5303,2.5303,2.5303,2.5303,2.5303,2.5303,2.5254,2.5192,2.5075,2.4943,2.4855,2.4775,2.4738,2.4692,2.4385,2.4247,2.4348,2.4887,2.516,2.5283,2.5303,2.5303,2.5303,2.5313,2.5322,2.5313,2.5313,2.5332,2.5313,2.5341,2.5399,2.5397,2.535,2.538,2.5418,2.5351,2.5322,2.5332,2.5409,2.5512,2.5593,2.5655,2.5674,2.5674,2.5674,2.5693,2.5693,2.5693,2.5693,2.5693,2.5693,2.5693,2.5693,2.5693,2.5693,2.5684,2.5332,2.4932,2.4434,2.3658,2.2616,2.25,2.3128,2.3331,2.4418,2.4199,2.4337,2.431,2.4264,2.4725,2.4942,2.5228,2.6769,2.7524,2.749,2.8011,2.7805,2.7126,2.6511,2.6493,2.6355,2.5181,2.5353,2.537,2.5207,2.4926,2.5102,2.5195,2.4984,2.4892,2.4943,2.5035,2.4893,2.4962,2.512,2.5244,2.5293,2.5332,2.5361,2.5389,2.5409,2.5409,2.538,2.5361,2.5361,2.5322,2.5303,2.5303,2.5303,2.5303,2.5303,2.5303,2.5303,2.5303,2.5303,2.5303,2.5303,2.5303,2.5303,2.5303,2.5303,2.5303,2.5303,2.5214,2.5096,2.4942,2.4875,2.484,2.4892,2.4651,2.4725,2.4913,2.5094,2.5293,2.5303,2.5303,2.5303,2.5303,2.5313,2.5322,2.5332,2.5322,2.5293,2.5303,2.5351,2.5418,2.5398,2.5356,2.5407,2.5438,2.5361,2.5303,2.5322,2.5332,2.5425,2.5482,2.5537,2.5527,2.5532,2.5596,2.5684,2.5693,2.5693,2.5693,2.5693,2.5693,2.5693,2.5693,2.5693,2.5693,2.5693,2.5693,2.5312,2.4629,2.4029,2.3342,2.3602,2.4168,2.4158,2.4623,2.4411,2.4515,2.4441,2.4291,2.4809,2.5031,2.5299,2.6561,2.7479,2.7619,2.746,2.7006,2.6248,2.5759,2.5465,2.5533,2.4892,2.4787,2.4789,2.4709,2.4358,2.4321,2.4414,2.4613,2.4375,2.4528,2.4746,2.4881,2.4952,2.5099,2.5244,2.5303,2.5332,2.5351,2.5432,2.5476,2.5485,2.5464,2.5427,2.5428,2.538,2.5332,2.5332,2.5322,2.5303,2.5303,2.5303,2.5303,2.5303,2.5303,2.5303,2.5303,2.5303,2.5303,2.5303,2.5303,2.5303,2.5303,2.5283,2.5233,2.5101,2.5031,2.4983,2.4956,2.4941,2.5034,2.5182,2.5283,2.5303,2.5303,2.5303,2.5303,2.5303,2.5303,2.5313,2.534,2.5339,2.5312,2.5303,2.5351,2.539,2.5438,2.5407,2.5379,2.5399,2.5351,2.5303,2.5313,2.5322,2.5341,2.5377,2.5404,2.5378,2.5352,2.5439,2.5537,2.5693,2.5693,2.5693,2.5693,2.5693,2.5693,2.5693,2.5693,2.5693,2.5693,2.5693,2.5273,2.4697,2.4324,2.4127,2.438,2.4832,2.4774,2.4795,2.4803,2.4795,2.4582,2.4266,2.4217,2.4282,2.4485,2.5309,2.6073,2.6657,2.662,2.6177,2.5542,2.5237,2.5055,2.4727,2.455,2.4577,2.4625,2.4722,2.4633,2.4614,2.4592,2.4568,2.4568,2.4721,2.4923,2.4965,2.5022,2.5152,2.5244,2.5303,2.5313,2.5293,2.5363,2.5428,2.5485,2.5488,2.5496,2.5484,2.5435,2.5379,2.5361,2.5332,2.5303,2.5313,2.5322,2.5322,2.5341,2.5322,2.5322,2.5322,2.5313,2.5303,2.5303,2.5303,2.5303,2.5303,2.5303,2.5283,2.5263,2.518,2.5197,2.5251,2.5264,2.5223,2.5303,2.5303,2.5303,2.5303,2.5303,2.5303,2.5303,2.5303,2.5322,2.535,2.5405,2.5379,2.5361,2.5341,2.5351,2.5428,2.5457,2.539,2.5351,2.5322,2.5303,2.5303,2.5341,2.537,2.5332,2.5341,2.5332,2.5322,2.5313,2.54,2.5586,2.5693,2.5693,2.5693,2.5693,2.5693,2.5693,2.5693,2.5693,2.5693,2.5693,2.5352,2.5107,2.5234,2.5187,2.5388,2.5351,2.5195,2.4987,2.4809,2.4898,2.4816,2.4584,2.4441,2.4403,2.4504,2.5104,2.563,2.5907,2.5864,2.5345,2.4816,2.4669,2.4561,2.4475,2.4426,2.4535,2.4707,2.4789,2.4746,2.4723,2.4693,2.4685,2.478,2.4958,2.5049,2.4989,2.5099,2.5203,2.5303,2.5303,2.5332,2.5389,2.5459,2.5547,2.5557,2.556,2.5564,2.5551,2.546,2.5385,2.5399,2.5341,2.5322,2.5351,2.5361,2.538,2.5399,2.5399,2.537,2.5351,2.5332,2.5303,2.5303,2.5303,2.5303,2.5303,2.5303,2.5303,2.5303,2.5303,2.5303,2.5303,2.5303,2.5293,2.5303,2.5303,2.5303,2.5303,2.5303,2.5303,2.5303,2.5313,2.5341,2.537,2.5456,2.5476,2.5457,2.5438,2.538,2.5409,2.5438,2.538,2.5399,2.538,2.5341,2.5341,2.5399,2.5438,2.5341,2.5313,2.5313,2.5303,2.5363,2.5407,2.5566,2.5664,2.5693,2.5693,2.5693,2.5693,2.5693,2.5693,2.5693,2.5693,2.5693,2.5693,2.5635,2.5596,2.5566,2.5541,2.5473,2.5367,2.518,2.4978,2.5068,2.5056,2.4945,2.4707,2.4577,2.4579,2.4929,2.5142,2.5133,2.5021,2.481,2.4423,2.4312,2.441,2.4591,2.4657,2.4701,2.487,2.4855,2.4828,2.478,2.4737,2.4713,2.4846,2.5049,2.5184,2.5022,2.5194,2.5283,2.5303,2.5303,2.5332,2.5393,2.5459,2.5547,2.5553,2.5579,2.5571,2.5552,2.5496,2.5394,2.5389,2.538,2.5361,2.5409,2.5428,2.5457,2.5476,2.5468,2.5437,2.5406,2.5351,2.5332,2.5351,2.537,2.5351,2.5322,2.5303,2.5303,2.5303,2.5303,2.5303,2.5303,2.5303,2.5303,2.5303,2.5303,2.5303,2.5303,2.5303,2.5303,2.5303,2.5313,2.5341,2.537,2.5438,2.5511,2.5494,2.5456,2.5418,2.537,2.538,2.5361,2.5409,2.5447,2.5408,2.5385,2.5448,2.5521,2.5456,2.5377,2.5377,2.5424,2.5498,2.5535,2.5572,2.5625,2.5693,2.5693,2.5693,2.5693,2.5693,2.5693,2.5693,2.5693,2.5693,2.5693,2.5684,2.5654,2.5635,2.5635,2.5576,2.5498,2.5303,2.5293,2.5303,2.5284,2.5234,2.4936,2.4725,2.4515,2.4514,2.443,2.4255,2.4319,2.434,2.4464,2.4478,2.4568,2.4736,2.4881,2.4945,2.4985,2.5,2.4933,2.4896,2.49,2.4804,2.479,2.4926,2.5096,2.502,2.5131,2.5234,2.5293,2.5303,2.5322,2.5341,2.5403,2.549,2.5543,2.5566,2.5561,2.5558,2.5484,2.5428,2.5409,2.539,2.538,2.5418,2.5445,2.5492,2.5507,2.551,2.5506,2.5466,2.537,2.5418,2.5457,2.5485,2.5418,2.5322,2.5303,2.5303,2.5303,2.5303,2.5303,2.5303,2.5303,2.5303,2.5303,2.5303,2.5303,2.5303,2.5303,2.5303,2.5303,2.5303,2.5332,2.5361,2.5418,2.5487,2.5492,2.5422,2.5379,2.5332,2.5332,2.5351,2.539,2.5438,2.5484,2.5466,2.5508,2.5565,2.5613,2.5547,2.5493,2.5537,2.5596,2.5619,2.563,2.5654,2.5693,2.5693,2.5693,2.5693,2.5693,2.5693,2.5693,2.5693,2.5693,2.5693,2.5684,2.5674,2.5674,2.5664,2.5674,2.5625,2.5078,2.5099,2.5234,2.5303,2.5293,2.5194,2.4914,2.4505,2.4357,2.4246,2.4199,2.4199,2.4266,2.4312,2.4426,2.4545,2.4682,2.4835,2.4956,2.5032,2.5099,2.505,2.5001,2.4965,2.487,2.4828,2.4865,2.4975,2.4936,2.5039,2.5194,2.5274,2.5293,2.5303,2.5332,2.5361,2.5458,2.5515,2.5533,2.555,2.5556,2.5495,2.5447,2.5399,2.537,2.5378,2.5459,2.5483,2.5535,2.5625,2.5586,2.5576,2.5571,2.5486,2.5476,2.5492,2.5503,2.5457,2.5332,2.5303,2.5303,2.5303,2.5303,2.5303,2.5303,2.5303,2.5303,2.5303,2.5303,2.5303,2.5303,2.5303,2.5303,2.5303,2.5313,2.5332,2.5361,2.5444,2.5511,2.5495,2.5441,2.5354,2.5303,2.5303,2.5332,2.537,2.5418,2.5478,2.5535,2.5574,2.5605,2.5654,2.5654,2.5596,2.5615,2.5664,2.5674,2.5693,2.5693,2.5693,2.5693,2.5693,2.5693,2.5693,2.5693,2.5693,2.5693,2.5693,2.5693,2.5693,2.5693,2.5693,2.5693,2.5693,2.5693,2.5057,2.5022,2.5131,2.502,2.4742,2.4716,2.4332,2.3853,2.4213,2.4264,2.3858,2.408,2.4256,2.4366,2.4545,2.4685,2.4761,2.5015,2.5145,2.5166,2.5166,2.5075,2.501,2.496,2.4888,2.4842,2.4842,2.4894,2.4913,2.5039,2.5204,2.5283,2.5303,2.5322,2.5351,2.5399,2.5466,2.5503,2.5525,2.5535,2.5524,2.5495,2.5399,2.537,2.5332,2.5412,2.5486,2.5512,2.56,2.5693,2.5644,2.5644,2.5642,2.5593,2.557,2.5586,2.5563,2.5495,2.539,2.5351,2.5332,2.5303,2.5313,2.5303,2.5303,2.5303,2.5303,2.5303,2.5303,2.5303,2.5303,2.5303,2.5303,2.5303,2.5322,2.5332,2.5408,2.549,2.5512,2.5509,2.5442,2.534,2.5303,2.5303,2.5313,2.5351,2.5418,2.5492,2.5551,2.561,2.5644,2.5684,2.5693,2.5674,2.5693,2.5693,2.5693,2.5693,2.5693,2.5693,2.5693,2.5693,2.5693,2.5693,2.5693,2.5693,2.5693,2.5693,2.5693,2.5693,2.5693,2.5693,2.5693,2.5693,2.5693,2.4942,2.4741,2.4815,2.4329,2.3772,2.3726,2.3256,2.265,2.3864,2.4054,2.3317,2.3785,2.41,2.4169,2.4511,2.462,2.4739,2.4952,2.4893,2.5168,2.5154,2.4996,2.4788,2.4898,2.4875,2.486,2.485,2.4872,2.501,2.5111,2.5194,2.5293,2.5303,2.5332,2.538,2.5418,2.5494,2.5564,2.5528,2.5502,2.5489,2.5419,2.5313,2.5332,2.537,2.5428,2.5485,2.5557,2.5635,2.5674,2.5693,2.5693,2.5684,2.5674,2.5674,2.5644,2.5609,2.5532,2.5453,2.5418,2.538,2.5361,2.5332,2.5341,2.5351,2.5313,2.5303,2.5303,2.5303,2.5303,2.5303,2.5303,2.5303,2.5303,2.5313,2.5332,2.538,2.5485,2.5593,2.5563,2.5481,2.5383,2.5303,2.5303,2.5303,2.5341,2.5409,2.5487,2.5551,2.5617,2.5664,2.5693,2.5693,2.5693,2.5693,2.5693,2.5693,2.5693,2.5693,2.5693,2.5693,2.5693,2.5693,2.5693,2.5693,2.5693,2.5693,2.5693,2.5693,2.5693,2.5693,2.5693,2.5693,2.5693,2.5693,2.3142,2.3105,2.3258,2.3146,2.2924,2.2996,2.2542,2.1836,2.2652,2.2758,2.2469,2.2941,2.3327,2.3479,2.4251,2.4327,2.3945,2.4484,2.4278,2.4299,2.448,2.476,2.4436,2.482,2.4876,2.4842,2.4842,2.4911,2.5022,2.5099,2.5182,2.5293,2.5313,2.5351,2.5409,2.5447,2.5529,2.5613,2.5589,2.5549,2.5553,2.5509,2.5438,2.539,2.538,2.5399,2.5451,2.5521,2.561,2.5674,2.5693,2.5693,2.5693,2.5693,2.5674,2.5635,2.5615,2.5559,2.5508,2.5488,2.5453,2.5457,2.5457,2.5447,2.5418,2.5341,2.5303,2.5303,2.5303,2.5303,2.5303,2.5303,2.5303,2.5303,2.5303,2.5332,2.5361,2.5498,2.5641,2.5603,2.5511,2.5412,2.533,2.5303,2.5303,2.5351,2.5428,2.55,2.5541,2.5596,2.5664,2.5693,2.5693,2.5693,2.5693,2.5693,2.5693,2.5693,2.5693,2.5693,2.5693,2.5693,2.5693,2.5693,2.5693,2.5693,2.5693,2.5693,2.5693,2.5693,2.5693,2.5693,2.5693,2.5693,2.5693,2.2572,2.2523,2.2716,2.248,2.2073,2.215,2.174,2.1121,2.128,2.1251,2.1226,2.2022,2.2562,2.2574,2.3388,2.3609,2.3074,2.3748,2.3887,2.3833,2.3933,2.4481,2.4645,2.4855,2.5005,2.5034,2.5034,2.5084,2.5099,2.5142,2.5224,2.5303,2.5332,2.5361,2.5437,2.5512,2.5576,2.5633,2.5644,2.5635,2.5605,2.5527,2.5445,2.5379,2.537,2.539,2.5453,2.5525,2.559,2.5664,2.5693,2.5693,2.5693,2.5693,2.5674,2.5664,2.5654,2.5635,2.5586,2.5547,2.5527,2.5536,2.5517,2.5488,2.547,2.5397,2.5361,2.5351,2.5313,2.5303,2.5303,2.5303,2.5303,2.5303,2.5313,2.5332,2.5361,2.5427,2.558,2.5661,2.5533,2.536,2.5303,2.5303,2.5303,2.5322,2.5409,2.5463,2.5511,2.5577,2.5644,2.5684,2.5674,2.5693,2.5693,2.5693,2.5693,2.5693,2.5693,2.5693,2.5693,2.5693,2.5693,2.5693,2.5693,2.5693,2.5693,2.5693,2.5693,2.5693,2.5693,2.5693,2.5693,2.5693,2.5693,2.2297,2.2231,2.2372,2.1926,2.1164,2.127,2.0972,2.0389,2.016,2.0039,2.01,2.1213,2.1697,2.1904,2.2233,2.2303,2.2528,2.3026,2.3304,2.3429,2.3779,2.4227,2.4749,2.5166,2.5214,2.5234,2.5243,2.5243,2.5254,2.5254,2.5264,2.5312,2.537,2.5428,2.5505,2.5566,2.5615,2.5664,2.5684,2.5693,2.5615,2.5518,2.546,2.5414,2.538,2.5399,2.5483,2.5546,2.5592,2.5644,2.5693,2.5693,2.5693,2.5693,2.5693,2.5684,2.5684,2.5684,2.5674,2.5644,2.5596,2.5558,2.5537,2.5517,2.5512,2.5488,2.5445,2.5409,2.537,2.5303,2.5303,2.5313,2.5313,2.5303,2.5322,2.5351,2.538,2.5398,2.5522,2.566,2.5525,2.5338,2.5303,2.5303,2.5313,2.5322,2.536,2.5414,2.5476,2.5537,2.5605,2.5635,2.5635,2.5654,2.5693,2.5693,2.5693,2.5693,2.5693,2.5693,2.5693,2.5693,2.5693,2.5693,2.5693,2.5693,2.5693,2.5693,2.5693,2.5693,2.5693,2.5693,2.5693,2.5693,2.5693,2.0649,2.0489,2.0708,2.0566,2.0307,2.0456,2.0437,2.0321,2.0256,2.0137,2.0078,2.0151,2.0573,2.1091,2.2098,2.2191,2.1643,2.2172,2.2139,2.2091,2.3323,2.3973,2.4553,2.5156,2.5264,2.5303,2.5303,2.5303,2.5303,2.5303,2.5303,2.5313,2.537,2.5432,2.5497,2.5566,2.5635,2.5684,2.5693,2.5693,2.5674,2.5605,2.5566,2.5529,2.5486,2.5524,2.5572,2.5572,2.5629,2.5674,2.5693,2.5693,2.5684,2.5684,2.5684,2.5693,2.5693,2.5918,2.5947,2.5791,2.5723,2.583,2.5781,2.5637,2.5632,2.5635,2.5592,2.5567,2.5492,2.535,2.5322,2.5313,2.5322,2.5313,2.5313,2.5389,2.5444,2.5445,2.5481,2.5535,2.5508,2.5377,2.5303,2.5303,2.5303,2.5322,2.5351,2.5394,2.5382,2.5467,2.5556,2.5563,2.5567,2.5644,2.5693,2.5693,2.5693,2.5693,2.5693,2.5674,2.5674,2.5693,2.5693,2.5693,2.5693,2.5693,2.5693,2.5693,2.5693,2.5693,2.5693,2.5693,2.5693,2.5693,2.5693]},{"header":{"parameterUnit":"m.s-1","parameterCategory":1,"la1":31.0,"la2":29.5877,"lo1":-88.7671,"lo2":-86.6584,"dy":0.0162,"dx":0.0185,"nx":115,"ny":88,"refTime":"2023-07-24T18:00:00:Z","depth":0,"parameterNumber":3,"parameterNumberName":"V-component_of_WINDS"},"data":[0.0,0.0,0.0,0.0,0.0,0.0,0.0,0.0,0.0,0.0,0.0,0.0,0.0,0.0,0.0,0.0,0.0,0.0,0.0,0.0,0.0,0.0,0.0,0.0,0.0,0.0,0.0,0.0,0.0,0.0,0.0,0.0,0.0,0.0,0.0,0.0,0.0,0.0,0.0,0.0,0.0,0.0,0.0,0.0,0.0,0.0,0.0,0.0,0.0,0.0,0.0,0.0,0.0,0.0,0.0,0.0,0.0,0.0,0.0,0.0,0.0,0.0,0.0,0.0,0.0,0.0,0.0,0.0,0.0,0.0,0.0,0.0,0.0,0.0,0.0,0.0,0.0,0.0,0.0,0.0,0.0,0.0,0.0,0.0,0.0,0.0,0.0,0.0,0.0,0.0,0.0,0.0,0.0,0.0,0.0,0.0,0.0,0.0,0.0,0.0,0.0,0.0,0.0,0.0,0.0,0.0,0.0,0.0,0.0,0.0,0.0,0.0,0.0,0.0,0.0,0.0,0.0,0.0,0.0,0.0,0.0,0.0,0.0,0.0,0.0,0.0,0.0,0.0,0.0,0.0,0.0,0.0,0.0,0.0,0.0,0.0,0.0,0.0,0.0,0.0,0.0,0.0,0.0,0.0,0.0,0.0,0.0,0.0,0.0,0.0,0.0,0.0,0.0,0.0,0.0,0.0,0.0,0.0,0.0,0.0,0.0,0.0,0.0,0.0,0.0,0.0,0.0,0.0,0.0,0.0,0.0,0.0,0.0,0.0,0.0,0.0,0.0,0.0,0.0,0.0,0.0,0.0,0.0,0.0,0.0,0.0,0.0,0.0,0.0,0.0,0.0,0.0,0.0,0.0,0.0,0.0,0.0,0.0,0.0,0.0,0.0,0.0,0.0,0.0,0.0,0.0,0.0,0.0,0.0,0.0,0.0,0.0,0.0,0.0,0.0,0.0,0.0,0.0,0.0,0.0,0.0,0.0,0.0,0.0,0.0,0.0,0.0,0.0,0.0,0.0,0.0,0.0,0.0,0.0,0.0,0.0,0.0,0.0,0.0,0.0,0.0,0.0,0.0,0.0,0.0,0.0,0.0,0.0,0.0,0.0,0.0,0.0,0.0,0.0,0.0,0.0,0.0,0.0,0.0,0.0,0.0,0.0,0.0,0.0,0.0,0.0,0.0,0.0,0.0,0.0,0.0,0.0,0.0,0.0,0.0,0.0,0.0,0.0,0.0,0.0,0.0,0.0,0.0,0.0,0.0,0.0,0.0,0.0,0.0,0.0,0.0,0.0,0.0,0.0,0.0,0.0,0.0,0.0,0.0,0.0,0.0,0.0,0.0,0.0,0.0,0.0,0.0,0.0,0.0,0.0,0.0,0.0,0.0,0.0,0.0,0.0,0.0,0.0,0.0,0.0,0.0,0.0,0.0,0.0,0.0,0.0,0.0,0.0,0.0,0.0,0.0,0.0,0.0,0.0,0.0,0.0,0.0,0.0,0.0,0.0,0.0,0.0,0.0,0.0,0.0,0.0,0.0,0.0,0.0,0.0,0.0,0.0,0.0,0.0,0.0,0.0,0.0,0.0,0.0,0.0,0.0,0.0,0.0,0.0,0.0,0.0,0.0,0.0,0.0,0.0,0.0,0.0,0.0,0.0,0.0,0.0,0.0,0.0,0.0,0.0,0.0,0.0,0.0,0.0,0.0,0.0,0.0,0.0,0.0,0.0,0.0,0.0,0.0,0.0,0.0,0.0,0.0,0.0,0.0,0.0,0.0,0.0,0.0,0.0,0.0,0.0,0.0,0.0,0.0,0.0,0.0,0.0,0.0,0.0,0.0,0.0,0.0,0.0,0.0,0.0,0.0,0.0,0.0,0.0,0.0,0.0,0.0,0.0,0.0,0.0,0.0,0.0,0.0,0.0,0.0,0.0,0.0,0.0,0.0,0.0,0.0,0.0,0.0,0.0,0.0,0.0,0.0,0.0,0.0,0.0,0.0,0.0,0.0,0.0,0.0,0.0,0.0,0.0,0.0,0.0,0.0,0.0,0.0,0.0,0.0,0.0,0.0,0.0,0.0,0.0,0.0,0.0,0.0,0.0,0.0,0.0,0.0,0.0,0.0,0.0,0.0,0.0,0.0,0.0,0.0,0.0,0.0,0.0,0.0,0.0,0.0,0.0,0.0,0.0,0.0,0.0,0.0,0.0,0.0,0.0,0.0,0.0,0.0,0.0,0.0,0.0,0.0,0.0,0.0,0.0,0.0,0.0,0.0,0.0,0.0,0.0,0.0,0.0,0.0,0.0,0.0,0.0,0.0,0.0,0.0,0.0,0.0,0.0,0.0,0.0,0.0,0.0,0.0,0.0,0.0,0.0,0.0,0.0,0.0,0.0,0.0,0.0,0.0,0.0,0.0,0.0,0.0,0.0,0.0,0.0,0.0,0.0,0.0,0.0,0.0,0.0,0.0,0.0,0.0,0.0,0.0,0.0,0.0,0.0,0.0,0.0,0.0,0.0,0.0,0.0,0.0,0.0,0.0,0.0,0.0,0.0,0.0,0.0,0.0,0.0,0.0,0.0,0.0,0.0,0.0,0.0,0.0,0.0,0.0,0.0,0.0,0.0,0.0,0.0,0.0,0.0,0.0,0.0,0.0,0.0,0.0,0.0,0.0,0.0,0.0,0.0,0.0,0.0,0.0,0.0,0.0,0.0,0.0,0.0,0.0,0.0,0.0,0.0,0.0,0.0,0.0,0.0,0.0,0.0,0.0,0.0,0.0,0.0,0.0,0.0,0.0,0.0,0.0,0.0,0.0,0.0,0.0,0.0,0.0,0.0,0.0,0.0,0.0,0.0,0.0,0.0,0.0,0.0,0.0,0.0,0.0,0.0,0.0,0.0,0.0,0.0,0.0,0.0,0.0,0.0,0.0,0.0,0.0,0.0,0.0,0.0,0.0,0.0,0.0,0.0,0.0,0.0,0.0,0.0,0.0,0.0,0.0,0.0,0.0,0.0,0.0,0.0,0.0,0.0,0.0,0.0,0.0,0.0,0.0,0.0,0.0,0.0,0.0,0.0,0.0,0.0,0.0,0.0,0.0,0.0,0.0,0.0,0.0,0.0,0.0,0.0,0.0,0.0,0.0,0.0,0.0,0.0,0.0,0.0,0.0,0.0,0.0,0.0,0.0,0.0,0.0,0.0,0.0,0.0,0.0,0.0,0.0,0.0,0.0,0.0,0.0,0.0,0.0,0.0,0.0,0.0,0.0,0.0,0.0,0.0,0.0,0.0,0.0,0.0,0.0,0.0,0.0,0.0,0.0,0.0,0.0,0.0,0.0,0.0,0.0,0.0,0.0,0.0,0.0,0.0,0.0,0.0,0.0,0.0,0.0,0.0,0.0,0.0,0.0,0.0,0.0,0.0,0.0,0.0,0.0,0.0,0.0,0.0,0.0,0.0,0.0,0.0,0.0,0.0,0.0,0.0,0.0,0.0,0.0,0.0,0.0,0.0,0.0,0.0,0.0,0.0,0.0,0.0,0.0,0.0,0.0,0.0,0.0,0.0,0.0,0.0,0.0,0.0,0.0,0.0,0.0,0.0,0.0,0.0,0.0,0.0,0.0,0.0,0.0,0.0,0.0,0.0,0.0,0.0,0.0,0.0,0.0,0.0,0.0,0.0,0.0,0.0,0.0,0.0,0.0,0.0,0.0,0.0,0.0,0.0,0.0,0.0,0.0,0.0,0.0,0.0,0.0,0.0,0.0,0.0,0.0,0.0,0.0,0.0,0.0,0.0,0.0,0.0,0.0,0.0,0.0,0.0,0.0,0.0,0.0,0.0,0.0,0.0,0.0,0.0,0.0,0.0,0.0,0.0,0.0,0.0,0.0,0.0,0.0,0.0,0.0,0.0,0.0,0.0,0.0,0.0,0.0,0.0,0.0,0.0,0.0,0.0,0.0,0.0,0.0,0.0,0.0,0.0,0.0,0.0,0.0,0.0,0.0,0.0,0.0,0.0,0.0,0.0,0.0,0.0,0.0,0.0,0.0,0.0,0.0,0.0,0.0,0.0,0.0,0.0,0.0,0.0,0.0,0.0,0.0,0.0,0.0,0.0,0.0,0.0,0.0,0.0,0.0,0.0,0.0,0.0,0.0,0.0,0.0,0.0,0.0,0.0,0.0,0.0,0.0,0.0,0.0,0.0,0.0,0.0,0.0,0.0,0.0,0.0,0.0,0.0,0.0,0.0,0.0,0.0,0.0,0.0,0.0,0.0,0.0,0.0,-0.349,0.0,0.0,0.0,0.0,0.0,0.0,0.0,0.0,0.0,0.0,0.0,0.0,0.0,0.0,0.0,0.0,0.0,0.0,0.0,0.0,0.0,0.0,0.0,0.0,0.0,0.0,0.0,0.0,0.0,0.0,0.0,0.0,0.0,0.0,0.0,0.0,0.0,0.0,0.0,0.0,0.0,0.0,0.0,0.0,0.0,0.0,0.0,0.0,0.0,0.0,0.0,0.0,0.0,0.0,0.0,0.0,0.0,0.0,0.0,0.0,0.0,0.0,0.0,0.0,0.0,0.0,0.0,0.0,0.0,0.0,0.0,0.0,0.0,0.0,0.0,0.0,0.0,0.0,0.0,0.0,0.0,0.0,0.0,0.0,0.0,0.0,0.0,0.0,0.0,0.0,0.0,0.0,0.0,0.0,0.0,0.0,0.0,0.0,0.0,0.0,0.0,0.0,0.0,0.0,0.0,0.0,0.0,0.0,0.0,0.0,-0.4114,-0.356,-0.3313,-0.3252,-0.3398,0.0,0.0,0.0,0.0,0.0,0.0,0.0,0.0,0.0,0.0,0.0,0.0,0.0,0.0,0.0,0.0,0.0,0.0,0.0,0.0,0.0,0.0,0.0,0.0,0.0,0.0,0.0,0.0,0.0,0.0,0.0,0.0,0.0,0.0,0.0,0.0,0.0,0.0,0.0,0.0,0.0,0.0,0.0,0.0,0.0,0.0,0.0,0.0,0.0,0.0,0.0,0.0,0.0,0.0,0.0,0.0,0.0,0.0,0.0,0.0,0.0,0.0,0.0,0.0,0.0,0.0,0.0,0.0,0.0,0.0,0.0,0.0,0.0,0.0,0.0,0.0,0.0,0.0,0.0,0.0,0.0,0.0,0.0,0.0,0.0,0.0,0.0,0.0,0.0,0.0,0.0,0.0,0.0,0.0,0.0,0.0,0.0,0.0,0.0,0.0,0.0,0.0,0.0,0.0,0.0,0.0,0.0,0.0,0.0,0.0,0.0,0.0,-0.3553,-0.3363,-0.3326,0.0,0.0,0.0,0.0,0.0,0.0,0.0,0.0,0.0,0.0,0.0,0.0,0.0,0.0,0.0,0.0,0.0,0.0,0.0,0.0,0.0,0.0,0.0,0.0,0.0,0.0,0.0,0.0,0.0,0.0,0.0,0.0,0.0,0.0,0.0,0.0,0.0,0.0,0.0,0.0,0.0,0.0,0.0,0.0,0.0,0.0,0.0,0.0,0.0,0.0,0.0,0.0,0.0,0.0,0.0,0.0,0.0,0.0,0.0,0.0,0.0,0.0,0.0,0.0,0.0,0.0,0.0,0.0,0.0,0.0,0.0,0.0,0.0,0.0,0.0,0.0,0.0,0.0,0.0,0.0,0.0,0.0,0.0,0.0,0.0,0.0,0.0,0.0,0.0,0.0,0.0,0.0,0.0,0.0,0.0,0.0,0.0,0.0,0.0,0.0,0.0,0.0,0.0,0.0,0.0,0.0,0.0,0.0,0.0,0.0,-0.3812,-0.4827,-0.4484,0.0,-0.3417,0.0,0.0,0.0,0.0,0.0,0.0,0.0,0.0,0.0,0.0,0.0,0.0,0.0,0.0,0.0,0.0,0.0,0.0,0.0,0.0,0.0,0.0,0.0,0.0,0.0,0.0,0.0,0.0,0.0,0.0,0.0,0.0,0.0,0.0,0.0,0.0,0.0,0.0,0.0,0.0,0.0,0.0,0.0,0.0,0.0,0.0,0.0,0.0,0.0,0.0,0.0,0.0,0.0,0.0,0.0,0.0,0.0,0.0,0.0,0.0,0.0,0.0,0.0,0.0,0.0,0.0,0.0,0.0,0.0,0.0,0.0,0.0,0.0,0.0,0.0,0.0,0.0,0.0,0.0,0.0,0.0,0.0,0.0,0.0,0.0,0.0,0.0,0.0,0.0,0.0,0.0,0.0,0.0,0.0,0.0,0.0,0.0,0.0,0.0,0.0,0.0,0.0,0.0,0.0,0.0,0.0,0.0,0.0,0.0,0.0,-0.3663,-0.445,-0.4492,-0.3996,0.0,0.0,0.0,0.0,0.0,0.0,0.0,0.0,0.0,0.0,0.0,0.0,0.0,0.0,0.0,0.0,0.0,0.0,0.0,0.0,0.0,0.0,0.0,0.0,0.0,0.0,0.0,0.0,0.0,0.0,0.0,0.0,0.0,0.0,0.0,0.0,0.0,0.0,0.0,0.0,0.0,0.0,0.0,0.0,0.0,0.0,0.0,0.0,0.0,0.0,0.0,0.0,0.0,0.0,0.0,0.0,0.0,0.0,0.0,0.0,0.0,0.0,0.0,0.0,0.0,0.0,0.0,0.0,0.0,0.0,0.0,0.0,0.0,0.0,0.0,0.0,0.0,0.0,0.0,0.0,0.0,0.0,0.0,0.0,0.0,0.0,0.0,0.0,0.0,0.0,0.0,0.0,0.0,0.0,0.0,0.0,0.0,0.0,0.0,0.0,0.0,0.0,0.0,0.0,0.0,0.0,0.0,0.0,0.0,0.0,-0.3592,-0.3706,-0.4237,-0.4265,-0.4054,-0.3655,0.0,0.0,0.0,0.0,0.0,0.0,0.0,0.0,0.0,0.0,0.0,0.0,0.0,0.0,0.0,0.0,0.0,0.0,0.0,0.0,0.0,0.0,0.0,0.0,0.0,0.0,0.0,0.0,0.0,0.0,0.0,0.0,0.0,0.0,0.0,0.0,0.0,0.0,0.0,0.0,0.0,0.0,0.0,0.0,0.0,0.0,0.0,0.0,0.0,0.0,0.0,0.0,0.0,0.0,0.0,0.0,0.0,0.0,0.0,0.0,0.0,0.0,0.0,0.0,0.0,0.0,0.0,0.0,0.0,0.0,0.0,0.0,0.0,0.0,0.0,0.0,0.0,0.0,0.0,0.0,0.0,0.0,0.0,0.0,0.0,0.0,0.0,0.0,0.0,0.0,0.0,0.0,0.0,0.0,0.0,0.0,0.0,0.0,0.0,0.0,0.0,0.0,0.0,0.0,0.0,0.0,0.0,0.0,-0.5181,-0.4294,-0.4053,-0.4615,-0.389,-0.431,0.0,0.0,0.0,0.0,0.0,0.0,0.0,0.0,0.0,0.0,0.0,0.0,0.0,0.0,0.0,0.0,0.0,0.0,0.0,0.0,0.0,0.0,0.0,0.0,0.0,0.0,0.0,0.0,0.0,0.0,0.0,0.0,0.0,0.0,0.0,0.0,0.0,0.0,0.0,0.0,0.0,0.0,0.0,0.0,0.0,0.0,0.0,0.0,0.0,0.0,0.0,0.0,0.0,0.0,0.0,0.0,0.0,0.0,0.0,0.0,0.0,0.0,0.0,0.0,0.0,0.0,0.0,0.0,0.0,0.0,0.0,0.0,0.0,0.0,0.0,0.0,0.0,0.0,0.0,0.0,0.0,0.0,0.0,0.0,0.0,0.0,0.0,0.0,0.0,0.0,0.0,0.0,0.0,0.0,0.0,0.0,0.0,0.0,0.0,0.0,0.0,0.0,0.0,0.0,0.0,0.0,0.0,0.0,0.0,-0.3902,-0.4098,-0.4197,-0.4271,-0.4559,-0.4784,0.0,0.0,0.0,0.0,0.0,0.0,0.0,0.0,0.0,0.0,0.0,0.0,0.0,0.0,0.0,0.0,0.0,0.0,0.0,0.0,0.0,0.0,0.0,0.0,0.0,0.0,0.0,0.0,0.0,0.0,0.0,0.0,0.0,0.0,0.0,0.0,0.0,0.0,0.0,0.0,0.0,0.0,0.0,0.0,0.0,0.0,0.0,0.0,0.0,0.0,0.0,0.0,0.0,0.0,0.0,0.0,0.0,0.0,0.0,0.0,0.0,0.0,0.0,0.0,0.0,0.0,0.0,0.0,0.0,0.0,0.0,0.0,0.0,0.0,0.0,0.0,0.0,0.0,0.0,0.0,0.0,0.0,0.0,0.0,0.0,0.0,0.0,0.0,0.0,0.0,0.0,0.0,0.0,0.0,0.0,0.0,0.0,0.0,0.0,0.0,0.0,0.0,0.0,0.0,0.0,0.0,0.0,0.0,0.0,-0.3213,0.0,-0.396,-0.3999,-0.4573,-0.4624,0.0,0.0,0.0,0.0,0.0,0.0,0.0,0.0,0.0,0.0,0.0,0.0,0.0,0.0,0.0,0.0,0.0,0.0,0.0,0.0,0.0,0.0,0.0,0.0,0.0,0.0,0.0,0.0,0.0,0.0,0.0,0.0,0.0,0.0,0.0,0.0,0.0,0.0,0.0,0.0,0.0,0.0,0.0,0.0,0.0,0.0,0.0,0.0,0.0,0.0,0.0,0.0,0.0,0.0,0.0,0.0,0.0,0.0,0.0,0.0,0.0,0.0,0.0,0.0,0.0,0.0,0.0,0.0,0.0,0.0,0.0,0.0,0.0,0.0,0.0,0.0,0.0,0.0,0.0,0.0,0.0,0.0,0.0,0.0,0.0,0.0,0.0,0.0,0.0,0.0,0.0,0.0,0.0,0.0,0.0,0.0,0.0,0.0,0.0,0.0,0.0,0.0,0.0,0.0,0.0,0.0,0.0,0.0,-0.3079,-0.3403,-0.3169,-0.3353,-0.3887,-0.384,-0.3921,0.0,0.0,0.0,0.0,0.0,0.0,0.0,0.0,0.0,0.0,0.0,0.0,0.0,0.0,0.0,0.0,0.0,0.0,0.0,0.0,0.0,0.0,0.0,0.0,0.0,0.0,0.0,0.0,0.0,0.0,0.0,0.0,0.0,0.0,0.0,0.0,0.0,0.0,0.0,0.0,0.0,0.0,0.0,0.0,0.0,0.0,0.0,0.0,0.0,0.0,0.0,0.0,0.0,0.0,0.0,0.0,0.0,0.0,0.0,0.0,0.0,0.0,0.0,0.0,0.0,0.0,0.0,0.0,0.0,0.0,0.0,0.0,0.0,0.0,0.0,0.0,0.0,0.0,0.0,0.0,0.0,0.0,0.0,0.0,0.0,0.0,0.0,0.0,0.0,0.0,0.0,0.0,0.0,0.0,0.0,0.0,0.0,0.0,0.0,0.0,0.0,0.0,0.0,0.0,0.0,0.0,0.0,0.0,0.0,-0.4255,-0.3552,-0.3681,-0.4714,-0.4252,-0.4239,0.0,0.0,0.0,0.0,0.0,0.0,0.0,0.0,0.0,0.0,0.0,0.0,0.0,0.0,0.0,0.0,0.0,0.0,0.0,0.0,0.0,0.0,0.0,0.0,0.0,0.0,0.0,0.0,0.0,0.0,0.0,0.0,0.0,0.0,0.0,0.0,0.0,0.0,0.0,0.0,0.0,0.0,0.0,0.0,0.0,0.0,0.0,0.0,0.0,0.0,0.0,0.0,0.0,0.0,0.0,0.0,0.0,0.0,0.0,0.0,0.0,0.0,0.0,0.0,0.0,0.0,0.0,0.0,0.0,0.0,0.0,0.0,0.0,0.0,0.0,0.0,0.0,0.0,0.0,0.0,0.0,0.0,0.0,0.0,0.0,0.0,0.0,0.0,0.0,0.0,0.0,0.0,0.0,0.0,0.0,0.0,0.0,0.0,0.0,0.0,0.0,0.0,0.0,0.0,0.0,0.0,0.0,0.0,0.0,-0.4883,-0.3673,-0.3574,-0.482,-0.4321,-0.426,-0.4777,0.0,0.0,0.0,0.0,0.0,0.0,0.0,0.0,0.0,0.0,0.0,0.0,0.0,0.0,0.0,0.0,0.0,0.0,0.0,0.0,0.0,0.0,0.0,0.0,0.0,0.0,0.0,0.0,0.0,0.0,0.0,0.0,0.0,0.0,0.0,0.0,0.0,0.0,0.0,0.0,0.0,0.0,0.0,0.0,0.0,0.0,0.0,0.0,0.0,0.0,0.0,0.0,0.0,0.0,0.0,0.0,0.0,0.0,0.0,0.0,0.0,0.0,0.0,0.0,0.0,0.0,0.0,0.0,0.0,0.0,0.0,0.0,0.0,0.0,0.0,0.0,0.0,0.0,0.0,0.0,0.0,0.0,0.0,0.0,0.0,0.0,0.0,0.0,0.0,0.0,0.0,0.0,0.0,0.0,0.0,0.0,0.0,0.0,0.0,0.0,0.0,0.0,0.0,0.0,0.0,0.0,0.0,0.0,-0.5422,-0.3689,-0.3303,-0.4355,-0.4103,-0.4038,0.0,0.0,0.0,0.0,0.0,0.0,0.0,0.0,0.0,0.0,0.0,0.0,0.0,0.0,0.0,0.0,0.0,0.0,0.0,0.0,0.0,0.0,0.0,0.0,0.0,0.0,0.0,0.0,0.0,0.0,0.0,0.0,0.0,0.0,0.0,0.0,0.0,0.0,0.0,0.0,0.0,0.0,0.0,0.0,0.0,0.0,0.0,0.0,0.0,0.0,0.0,0.0,0.0,0.0,0.0,0.0,0.0,0.0,0.0,0.0,0.0,0.0,0.0,0.0,0.0,0.0,0.0,0.0,0.0,0.0,0.0,0.0,0.0,0.0,0.0,0.0,0.0,0.0,0.0,0.0,0.0,0.0,0.0,0.0,0.0,0.0,0.0,0.0,0.0,0.0,0.0,0.0,0.0,0.0,0.0,0.0,0.0,0.0,0.0,0.0,0.0,0.0,0.0,0.0,0.0,0.0,0.0,0.0,0.0,-0.5868,-0.5151,-0.4884,-0.5165,-0.4682,-0.4442,0.0,0.0,0.0,0.0,0.0,0.0,0.0,0.0,0.0,0.0,0.0,0.0,0.0,0.0,0.0,0.0,0.0,0.0,0.0,0.0,0.0,0.0,0.0,0.0,0.0,0.0,0.0,0.0,0.0,0.0,0.0,0.0,0.0,0.0,0.0,0.0,0.0,0.0,0.0,0.0,0.0,0.0,0.0,0.0,0.0,0.0,0.0,0.0,0.0,0.0,0.0,0.0,0.0,0.0,0.0,0.0,0.0,0.0,0.0,0.0,0.0,0.0,0.0,0.0,0.0,0.0,0.0,0.0,0.0,0.0,0.0,0.0,0.0,0.0,0.0,0.0,0.0,0.0,0.0,0.0,0.0,0.0,0.0,0.0,0.0,0.0,0.0,0.0,0.0,0.0,0.0,0.0,0.0,0.0,0.0,0.0,0.0,0.0,0.0,0.0,0.0,0.0,0.0,0.0,0.0,0.0,0.0,0.0,-0.5533,-0.5721,-0.5892,-0.593,-0.5876,-0.5696,-0.5189,0.0,0.0,0.0,0.0,0.0,0.0,0.0,0.0,0.0,0.0,0.0,0.0,0.0,0.0,0.0,0.0,0.0,0.0,0.0,0.0,0.0,0.0,0.0,0.0,0.0,0.0,0.0,0.0,0.0,0.0,0.0,0.0,0.0,0.0,0.0,0.0,0.0,0.0,0.0,0.0,0.0,0.0,0.0,0.0,0.0,0.0,0.0,0.0,0.0,0.0,0.0,0.0,0.0,0.0,0.0,0.0,0.0,0.0,0.0,0.0,0.0,0.0,0.0,0.0,0.0,0.0,0.0,0.0,0.0,0.0,0.0,0.0,0.0,0.0,0.0,0.0,0.0,0.0,0.0,0.0,0.0,0.0,0.0,0.0,0.0,0.0,0.0,0.0,0.0,0.0,0.0,0.0,0.0,0.0,0.0,0.0,0.0,0.0,0.0,0.0,0.0,0.0,0.0,0.0,0.0,0.0,0.0,0.0,-0.525,-0.5374,-0.6214,-0.664,-0.6532,-0.6786,-0.603,0.0,0.0,0.0,0.0,0.0,0.0,0.0,0.0,0.0,0.0,0.0,0.0,0.0,0.0,0.0,0.0,0.0,0.0,0.0,0.0,0.0,0.0,0.0,0.0,0.0,0.0,0.0,0.0,0.0,0.0,0.0,0.0,0.0,0.0,0.0,0.0,0.0,0.0,0.0,0.0,0.0,0.0,0.0,0.0,0.0,0.0,0.0,0.0,0.0,0.0,0.0,0.0,0.0,0.0,0.0,0.0,0.0,0.0,0.0,0.0,0.0,0.0,0.0,0.0,0.0,0.0,0.0,0.0,0.0,0.0,0.0,0.0,0.0,0.0,0.0,0.0,0.0,0.0,0.0,0.0,0.0,0.0,0.0,0.0,0.0,0.0,0.0,0.0,0.0,0.0,0.0,0.0,0.0,0.0,0.0,0.0,0.0,0.0,0.0,0.0,0.0,0.0,0.0,0.0,0.0,0.0,0.0,0.0,-0.6002,-0.6381,-0.6978,-0.7308,-0.7273,-0.685,-0.6043,0.0,0.0,0.0,0.0,0.0,0.0,0.0,0.0,0.0,0.0,0.0,0.0,0.0,0.0,0.0,0.0,0.0,0.0,0.0,0.0,0.0,0.0,0.0,0.0,0.0,0.0,0.0,0.0,0.0,0.0,0.0,0.0,0.0,0.0,0.0,0.0,0.0,0.0,0.0,0.0,0.0,0.0,0.0,0.0,0.0,0.0,0.0,0.0,-0.1953,0.0,0.0,0.0,0.0,0.0,0.0,0.0,0.0,0.0,0.0,0.0,0.0,0.0,0.0,0.0,0.0,0.0,0.0,0.0,0.0,0.0,0.0,0.0,0.0,0.0,0.0,0.0,0.0,0.0,0.0,0.0,0.0,0.0,0.0,0.0,0.0,0.0,0.0,0.0,0.0,0.0,0.0,0.0,0.0,0.0,0.0,0.0,0.0,0.0,0.0,0.0,0.0,0.0,0.0,0.0,0.0,0.0,0.0,0.0,-0.5871,-0.6414,-0.6856,-0.7121,-0.7258,-0.6791,-0.622,0.0,0.0,0.0,0.0,0.0,0.0,0.0,0.0,0.0,0.0,0.0,0.0,0.0,0.0,0.0,0.0,0.0,0.0,0.0,0.0,0.0,0.0,0.0,0.0,0.0,0.0,0.0,0.0,0.0,0.0,0.0,0.0,0.0,0.0,0.0,0.0,0.0,0.0,0.0,0.0,0.0,0.0,0.0,0.0,0.0,0.0,0.0,0.0,0.0,0.0,0.0,0.0,0.0,0.0,0.0,0.0,0.0,0.0,0.0,0.0,0.0,0.0,0.0,0.0,0.0,0.0,0.0,0.0,0.0,0.0,0.0,0.0,0.0,0.0,0.0,0.0,0.0,0.0,0.0,0.0,0.0,0.0,0.0,0.0,0.0,0.0,0.0,0.0,0.0,0.0,0.0,0.0,0.0,0.0,0.0,0.0,0.0,0.0,0.0,0.0,0.0,0.0,0.0,0.0,0.0,0.0,0.0,-0.5334,-0.5592,-0.6114,-0.6574,-0.6814,-0.6874,-0.6663,-0.6389,-0.6079,0.0,0.0,0.0,0.0,0.0,0.0,0.0,0.0,0.0,0.0,0.0,0.0,0.0,0.0,0.0,0.0,0.0,0.0,0.0,0.0,0.0,0.0,0.0,0.0,0.0,0.0,0.0,0.0,0.0,0.0,0.0,0.0,0.0,0.0,0.0,0.0,0.0,0.0,-0.2387,-0.1918,0.0,0.0,0.0,0.0,0.0,0.0,0.0,0.0,-0.2197,0.0,0.0,0.0,0.0,0.0,0.0,0.0,0.0,0.0,0.0,0.0,0.0,0.0,0.0,0.0,0.0,0.0,0.0,0.0,0.0,0.0,0.0,0.0,0.0,0.0,0.0,0.0,0.0,0.0,0.0,0.0,0.0,0.0,0.0,0.0,0.0,0.0,0.0,0.0,0.0,0.0,0.0,0.0,0.0,0.0,0.0,0.0,0.0,0.0,0.0,0.0,0.0,0.0,0.0,0.0,0.0,-0.4445,-0.5791,-0.6438,-0.6283,-0.7205,-0.7281,-0.6388,-0.6243,-0.6086,-0.5859,0.0,0.0,0.0,0.0,0.0,0.0,0.0,0.0,0.0,0.0,0.0,0.0,0.0,0.0,0.0,0.0,0.0,0.0,0.0,0.0,0.0,0.0,0.0,0.0,0.0,0.0,0.0,0.0,0.0,0.0,0.0,0.0,0.0,0.0,0.0,0.0,0.0,0.0,0.0,-0.1858,-0.1689,0.0,0.0,0.0,0.0,0.0,0.0,0.0,0.0,-0.2522,0.0,0.0,0.0,0.0,0.0,0.0,0.0,0.0,0.0,0.0,0.0,0.0,0.0,0.0,0.0,0.0,0.0,0.0,0.0,0.0,0.0,0.0,0.0,0.0,0.0,0.0,0.0,0.0,0.0,0.0,0.0,0.0,0.0,0.0,0.0,0.0,0.0,0.0,0.0,0.0,0.0,0.0,0.0,0.0,0.0,0.0,0.0,0.0,0.0,0.0,0.0,0.0,0.0,0.0,0.0,-0.5216,-0.5539,-0.5932,-0.6299,-0.6589,-0.659,-0.6223,-0.5764,-0.5669,0.0,0.0,0.0,0.0,0.0,0.0,0.0,0.0,0.0,0.0,0.0,0.0,0.0,0.0,0.0,0.0,0.0,0.0,0.0,0.0,0.0,0.0,0.0,0.0,0.0,0.0,0.0,0.0,0.0,0.0,0.0,0.0,0.0,0.0,0.0,0.0,0.0,0.0,0.0,0.0,-0.2091,-0.1959,-0.2582,0.0,0.0,0.0,0.0,0.0,0.0,-0.2304,-0.228,0.0,0.0,0.0,0.0,0.0,0.0,0.0,0.0,0.0,0.0,0.0,0.0,0.0,0.0,0.0,0.0,0.0,0.0,0.0,0.0,0.0,0.0,0.0,0.0,0.0,0.0,0.0,0.0,0.0,0.0,0.0,0.0,0.0,0.0,0.0,0.0,0.0,0.0,0.0,0.0,0.0,0.0,0.0,0.0,0.0,0.0,0.0,0.0,0.0,0.0,0.0,0.0,0.0,0.0,0.0,-0.6016,-0.5571,-0.5613,-0.6193,-0.6038,-0.596,-0.6001,-0.5446,-0.5381,0.0,0.0,0.0,0.0,0.0,0.0,0.0,0.0,0.0,0.0,0.0,0.0,0.0,0.0,0.0,0.0,0.0,0.0,0.0,0.0,0.0,0.0,0.0,0.0,0.0,0.0,0.0,0.0,0.0,0.0,0.0,0.0,0.0,0.0,0.0,0.0,0.0,0.0,0.0,0.0,0.0,-0.2249,-0.3248,-0.2625,0.0,0.0,0.0,0.0,-0.2193,-0.238,0.0,0.0,0.0,0.0,0.0,0.0,0.0,0.0,0.0,0.0,0.0,0.0,0.0,0.0,0.0,0.0,0.0,0.0,0.0,0.0,0.0,0.0,0.0,0.0,0.0,0.0,0.0,0.0,0.0,0.0,0.0,0.0,0.0,0.0,0.0,0.0,0.0,0.0,0.0,0.0,0.0,0.0,0.0,0.0,0.0,0.0,0.0,0.0,0.0,0.0,0.0,0.0,0.0,0.0,0.0,0.0,-0.6428,-0.691,-0.6804,-0.6014,-0.6553,-0.6378,-0.5426,-0.555,-0.5506,0.0,0.0,0.0,0.0,0.0,0.0,0.0,0.0,0.0,0.0,0.0,0.0,0.0,0.0,0.0,0.0,0.0,0.0,0.0,0.0,0.0,0.0,0.0,0.0,0.0,0.0,0.0,0.0,0.0,0.0,0.0,0.0,0.0,0.0,0.0,0.0,0.0,0.0,0.0,0.0,0.0,-0.2407,-0.3059,-0.2556,-0.2099,0.0,0.0,-0.2009,-0.2556,-0.307,0.0,0.0,0.0,0.0,0.0,0.0,0.0,0.0,0.0,0.0,0.0,0.0,0.0,0.0,0.0,0.0,0.0,0.0,0.0,0.0,0.0,0.0,0.0,0.0,0.0,0.0,0.0,0.0,0.0,0.0,0.0,0.0,0.0,0.0,0.0,0.0,0.0,0.0,0.0,0.0,0.0,0.0,0.0,0.0,0.0,0.0,0.0,0.0,0.0,0.0,0.0,0.0,0.0,0.0,0.0,-0.8038,-0.6543,-0.6548,-0.6261,-0.5598,-0.5697,-0.5613,-0.5309,-0.4958,-0.5056,0.0,0.0,0.0,0.0,0.0,0.0,0.0,0.0,0.0,0.0,0.0,0.0,0.0,0.0,0.0,0.0,0.0,0.0,0.0,0.0,0.0,0.0,0.0,0.0,0.0,0.0,0.0,0.0,0.0,0.0,0.0,0.0,0.0,0.0,0.0,0.0,0.0,0.0,0.0,0.0,0.0,0.0,-0.2576,-0.2512,0.0,0.0,0.0,-0.2197,-0.2633,0.0,0.0,0.0,0.0,0.0,0.0,0.0,0.0,0.0,0.0,0.0,0.0,0.0,0.0,0.0,0.0,0.0,0.0,0.0,0.0,0.0,0.0,0.0,0.0,0.0,0.0,0.0,0.0,0.0,0.0,0.0,0.0,0.0,0.0,0.0,0.0,0.0,0.0,0.0,0.0,0.0,0.0,0.0,0.0,0.0,0.0,0.0,0.0,0.0,0.0,0.0,0.0,0.0,0.0,0.0,0.0,0.0,-0.6536,-0.621,-0.5843,-0.5446,-0.5094,-0.5057,-0.5282,-0.4675,0.0,0.0,0.0,0.0,0.0,0.0,0.0,0.0,0.0,0.0,0.0,0.0,0.0,0.0,0.0,0.0,0.0,0.0,0.0,0.0,0.0,0.0,0.0,0.0,0.0,0.0,0.0,-0.2587,0.0,0.0,0.0,0.0,0.0,0.0,0.0,0.0,0.0,0.0,0.0,0.0,0.0,0.0,-0.2405,-0.235,-0.254,-0.2601,0.0,0.0,-0.2444,-0.2814,-0.3067,-0.326,0.0,0.0,0.0,0.0,0.0,0.0,0.0,0.0,0.0,0.0,0.0,0.0,0.0,0.0,0.0,0.0,0.0,0.0,0.0,0.0,0.0,0.0,0.0,0.0,0.0,0.0,0.0,0.0,0.0,0.0,0.0,0.0,0.0,0.0,0.0,0.0,0.0,0.0,0.0,0.0,0.0,0.0,0.0,0.0,0.0,0.0,0.0,0.0,0.0,0.0,0.0,0.0,0.0,0.0,-0.804,-0.6564,-0.6479,-0.6243,-0.5882,-0.5474,-0.5292,-0.5306,-0.5188,-0.5374,0.0,0.0,0.0,0.0,0.0,0.0,0.0,0.0,0.0,0.0,0.0,0.0,0.0,0.0,0.0,0.0,0.0,0.0,0.0,0.0,0.0,0.0,0.0,0.0,0.0,0.0,0.0,0.0,0.0,0.0,0.0,0.0,0.0,0.0,0.0,0.0,0.0,0.0,0.0,0.0,0.0,-0.2941,-0.2716,-0.2669,-0.2709,0.0,-0.2668,-0.2799,-0.3198,-0.3404,-0.3396,-0.2851,0.0,0.0,0.0,0.0,0.0,0.0,0.0,0.0,0.0,0.0,0.0,0.0,0.0,0.0,0.0,0.0,0.0,0.0,0.0,0.0,0.0,0.0,0.0,0.0,0.0,0.0,0.0,0.0,0.0,0.0,0.0,0.0,0.0,0.0,0.0,0.0,0.0,0.0,0.0,0.0,0.0,0.0,0.0,0.0,0.0,0.0,0.0,0.0,0.0,0.0,0.0,0.0,0.0,-0.8045,-0.6544,-0.6491,-0.6187,-0.5547,-0.5188,-0.509,-0.5309,-0.5065,-0.5246,0.0,0.0,0.0,0.0,0.0,0.0,0.0,0.0,0.0,0.0,0.0,0.0,0.0,0.0,0.0,0.0,0.0,0.0,0.0,0.0,0.0,0.0,0.0,0.0,0.0,0.0,0.0,0.0,-0.2493,-0.201,-0.1888,0.0,0.0,0.0,0.0,0.0,0.0,0.0,0.0,0.0,0.0,-0.2812,-0.2716,-0.2996,0.0,0.0,-0.3112,-0.3248,-0.3171,-0.3106,-0.2951,-0.276,-0.2854,0.0,0.0,0.0,0.0,0.0,0.0,0.0,0.0,0.0,0.0,0.0,0.0,0.0,0.0,0.0,0.0,0.0,0.0,0.0,0.0,0.0,0.0,0.0,0.0,0.0,0.0,0.0,0.0,0.0,0.0,0.0,0.0,0.0,0.0,0.0,0.0,0.0,0.0,0.0,0.0,0.0,0.0,0.0,0.0,0.0,0.0,0.0,0.0,0.0,0.0,0.0,0.0,-0.7578,-0.6508,-0.6374,-0.5971,-0.5312,-0.5046,-0.5067,-0.5292,-0.5134,-0.5366,0.0,0.0,0.0,0.0,0.0,0.0,0.0,0.0,0.0,0.0,0.0,0.0,0.0,0.0,0.0,0.0,0.0,0.0,0.0,0.0,0.0,0.0,0.0,0.0,0.0,0.0,0.0,0.0,-0.2535,-0.2009,-0.1821,0.0,0.0,0.0,0.0,0.0,0.0,0.0,0.0,0.0,0.0,-0.3009,-0.3018,-0.3352,-0.3545,-0.3317,-0.3487,-0.3505,-0.3293,-0.3007,-0.2792,-0.2707,0.0,0.0,0.0,0.0,0.0,0.0,0.0,0.0,0.0,0.0,0.0,0.0,0.0,0.0,0.0,0.0,0.0,0.0,0.0,0.0,0.0,0.0,0.0,0.0,0.0,0.0,0.0,0.0,0.0,0.0,-0.5705,0.0,0.0,0.0,0.0,0.0,0.0,0.0,0.0,0.0,0.0,0.0,0.0,0.0,0.0,0.0,0.0,0.0,0.0,0.0,0.0,0.0,0.0,-0.6546,-0.6487,-0.6105,-0.5707,-0.5319,-0.5309,-0.5281,-0.5336,-0.5538,-0.5875,-0.6294,0.0,0.0,0.0,0.0,0.0,0.0,0.0,0.0,0.0,0.0,0.0,0.0,0.0,0.0,0.0,0.0,0.0,0.0,0.0,0.0,0.0,0.0,0.0,0.0,0.0,0.0,-0.2158,-0.1888,-0.1823,0.0,0.0,0.0,0.0,0.0,0.0,0.0,0.0,0.0,0.0,-0.3462,-0.3603,-0.3726,-0.3688,-0.3639,-0.3752,-0.3639,-0.3612,-0.3549,-0.3297,-0.2998,0.0,0.0,0.0,0.0,0.0,0.0,0.0,0.0,0.0,0.0,0.0,0.0,0.0,0.0,0.0,0.0,0.0,0.0,0.0,0.0,0.0,0.0,0.0,0.0,0.0,0.0,0.0,-0.5421,-0.5608,0.0,0.0,0.0,0.0,0.0,0.0,0.0,0.0,0.0,0.0,0.0,-0.6347,-0.7253,0.0,0.0,0.0,0.0,0.0,0.0,0.0,0.0,0.0,0.0,0.0,0.0,-0.6772,-0.5744,-0.5926,-0.5879,-0.5594,-0.5564,-0.5661,-0.5887,-0.5762,-0.5863,-0.6231,0.0,0.0,0.0,0.0,0.0,0.0,0.0,0.0,0.0,0.0,0.0,0.0,0.0,0.0,0.0,0.0,0.0,0.0,0.0,0.0,0.0,0.0,0.0,0.0,0.0,-0.2377,0.0,0.0,0.0,0.0,0.0,0.0,0.0,0.0,0.0,0.0,0.0,-0.4287,-0.388,-0.3929,-0.3892,-0.371,-0.3927,-0.3937,0.0,0.0,0.0,0.0,0.0,0.0,0.0,0.0,0.0,0.0,0.0,0.0,0.0,0.0,-0.3193,-0.2922,-0.2805,-0.2781,-0.2757,0.0,0.0,0.0,0.0,0.0,0.0,0.0,0.0,0.0,0.0,0.0,0.0,0.0,0.0,-0.4947,0.0,-0.5203,0.0,0.0,0.0,0.0,0.0,0.0,0.0,0.0,-0.6262,-0.6,-0.6236,-0.6969,-0.7316,0.0,-0.8212,-0.8774,0.0,0.0,0.0,0.0,0.0,0.0,0.0,0.0,-0.6988,-0.5702,-0.5874,-0.5977,-0.5887,-0.5865,-0.5959,-0.6186,-0.6105,-0.6152,-0.6476,-0.6427,-0.5914,0.0,0.0,0.0,0.0,0.0,0.0,0.0,0.0,0.0,0.0,0.0,0.0,0.0,0.0,0.0,0.0,0.0,0.0,0.0,0.0,0.0,0.0,0.0,-0.213,0.0,0.0,0.0,0.0,0.0,0.0,0.0,0.0,0.0,-0.4502,-0.4631,-0.4577,-0.4238,-0.415,-0.4082,-0.3988,0.0,0.0,0.0,0.0,0.0,0.0,0.0,-0.3027,-0.4029,-0.3559,-0.2894,-0.2584,-0.277,-0.3056,-0.3219,0.0,0.0,-0.3492,-0.3251,-0.3129,-0.3271,-0.3079,-0.2933,-0.2961,-0.2997,-0.2958,0.0,0.0,0.0,0.0,0.0,0.0,0.0,0.0,-0.476,-0.4247,0.0,-0.5017,0.0,0.0,0.0,0.0,0.0,-0.7393,0.0,0.0,-0.7035,-0.673,-0.6368,-0.7389,-0.7637,-0.7165,-0.8323,-0.8937,-0.9043,-0.8933,0.0,0.0,0.0,0.0,0.0,0.0,-0.7164,-0.6226,-0.6054,-0.6026,-0.6193,-0.6209,-0.6206,-0.6223,-0.6488,-0.6718,-0.694,-0.6979,-0.6089,-0.4198,-0.4814,0.0,0.0,0.0,0.0,0.0,0.0,0.0,0.0,0.0,0.0,0.0,0.0,0.0,0.0,0.0,0.0,0.0,0.0,0.0,0.0,-0.2326,0.0,0.0,0.0,0.0,0.0,0.0,0.0,0.0,0.0,0.0,-0.6089,-0.4966,-0.4166,-0.4406,0.0,0.0,0.0,0.0,-0.4979,-0.5699,-0.4647,-0.3812,-0.4106,-0.3393,-0.3342,-0.4884,0.0,0.0,-0.2382,-0.2881,-0.3329,-0.3187,-0.3411,-0.3714,-0.4009,-0.3666,-0.3448,-0.3587,-0.3306,-0.3125,-0.3102,-0.3272,-0.324,-0.6697,0.0,0.0,0.0,0.0,-0.4312,-0.4611,-0.6055,-0.4347,-0.3864,-0.4433,-0.5204,0.0,0.0,0.0,0.0,0.0,0.0,-0.8282,-0.8193,-0.7682,-0.7437,-0.7422,-0.7898,-0.82,-0.8307,-0.8447,-0.8426,-0.8282,-0.8655,-0.8875,-0.8987,0.0,0.0,0.0,0.0,-0.5959,-0.62,-0.6514,-0.6631,-0.6502,-0.6508,-0.6502,-0.647,-0.6744,-0.6715,-0.6419,-0.6796,-0.6469,-0.5342,-0.4941,0.0,0.0,0.0,0.0,0.0,0.0,0.0,0.0,0.0,0.0,0.0,0.0,0.0,0.0,0.0,0.0,0.0,0.0,0.0,-0.3992,-0.3464,-0.3261,0.0,0.0,0.0,0.0,0.0,0.0,0.0,0.0,0.0,-0.5676,-0.5745,-0.571,0.0,0.0,-0.5032,-0.453,-0.4868,-0.504,-0.4868,-0.5515,0.0,-0.5039,-0.473,-0.4151,-0.3002,-0.2742,-0.2639,-0.241,-0.162,-0.1567,-0.3099,-0.3513,-0.3397,-0.2693,-0.3459,-0.4019,-0.3837,-0.2331,-0.1307,-0.2007,-0.2887,-0.3208,-0.6709,-0.653,-0.6767,-0.6418,-0.5566,-0.4431,-0.4286,-0.4776,-0.3938,-0.4133,-0.5031,-0.5193,-0.5507,-0.5896,-0.5936,0.0,0.0,0.0,-0.8845,-0.8459,-0.8197,-0.7886,-0.7571,-0.8167,-0.8553,-0.8794,-0.8635,-0.8394,-0.8113,-0.8483,-0.8867,-0.9259,0.0,0.0,-0.8185,-0.6633,-0.6065,-0.6503,-0.6832,-0.6905,-0.6754,-0.676,-0.6707,-0.6597,-0.687,-0.675,-0.6247,-0.6706,-0.6622,-0.5826,-0.4957,-0.4517,0.0,0.0,0.0,0.0,0.0,0.0,0.0,0.0,0.0,0.0,0.0,-0.3695,-0.3787,0.0,0.0,0.0,-0.4932,-0.5041,-0.4786,-0.4368,0.0,0.0,0.0,0.0,0.0,0.0,0.0,-0.5155,-0.5847,-0.6051,-0.5379,-0.57,-0.5777,-0.5109,-0.5009,-0.5034,-0.509,0.0,-0.4645,-0.414,-0.5342,-0.6135,-0.5625,-0.5007,-0.4136,-0.2776,-0.2691,-0.2851,-0.2864,-0.2053,-0.1639,-0.2025,-0.2189,-0.2084,-0.1853,-0.2702,-0.3637,-0.406,-0.2754,-0.1467,-0.1215,-0.1699,-0.1938,-0.6927,-0.7299,-0.63,-0.5649,-0.5297,-0.4728,-0.4181,-0.3684,-0.3691,-0.4793,-0.6476,-0.5358,-0.5573,-0.6795,-0.7311,0.0,-0.8394,-0.9097,-0.9011,-0.8286,-0.8632,-0.8236,-0.7235,-0.8274,-0.8788,-0.8764,-0.8798,-0.8671,-0.8457,-0.8518,-0.8706,-0.9096,-0.9326,-0.9275,-0.8948,-0.7662,-0.7027,-0.7051,-0.7084,-0.706,-0.7051,-0.6992,-0.6894,-0.6637,-0.688,-0.6763,-0.6295,-0.6758,-0.6624,-0.5813,-0.4948,-0.4577,-0.4601,0.0,0.0,0.0,0.0,0.0,0.0,0.0,0.0,0.0,0.0,0.0,0.0,0.0,0.0,0.0,-0.4207,0.0,-0.5313,-0.5058,0.0,0.0,0.0,-0.4573,-0.4934,-0.5425,-0.551,-0.5049,0.0,0.0,-0.5251,-0.5142,-0.4816,-0.4059,-0.4055,-0.4583,-0.5949,-0.5044,-0.4063,-0.3716,-0.4506,-0.5263,-0.5426,-0.4528,-0.3661,-0.3537,-0.3592,-0.3522,-0.3384,-0.3483,-0.2614,-0.0961,-0.0186,-0.036,-0.1441,-0.163,-0.2165,-0.3715,-0.3536,-0.2549,0.0,0.0,0.0,-0.8013,-0.7682,-0.7907,-0.7065,-0.5458,-0.4793,-0.442,-0.4285,-0.4256,-0.5128,-0.6662,-0.7436,-0.7357,-0.6689,-0.6791,-0.7197,-0.7896,-0.8631,-0.8851,-0.8701,-0.8763,-0.8649,-0.841,-0.8656,-0.8771,-0.8776,-0.8778,-0.8771,-0.8704,-0.8731,-0.8531,-0.8253,-0.8708,-0.8906,-0.8737,-0.7585,-0.7232,-0.7656,-0.7702,-0.7599,-0.7379,-0.7141,-0.6945,-0.6921,-0.6987,-0.6927,-0.6813,-0.694,-0.65,-0.5465,-0.4822,-0.4521,-0.4547,-0.4051,0.0,0.0,0.0,0.0,0.0,0.0,0.0,0.0,0.0,-0.3826,-0.5178,0.0,-0.3579,0.0,-0.3015,-0.4108,-0.5543,-0.4979,0.0,0.0,-0.4951,-0.5011,-0.5525,-0.523,-0.5135,-0.5571,-0.5642,-0.5446,-0.4748,-0.4751,-0.4527,-0.3934,-0.4339,-0.4892,-0.5415,-0.5258,-0.4653,-0.3816,-0.3865,-0.4043,-0.4097,-0.3884,-0.3585,-0.3592,-0.3595,-0.3293,-0.2413,-0.3027,-0.3359,-0.271,-0.118,-0.0315,0.0,-0.0408,0.0,-0.0994,-0.0949,-0.0713,0.0,0.0,0.0,-0.8537,-0.8209,-0.8643,-0.8103,-0.7001,-0.6605,-0.5686,-0.4599,-0.586,-0.6828,-0.7597,-0.8075,-0.7839,-0.7128,-0.7074,-0.7506,-0.8209,-0.859,-0.8765,-0.881,-0.8801,-0.8815,-0.881,-0.8808,-0.8808,-0.8808,-0.8808,-0.8808,-0.8808,-0.8808,-0.8612,-0.8321,-0.8085,-0.8003,-0.79,-0.6729,-0.6325,-0.6669,-0.7224,-0.7556,-0.7681,-0.7508,-0.7342,-0.7245,-0.7097,-0.6998,-0.7003,-0.6508,-0.6195,-0.6023,-0.5296,-0.4854,-0.4825,-0.4769,-0.416,0.0,0.0,0.0,0.0,0.0,0.0,0.0,0.0,0.0,0.0,0.0,-0.4015,-0.2685,-0.3145,-0.3982,-0.5134,-0.5097,-0.5064,-0.5191,-0.513,-0.5131,-0.5204,-0.4872,-0.4758,-0.5178,-0.5168,-0.486,-0.4348,-0.4304,-0.4168,-0.379,-0.4052,-0.4374,-0.448,-0.4537,-0.4314,-0.3713,-0.3587,-0.3349,-0.2914,-0.3236,-0.36,-0.3592,-0.36,-0.3193,-0.2058,-0.1882,-0.202,-0.1887,-0.0898,0.0,0.0,0.0,0.0,0.0,0.0,0.0,0.0,0.0,0.0,-0.8808,-0.8808,-0.8808,-0.8768,-0.8805,-0.8778,-0.7351,-0.5233,-0.7726,-0.8862,-0.8893,-0.8198,-0.7907,-0.7925,-0.7842,-0.8158,-0.8858,-0.8821,-0.8784,-0.8789,-0.8857,-0.8874,-0.8795,-0.8857,-0.8844,-0.8808,-0.8808,-0.8808,-0.8808,-0.8808,-0.8751,-0.8637,-0.7704,-0.7164,-0.6977,-0.5889,-0.5348,-0.5355,-0.6525,-0.7409,-0.7893,-0.7855,-0.7739,-0.7492,-0.7147,-0.6955,-0.6872,-0.5947,-0.5811,-0.6654,-0.6019,-0.5537,-0.536,-0.4923,-0.4628,0.0,-0.3916,0.0,0.0,0.0,0.0,0.0,0.0,0.0,0.0,-0.462,-0.4623,-0.363,-0.3854,-0.4182,-0.4494,-0.5203,-0.5476,-0.5076,-0.5101,-0.5,-0.4546,-0.4496,-0.4489,-0.446,-0.4333,-0.4125,-0.3985,-0.3882,-0.379,-0.3654,-0.3426,-0.3351,-0.3392,-0.3569,-0.3561,-0.3308,-0.3458,-0.3394,-0.2386,-0.2889,-0.3567,-0.3498,-0.3551,-0.3202,-0.229,-0.0985,0.0,0.0,0.0,0.0,0.0,0.0,0.0,0.0,0.0,0.0,0.0,0.0,0.0,-0.8808,-0.8808,-0.8808,-0.8767,-0.8773,-0.8801,-0.8489,-0.8037,-0.858,-0.9065,-0.9522,-0.922,-0.9177,-0.9258,-0.8471,-0.8484,-0.9093,-0.8915,-0.8787,-0.8805,-0.9127,-0.9123,-0.8805,-0.9007,-0.9038,-0.8814,-0.8808,-0.8808,-0.8808,-0.8808,-0.8545,-0.8077,-0.8318,-0.7971,-0.7041,0.0,0.0,0.0,-0.7477,-0.7961,-0.806,-0.7709,-0.7286,-0.6904,-0.6785,0.0,-0.6276,-0.6071,-0.5805,-0.5521,-0.6576,0.0,0.0,0.0,0.0,0.0,0.0,0.0,0.0,0.0,0.0,0.0,-0.3814,-0.3956,-0.4927,-0.5139,-0.4856,-0.4017,-0.4196,-0.4455,-0.4508,-0.4629,-0.4709,-0.4631,-0.4627,-0.4585,-0.451,-0.4376,-0.433,-0.4494,-0.4256,-0.3914,-0.3633,-0.3817,-0.3911,-0.3804,-0.2873,-0.2182,-0.2164,-0.2985,-0.2874,-0.129,-0.2616,-0.3622,-0.2358,-0.2986,-0.3415,-0.2908,-0.3231,-0.347,-0.3075,-0.1393,-0.0046,0.0,0.0,0.0,0.0,0.0,0.0,0.0,0.0,0.0,0.0,0.0,0.0,-0.9155,0.0,-0.887,-0.8805,0.0,-0.9432,-0.9385,-0.8818,-0.9411,-0.9699,-0.9666,-0.9482,-0.9425,-0.9396,-0.8767,-0.8719,-0.9167,-0.8938,-0.8809,-0.8814,-0.9128,-0.9444,-0.9659,-0.9422,-0.9277,-0.9217,-0.9133,-0.9068,-0.9015,-0.8881,-0.8629,-0.839,-0.8657,-0.849,-0.7932,-0.791,-0.788,-0.7883,-0.7946,-0.8148,-0.8428,-0.8201,-0.7931,-0.7609,-0.7387,0.0,0.0,0.0,0.0,0.0,0.0,0.0,0.0,-0.5522,0.0,-0.4851,-0.5016,-0.4407,-0.2854,-0.3066,-0.361,-0.4282,-0.4168,-0.4287,-0.4897,-0.4906,-0.4598,-0.3883,-0.4223,-0.4467,-0.4477,-0.4468,-0.4462,-0.4462,-0.4462,-0.4462,-0.4458,-0.4433,-0.4402,-0.446,-0.4261,-0.3607,-0.2017,-0.3136,-0.384,-0.3758,-0.3135,-0.2214,-0.1359,-0.2465,-0.2729,-0.047,-0.1108,-0.2264,-0.2352,-0.3272,-0.3894,-0.3405,-0.3597,-0.349,-0.2843,-0.1703,-0.0728,0.0,0.0,0.0,0.0,0.0,0.0,0.0,0.0,0.0,0.0,0.0,0.0,-0.9512,-0.9213,-0.9045,-0.8969,-0.9029,-1.0036,-0.9914,-0.902,0.0,0.0,0.0,-0.966,-0.9528,-0.9319,-0.9092,-0.9092,-0.924,-0.8961,-0.8829,-0.8806,-0.917,-0.9785,-1.0544,-0.986,-0.9552,-0.9698,-0.9454,-0.9295,-0.9158,-0.8918,-0.8808,-0.8808,-0.8808,-0.8805,-0.8809,-0.8792,-0.8809,-0.876,-0.828,-0.824,-0.8721,-0.8697,-0.8571,-0.8334,-0.8026,-0.7505,-0.6795,-0.5803,-0.5343,-0.5465,-0.7021,-0.7255,-0.5895,-0.52,-0.505,-0.5467,-0.417,-0.3123,-0.2619,-0.2887,-0.3468,-0.4453,-0.4462,-0.4492,-0.4466,-0.4495,-0.4313,-0.3774,-0.422,-0.4472,-0.4494,-0.4479,-0.4467,-0.4465,-0.4463,-0.4465,-0.4421,-0.391,-0.3764,-0.4316,-0.4271,-0.3348,-0.1435,-0.277,-0.3904,-0.3661,-0.3653,-0.2832,-0.0877,-0.1604,-0.2097,-0.0435,0.0,-0.0622,-0.1976,-0.3496,-0.4252,-0.4027,-0.4063,-0.3681,-0.2542,-0.1794,-0.1108,-0.0147,0.0,0.0,0.0,0.0,0.0,0.0,0.0,0.0,0.0,0.0,0.0,-0.9512,-0.9206,-0.9627,-0.9724,-0.9619,-0.9925,-0.9892,-0.9643,-1.0287,-1.057,-1.0483,-1.0464,-1.027,-0.9977,-0.9689,-0.9579,-0.9599,-0.9315,-0.9007,-0.8823,-0.9623,-1.022,-1.054,-1.0167,-0.9876,-0.9712,-0.939,-0.9125,-0.8888,-0.8824,-0.8808,-0.8808,-0.8808,-0.8784,-0.8807,-0.8807,-0.8763,-0.8782,-0.8549,-0.8472,-0.8546,-0.8431,-0.8173,-0.7757,-0.7687,-0.7602,-0.7448,-0.6514,-0.6202,-0.6716,-0.7964,-0.7479,-0.4923,-0.4626,-0.4579,-0.4527,-0.2101,-0.1616,-0.3947,-0.4203,-0.4293,-0.4462,-0.447,-0.4503,-0.4502,-0.4486,-0.4445,-0.4351,-0.4381,-0.447,-0.449,-0.4435,-0.4317,-0.4477,-0.4467,-0.4465,-0.4421,-0.2291,-0.1723,-0.3948,-0.4207,-0.4104,-0.3779,-0.4108,-0.4144,-0.3766,-0.3546,-0.3169,-0.0819,-0.0262,-0.0363,0.0,0.0,0.0,-0.2149,-0.3523,-0.421,-0.4186,-0.4093,-0.3987,-0.3657,-0.2023,-0.0664,-0.0051,0.0,0.0,0.0,0.0,0.0,0.0,0.0,0.0,0.0,0.0,0.0,-0.9983,-0.9763,-1.0167,-1.0303,-1.0212,-1.0281,-1.0275,-1.021,-1.0498,-1.0573,-1.0588,-1.0592,-1.0397,-1.0094,-0.9813,-0.9773,-0.9903,-0.9613,-0.9594,-0.9767,-0.9984,-1.0258,-1.0549,-1.0421,-1.0187,-0.9892,-0.9609,-0.9332,-0.9048,-0.8884,-0.8808,-0.8808,-0.8808,-0.8808,-0.8808,-0.8808,-0.8808,-0.8798,-0.869,-0.8645,-0.8695,-0.8615,-0.8493,-0.825,-0.8147,-0.7994,-0.7943,-0.7674,-0.7387,-0.702,-0.8161,-0.7821,-0.5796,-0.5659,-0.5293,-0.4549,-0.3199,-0.2301,-0.2076,-0.3587,-0.4482,-0.4472,-0.4477,-0.4479,-0.4482,-0.447,-0.4465,-0.4421,-0.3072,-0.2739,-0.422,-0.3028,-0.2461,-0.3626,-0.4182,-0.4467,-0.4196,-0.1845,-0.0616,-0.1952,-0.3377,-0.4318,-0.4487,-0.4499,-0.3638,-0.2148,0.0,0.0,0.0,0.0,0.0,0.0,0.0,0.0,-0.2947,-0.3964,-0.4073,-0.3301,-0.3812,-0.4176,-0.4241,-0.3007,-0.1876,0.0,0.0,0.0,0.0,0.0,0.0,0.0,0.0,0.0,0.0,0.0,0.0,-1.0384,-1.0144,-1.0434,-1.0575,-1.0617,-1.0605,-1.0568,-1.0608,-1.0618,-1.0621,-1.0594,-1.0592,-1.0387,-1.0097,-0.988,-0.9903,-1.006,-0.9883,-1.006,-1.0561,-1.0321,-1.0353,-1.0585,-1.0596,-1.0417,-1.0016,-0.9784,-0.9532,-0.9183,-0.8945,-0.8808,-0.8808,-0.8808,-0.8808,-0.8808,-0.8808,-0.8808,-0.8808,-0.8808,-0.8808,-0.8808,-0.8808,-0.8804,-0.8791,-0.8581,-0.8413,-0.8342,-0.8647,-0.8349,-0.7538,-0.8286,-0.8098,-0.6612,-0.6534,-0.5946,-0.4655,-0.3822,-0.2635,-0.0837,-0.2286,-0.3796,-0.4473,-0.448,-0.42,-0.3638,-0.4144,-0.4143,-0.3363,-0.1399,-0.1065,-0.2807,-0.2243,-0.1399,-0.2396,-0.3681,-0.4475,-0.4257,-0.2406,-0.0672,-0.0504,-0.2074,-0.3593,-0.4278,-0.4509,-0.3314,0.0,0.0,0.0,0.0,0.0,0.0,0.0,0.0,0.0,-0.3121,-0.3342,-0.3016,-0.219,-0.2793,-0.3506,-0.4006,-0.4479,-0.3243,0.0,0.0,0.0,0.0,0.0,0.0,0.0,0.0,0.0,0.0,0.0,0.0,-1.0384,-1.018,-1.0441,-1.0601,-1.0569,-1.0598,-1.0602,-1.0604,-1.0621,-1.0621,-1.0614,-1.0594,-1.043,-1.0137,-1.009,-1.0104,-1.013,-1.009,-1.0254,-1.0528,-1.0598,-1.0581,-1.0574,-1.0608,-1.0391,-0.9993,-0.98,-0.9522,-0.915,-0.8945,-0.8808,-0.8808,-0.8808,-0.8808,-0.8808,-0.8808,-0.8808,-0.8808,-0.8808,-0.8808,-0.8808,-0.8808,-0.8808,-0.8804,-0.8778,-0.8768,-0.8695,-0.8797,-0.8738,-0.8646,-0.8692,-0.7941,-0.6284,-0.6357,-0.5943,-0.4531,-0.2012,-0.0783,-0.1785,-0.1001,-0.1779,-0.4128,-0.4482,-0.3411,-0.1058,-0.2917,-0.3265,0.0,0.0,0.0,-0.0561,-0.2356,-0.2578,-0.0837,-0.2682,-0.4497,-0.4333,-0.4276,-0.3025,-0.028,-0.0671,-0.1398,-0.3663,-0.4118,-0.3147,0.0,0.0,0.0,0.0,0.0,0.0,0.0,0.0,0.0,0.0,0.0,0.0,-0.1796,-0.1178,-0.179,-0.3199,-0.3941,-0.3522,0.0,0.0,0.0,0.0,0.0,0.0,0.0,0.0,0.0,0.0,0.0,0.0,-1.0388,-1.0144,-1.0438,-1.0621,-1.0584,-1.0592,-1.0568,-1.0611,-1.0621,-1.0621,-1.0621,-1.0621,-1.0491,-1.0381,-1.0381,-1.0381,-1.0377,-1.0377,-1.0438,-1.0618,-1.0621,-1.0621,-1.0621,-1.0621,-1.0324,-0.9883,-0.9736,-0.9446,-0.9041,-0.8861,-0.8808,-0.8808,-0.8808,-0.8808,-0.8808,-0.8808,-0.8808,-0.8808,-0.8808,-0.8808,-0.8808,-0.8808,-0.8808,-0.8791,-0.8637,-0.8641,-0.8768,-0.8472,-0.8452,-0.8732,-0.8808,-0.8196,-0.6883,-0.6686,-0.5982,-0.4501,-0.2505,-0.1957,-0.3477,-0.3016,-0.3178,-0.4472,-0.4482,-0.3577,-0.1559,-0.1679,-0.1234,0.0,0.0,0.0,0.0,0.0,-0.1287,-0.0391,-0.1172,-0.2235,-0.308,-0.3932,-0.388,-0.2689,-0.1063,0.0,-0.1515,-0.1852,-0.1345,0.0,0.0,0.0,0.0,0.0,0.0,0.0,0.0,0.0,0.0,0.0,0.0,0.0,-0.0449,-0.0838,0.0,0.0,-0.1258,0.0,0.0,0.0,0.0,0.0,0.0,0.0,0.0,0.0,0.0,0.0,0.0,-1.0441,-1.0287,-1.0544,-1.0621,-1.0604,-1.0609,-1.0592,-1.058,-1.0588,-1.0584,-1.059,-1.0588,-1.0621,-1.0621,-1.0621,-1.0621,-1.0621,-1.0621,-1.0621,-1.0621,-1.0621,-1.0621,-1.0621,-1.0618,-1.0359,-0.9853,-0.9666,-0.9325,-0.8858,-0.8808,-0.8808,-0.8808,-0.8808,-0.8808,-0.8808,-0.8808,-0.8808,-0.8808,-0.8808,-0.8808,-0.8808,-0.8808,-0.8808,-0.8788,-0.8611,-0.8594,-0.8784,-0.8368,-0.8352,-0.8794,-0.8808,-0.8421,-0.7548,-0.7283,-0.6411,-0.4657,-0.3506,-0.3298,-0.4443,-0.4487,-0.4477,-0.4473,-0.4477,-0.4025,-0.2957,-0.1844,-0.0896,0.0,0.0,0.0,0.0,0.0,0.0,-0.1006,-0.123,-0.1621,-0.2233,-0.3306,-0.3651,-0.314,-0.1119,0.0,0.0,-0.0841,-0.1345,0.0,0.0,0.0,0.0,0.0,0.0,0.0,0.0,0.0,0.0,0.0,0.0,0.0,0.0,0.0,0.0,0.0,0.0,0.0,0.0,0.0,0.0,0.0,0.0,0.0,0.0,0.0,0.0,0.0,0.0,-1.0614,-1.0601,-1.0614,-1.0548,-1.0618,-1.0601,-1.0591,-1.0567,-1.0517,-1.0549,-1.0581,-1.0583,-1.0621,-1.0621,-1.0621,-1.0621,-1.0621,-1.0621,-1.0621,-1.0621,-1.0621,-1.0621,-1.0621,-1.0618,-1.0394,-1.004,-0.9643,-0.9239,-0.8844,-0.8808,-0.8808,-0.8818,-0.8814,-0.8808,-0.8808,-0.8808,-0.8808,-0.8808,-0.8808,-0.8808,-0.8808,-0.8808,-0.8808,-0.8804,-0.8788,-0.8778,-0.8804,-0.8791,-0.8738,-0.8804,-0.8808,-0.848,-0.7827,-0.8262,-0.7283,-0.4893,-0.4413,-0.4366,-0.4479,-0.448,-0.4473,-0.4467,-0.4472,-0.4472,-0.4237,-0.3974,-0.2854,0.0,0.0,0.0,0.0,0.0,-0.1345,-0.3483,-0.4056,-0.3538,-0.2401,-0.2625,-0.1675,-0.1007,-0.0671,0.0,0.0,-0.2526,-0.2356,-0.0952,0.0,0.0,0.0,0.0,0.0,0.0,0.0,0.0,0.0,0.0,0.0,0.0,0.0,0.0,0.0,0.0,0.0,0.0,0.0,0.0,0.0,0.0,0.0,0.0,0.0,0.0,0.0,0.0,0.0,-1.0621,-1.0534,-1.0207,-1.0243,-1.0614,-1.0621,-1.0571,-1.0549,-0.9794,-0.9866,-1.05,-1.0588,-1.0621,-1.0621,-1.0621,-1.0621,-1.0621,-1.0621,-1.0621,-1.0621,-1.0621,-1.0621,-1.0621,-1.0618,-1.0401,-1.0097,-0.9753,-0.9409,-0.9034,-0.8905,-0.8905,-0.8967,-0.8898,-0.8808,-0.8808,-0.8808,-0.8808,-0.8808,-0.8808,-0.8808,-0.8808,-0.8808,-0.8808,-0.8808,-0.8808,-0.8808,-0.8808,-0.8808,-0.8808,-0.8808,-0.8808,-0.8702,-0.8374,-0.7723,-0.6529,-0.4789,-0.4465,-0.4467,-0.4467,-0.4468,-0.4468,-0.4462,-0.4465,-0.4465,-0.4463,-0.447,-0.4022,-0.3123,-0.2843,-0.2901,-0.2854,-0.2856,-0.2856,-0.3023,-0.3929,-0.4271,-0.3869,-0.3642,-0.3418,-0.3025,-0.2855,-0.2238,-0.0783,-0.1007,-0.1904,-0.2586,-0.1233,0.0,0.0,0.0,0.0,0.0,0.0,0.0,0.0,0.0,0.0,0.0,0.0,0.0,0.0,0.0,0.0,0.0,0.0,0.0,0.0,0.0,0.0,0.0,0.0,0.0,0.0,0.0,0.0,-1.0621,-1.0524,-1.0135,-1.023,-1.0548,-1.0621,-1.0574,-1.0507,-0.9737,-0.9529,-0.9838,-1.0309,-1.0431,-1.0238,-1.0171,-1.0174,-1.0238,-1.0428,-1.0621,-1.0621,-1.0621,-1.0621,-1.0621,-1.0621,-1.0408,-1.009,-0.9719,-0.9385,-0.9108,-0.8905,-0.8915,-0.9065,-0.8898,-0.8808,-0.8808,-0.8808,-0.8808,-0.8808,-0.8808,-0.8808,-0.8808,-0.8808,-0.8808,-0.8808,-0.8808,-0.8808,-0.8808,-0.8808,-0.8808,-0.8808,-0.8808,-0.8808,-0.8643,-0.7563,-0.6426,-0.5553,-0.5169,-0.5007,-0.5058,-0.4772,-0.4716,-0.506,-0.4723,-0.4505,-0.446,-0.4462,-0.4462,-0.4462,-0.4462,-0.447,-0.448,-0.4428,-0.403,-0.324,-0.3862,-0.4489,-0.4487,-0.4482,-0.4432,-0.4322,-0.4262,-0.3414,-0.1958,-0.1621,-0.1958,-0.3149,-0.185,-0.1346,0.0,0.0,0.0,0.0,0.0,0.0,0.0,0.0,0.0,0.0,0.0,0.0,-0.0669,-0.0474,0.0,0.0,0.0,0.0,0.0,0.0,0.0,0.0,0.0,0.0,0.0,0.0,0.0,-1.0621,-1.0621,-1.0551,-1.0534,-1.0621,-1.0621,-1.0605,-1.0537,-1.0524,-0.9624,-0.8638,-0.97,-0.9691,-0.9402,-0.9268,-0.9335,-0.9396,-0.9977,-1.0434,-1.0571,-1.0561,-1.0621,-1.0621,-1.0588,-1.043,-1.0124,-0.9539,-0.9145,-0.8935,-0.8884,-0.8871,-0.8848,-0.8838,-0.8808,-0.8808,-0.8808,-0.8808,-0.8808,-0.8808,-0.8808,-0.8808,-0.8808,-0.8808,-0.8808,-0.8808,-0.8808,-0.8808,-0.8808,-0.8808,-0.8808,-0.8808,-0.8808,-0.859,-0.7836,-0.7295,-0.7023,-0.6364,-0.6143,-0.631,-0.5337,-0.5287,-0.5973,-0.5305,-0.4656,-0.4513,-0.4462,-0.4462,-0.4462,-0.4462,-0.4463,-0.4463,-0.4463,-0.4415,-0.4477,-0.4479,-0.4473,-0.4465,-0.4462,-0.447,-0.4487,-0.4479,-0.4473,-0.443,-0.3982,-0.3192,-0.1509,-0.2016,-0.2525,0.0,0.0,0.0,0.0,0.0,0.0,0.0,0.0,0.0,0.0,0.0,-0.0269,-0.1646,-0.1935,-0.0724,0.0,0.0,0.0,0.0,0.0,0.0,0.0,0.0,0.0,0.0,0.0,0.0,-1.0621,-1.0621,-1.0621,-1.0621,-1.0621,-1.0621,-1.0571,-1.0569,-1.0594,-0.9626,-0.8117,-0.7279,-0.753,-0.827,-0.842,-0.842,-0.8417,-0.874,-0.9414,-1.0363,-1.0518,-1.0558,-1.0591,-1.0571,-1.0579,-1.0373,-0.9836,-0.9496,-0.9372,-0.9185,-0.905,-0.9024,-0.8898,-0.8811,-0.8808,-0.8808,-0.8808,-0.8808,-0.8808,-0.8808,-0.8808,-0.8808,-0.8808,-0.8808,-0.8808,-0.8808,-0.8808,-0.8808,-0.8808,-0.8808,-0.8808,-0.859,-0.8099,-0.7619,-0.7244,-0.6915,-0.6966,-0.6799,-0.6583,-0.6242,-0.6124,-0.6423,-0.6157,-0.5449,-0.4682,-0.4517,-0.4517,-0.4462,-0.4462,-0.4462,-0.4462,-0.4462,-0.4465,-0.4467,-0.4467,-0.4467,-0.4462,-0.4462,-0.4467,-0.447,-0.4467,-0.4467,-0.4473,-0.4479,-0.3356,-0.0837,0.0,0.0,0.0,0.0,0.0,0.0,0.0,0.0,0.0,0.0,0.0,0.0,0.0,0.0,-0.1771,-0.2909,-0.1675,0.0,0.0,0.0,0.0,0.0,0.0,0.0,0.0,0.0,0.0,0.0,0.0,-1.0621,-1.0621,-1.0621,-1.0621,-1.0621,-1.0621,-1.0621,-1.0621,-1.0621,-0.9964,-0.8628,-0.6448,-0.6338,-0.7678,-0.7702,-0.7502,-0.7505,-0.7505,-0.7899,-0.8832,-0.9868,-1.0238,-1.0541,-1.0594,-1.0478,-1.0331,-0.9928,-0.9623,-0.9509,-0.9232,-0.902,-0.8984,-0.8891,-0.8808,-0.8808,-0.8808,-0.8808,-0.8808,-0.8808,-0.8808,-0.8808,-0.8808,-0.8808,-0.8808,-0.8808,-0.8808,-0.8808,-0.8808,-0.8808,-0.8808,-0.8808,-0.854,-0.8159,-0.7996,-0.778,-0.756,-0.767,-0.778,-0.7453,-0.7447,-0.7396,-0.7399,-0.709,-0.6381,-0.5277,-0.4789,-0.4517,-0.4462,-0.4462,-0.4462,-0.4462,-0.4462,-0.4462,-0.4462,-0.4462,-0.4462,-0.4462,-0.4462,-0.4462,-0.4463,-0.4462,-0.4462,-0.4463,-0.442,-0.3806,-0.1956,0.0,0.0,0.0,0.0,0.0,0.0,0.0,0.0,0.0,0.0,0.0,0.0,0.0,0.0,-0.1286,-0.2708,0.0,0.0,0.0,0.0,0.0,0.0,0.0,0.0,0.0,0.0,0.0,0.0,0.0,-1.0621,-1.0621,-1.0621,-1.0621,-1.0621,-1.0621,-1.0621,-1.0621,-1.0621,-1.0534,-0.9753,-0.7464,-0.6679,-0.7615,-0.7242,-0.685,-0.6719,-0.6656,-0.6443,-0.6694,-0.7998,-0.9482,-1.044,-1.0482,-1.0258,-1.0016,-0.9828,-0.9539,-0.924,-0.9098,-0.8844,-0.8901,-0.8874,-0.8795,-0.8765,-0.8785,-0.8785,-0.8811,-0.8808,-0.8808,-0.8808,-0.8808,-0.8808,-0.8808,-0.8808,-0.8808,-0.8808,-0.8808,-0.8808,-0.8808,-0.8808,-0.8755,-0.8752,-0.8808,-0.8695,-0.8586,-0.8752,-0.8699,-0.8699,-0.8533,-0.8586,-0.848,-0.7599,-0.705,-0.6246,-0.5384,-0.4732,-0.4734,-0.4736,-0.4679,-0.4679,-0.4515,-0.4517,-0.4462,-0.4462,-0.4462,-0.4462,-0.4462,-0.4462,-0.4462,-0.4462,-0.4462,-0.4462,-0.448,-0.4263,-0.3531,-0.1677,0.0,0.0,0.0,0.0,0.0,0.0,0.0,0.0,0.0,0.0,0.0,0.0,0.0,0.0,0.0,0.0,0.0,0.0,0.0,0.0,0.0,0.0,0.0,0.0,0.0,0.0,0.0,0.0,-1.0621,-1.0621,-1.0621,-1.0621,-1.0621,-1.0621,-1.0621,-1.0621,-1.0621,-1.0608,-1.0319,-0.9688,-0.86,-0.7962,-0.7109,-0.6719,-0.6525,-0.6073,-0.6069,-0.6443,-0.6972,-0.8703,-1.0116,-1.0116,-0.992,-0.9765,-0.969,-0.9529,-0.922,-0.9342,-0.9305,-0.9087,-0.8922,-0.8804,-0.8793,-0.8799,-0.8766,-0.8778,-0.8808,-0.8808,-0.8808,-0.8808,-0.8808,-0.8808,-0.8808,-0.8808,-0.8808,-0.8808,-0.8808,-0.8808,-0.8808,-0.8808,-0.8808,-0.8808,-0.8808,-0.8808,-0.8808,-0.8808,-0.8808,-0.8808,-0.8808,-0.8643,-0.743,-0.683,-0.7928,-0.6465,-0.5706,-0.5542,-0.5542,-0.549,-0.538,-0.4895,-0.4572,-0.4462,-0.4462,-0.4462,-0.4462,-0.4462,-0.4462,-0.4462,-0.4462,-0.4462,-0.4463,-0.4413,-0.4139,-0.3186,-0.2067,0.0,0.0,0.0,0.0,0.0,0.0,0.0,0.0,0.0,0.0,0.0,0.0,0.0,0.0,0.0,0.0,0.0,0.0,0.0,0.0,0.0,0.0,0.0,0.0,0.0,0.0,0.0,0.0,-1.0621,-1.0621,-1.0621,-1.0621,-1.0621,-1.0621,-1.0621,-1.0621,-1.0621,-1.0585,-1.0571,-1.0607,-0.9658,-0.8032,-0.7502,-0.6789,-0.6203,-0.6011,-0.6073,-0.6119,-0.6492,-0.7993,-0.9594,-0.9728,-0.9615,-0.9674,-0.9529,-0.9476,-0.9429,-0.9492,-0.9452,-0.9369,-0.9149,-0.9087,-0.9173,-0.8918,-0.8807,-0.8778,-0.8808,-0.8808,-0.8808,-0.8808,-0.8808,-0.8808,-0.8808,-0.8765,-0.8795,-0.8775,-0.8808,-0.8808,-0.8808,-0.8808,-0.8808,-0.8808,-0.8808,-0.8808,-0.8808,-0.8808,-0.8808,-0.8808,-0.8808,-0.8643,-0.759,-0.7587,-0.7978,-0.7385,-0.7007,-0.6288,-0.6023,-0.5919,-0.5758,-0.5058,-0.4572,-0.4462,-0.4462,-0.4462,-0.4462,-0.4462,-0.4462,-0.4462,-0.4462,-0.4462,-0.4462,-0.4467,-0.4078,-0.3184,-0.1954,-0.1397,0.0,0.0,0.0,0.0,0.0,0.0,0.0,0.0,0.0,0.0,0.0,0.0,0.0,0.0,0.0,0.0,0.0,0.0,0.0,0.0,0.0,0.0,0.0,0.0,0.0,0.0,0.0,-1.0621,-1.0621,-1.0621,-1.0621,-1.0621,-1.0621,-1.0568,-1.0571,-1.0581,-1.0585,-1.0601,-1.0591,-0.9851,-0.8288,-0.8218,-0.7312,-0.5883,-0.6398,-0.6075,-0.6025,-0.645,-0.7954,-0.9196,-0.9499,-0.9473,-0.9463,-0.9316,-0.9323,-0.9412,-0.9329,-0.9419,-0.9519,-0.9482,-0.9569,-0.9487,-0.9082,-0.8805,-0.8761,-0.8808,-0.8808,-0.8808,-0.8808,-0.8808,-0.8808,-0.8808,-0.8795,-0.8711,-0.8622,-0.8514,-0.8808,-0.8808,-0.8808,-0.8808,-0.8808,-0.8808,-0.8808,-0.8808,-0.8808,-0.8808,-0.8808,-0.8699,-0.8537,-0.8533,-0.8309,-0.7703,-0.7815,-0.7874,-0.7093,-0.6401,-0.6136,-0.5701,-0.5003,-0.457,-0.4462,-0.4462,-0.4462,-0.4462,-0.4462,-0.4462,-0.4462,-0.4462,-0.4462,-0.4465,-0.4472,-0.4426,-0.3971,-0.2681,-0.1899,-0.1679,0.0,0.0,0.0,0.0,0.0,0.0,0.0,0.0,0.0,0.0,0.0,0.0,0.0,0.0,0.0,0.0,0.0,0.0,0.0,0.0,0.0,0.0,0.0,0.0,0.0,0.0,-1.0621,-1.0621,-1.0621,-1.0621,-1.0621,-1.0621,-1.0595,-1.0581,-1.0524,-1.0289,-1.052,-1.0537,-1.0242,-0.9837,-0.9061,-0.8425,-0.7118,-0.6789,-0.6203,-0.574,-0.7499,-0.8077,-0.8689,-0.912,-0.9256,-0.9121,-0.9154,-0.912,-0.9122,-0.9402,-0.9492,-0.9389,-0.9904,-1.0089,-0.9646,-0.9142,-0.8775,-0.8791,-0.8755,-0.8702,-0.8643,-0.8699,-0.8699,-0.8699,-0.8752,-0.8795,-0.8532,-0.7667,-0.7685,-0.8455,-0.8808,-0.8808,-0.8699,-0.8752,-0.8695,-0.859,-0.8643,-0.8699,-0.8752,-0.8643,-0.8484,-0.7889,-0.799,-0.7602,-0.698,-0.7596,-0.8096,-0.8031,-0.7714,-0.6791,-0.5649,-0.4893,-0.457,-0.4462,-0.4462,-0.4462,-0.4462,-0.4462,-0.4462,-0.4462,-0.4462,-0.4462,-0.4462,-0.4463,-0.4472,-0.4366,-0.369,-0.2568,-0.2348,-0.2298,-0.168,-0.0727,0.0,0.0,0.0,0.0,0.0,0.0,0.0,0.0,0.0,0.0,0.0,0.0,0.0,0.0,0.0,0.0,0.0,0.0,0.0,0.0,0.0,0.0,0.0,-1.0621,-1.0621,-1.0621,-1.0621,-1.0565,-1.0598,-1.0571,-1.0242,-0.8762,-0.8064,-0.8223,-0.8833,-0.9099,-0.865,-0.8626,-0.8029,-0.6926,-0.6338,-0.6073,-0.6326,-0.77,-0.8631,-0.927,-0.9377,-0.9411,-0.8979,-0.9259,-0.9223,-0.9212,-0.9412,-0.9596,-0.9446,-0.9976,-0.9956,-0.9643,-0.9093,-0.84,-0.7892,-0.8005,-0.8071,-0.7833,-0.8103,-0.8262,-0.8262,-0.8321,-0.8416,-0.8653,-0.8174,-0.7753,-0.7928,-0.8368,-0.859,-0.8431,-0.8533,-0.8368,-0.7605,-0.7667,-0.7608,-0.7551,-0.7934,-0.8049,-0.7619,-0.7937,-0.7978,-0.7753,-0.804,-0.8315,-0.859,-0.8262,-0.7447,-0.5382,-0.4789,-0.4519,-0.4462,-0.4462,-0.4462,-0.4462,-0.4462,-0.4462,-0.4462,-0.4462,-0.4462,-0.4462,-0.4462,-0.4463,-0.4415,-0.4423,-0.3463,-0.2736,-0.2686,-0.2523,-0.1737,-0.0616,0.0,0.0,0.0,0.0,0.0,0.0,0.0,0.0,0.0,0.0,0.0,0.0,0.0,0.0,0.0,0.0,0.0,0.0,0.0,0.0,0.0,0.0,-1.0621,-1.0621,-1.0621,-1.0621,-1.0571,-1.0568,-1.0405,-0.9628,-0.6687,-0.5546,-0.5236,-0.684,-0.7246,-0.7023,-0.7742,-0.7044,-0.6013,-0.5559,-0.5749,-0.633,-0.7235,-0.8396,-0.9397,-0.9646,-0.962,-0.9149,-0.9459,-0.9486,-0.9359,-0.9502,-0.9444,-0.9462,-0.9651,-0.9608,-0.9439,-0.9045,-0.7934,-0.6584,-0.6897,-0.7095,-0.6861,-0.7289,-0.7447,-0.7281,-0.7506,-0.7713,-0.8223,-0.8312,-0.7997,-0.6522,-0.7481,-0.7759,-0.7714,-0.7664,-0.788,-0.6192,-0.6473,-0.647,-0.6794,-0.7176,-0.7509,-0.7563,-0.8153,-0.8477,-0.8477,-0.8533,-0.8699,-0.8646,-0.8374,-0.7391,-0.5115,-0.4572,-0.4517,-0.4462,-0.4462,-0.4462,-0.4462,-0.4462,-0.4462,-0.4462,-0.4462,-0.4462,-0.4462,-0.4462,-0.4462,-0.4463,-0.4472,-0.4309,-0.3634,-0.2794,-0.2464,-0.185,-0.056,0.0,0.0,0.0,0.0,0.0,0.0,0.0,0.0,0.0,0.0,0.0,0.0,0.0,0.0,0.0,0.0,0.0,0.131,0.234,0.2647,0.2595,0.2323,-1.0621,-1.0621,-1.0621,-1.0618,-1.0555,-1.0571,-0.985,-0.8167,-0.6089,-0.4787,-0.5123,-0.5348,-0.6483,-0.7124,-0.7794,-0.737,-0.627,-0.5751,-0.5491,-0.5815,-0.6521,-0.7531,-0.8284,-0.9214,-0.959,-1.0084,-0.9925,-0.9431,-0.9316,-0.9452,-0.9063,-0.8511,-0.8991,-0.9304,-0.8921,-0.8658,-0.7214,-0.5541,-0.5786,-0.6197,-0.6423,-0.6529,-0.6527,-0.6195,-0.6527,-0.6823,-0.7198,-0.8006,-0.7572,-0.5211,-0.5143,-0.5493,-0.5801,-0.5655,-0.6036,-0.6632,-0.6093,-0.6091,-0.6799,-0.6966,-0.6861,-0.6912,-0.761,-0.788,-0.7987,-0.8362,-0.8752,-0.859,-0.8049,-0.7071,-0.5869,-0.4897,-0.4517,-0.4462,-0.4462,-0.4462,-0.4462,-0.4462,-0.4462,-0.4462,-0.4462,-0.4462,-0.4462,-0.4462,-0.4462,-0.4462,-0.4465,-0.448,-0.415,-0.2964,-0.1844,-0.1119,-0.0224,0.0,0.0,0.0,0.0,0.0,0.0,0.0,0.0,0.0,0.0,0.0,0.0,0.0,0.0,0.0,0.0,0.0,0.218,0.3521,0.3364,0.3086,0.322,-1.053,-1.0396,-1.0537,-1.0387,-1.0194,-1.0492,-1.0123,-0.9291,-0.815,-0.7508,-0.7162,-0.665,-0.6375,-0.686,-0.7179,-0.6846,-0.6139,-0.562,-0.5427,-0.5554,-0.5851,-0.6207,-0.6976,-0.8241,-0.8791,-0.9059,-0.8956,-0.9192,-0.9167,-0.8965,-0.8475,-0.7967,-0.8072,-0.7908,-0.7495,-0.6781,-0.5977,-0.473,-0.4971,-0.5322,-0.555,-0.5553,-0.5386,-0.5653,-0.576,-0.5817,-0.5821,-0.6918,-0.6616,-0.4961,-0.4523,-0.4703,-0.4776,-0.4895,-0.5117,-0.6251,-0.6524,-0.6362,-0.6851,-0.6745,-0.6907,-0.631,-0.7337,-0.8174,-0.8243,-0.8569,-0.8755,-0.859,-0.7883,-0.6748,-0.5275,-0.4789,-0.4517,-0.4462,-0.4462,-0.4462,-0.4462,-0.4462,-0.4462,-0.4462,-0.4462,-0.4462,-0.4462,-0.4462,-0.4462,-0.4462,-0.4462,-0.4477,-0.4496,-0.3192,0.0,0.0,0.0,0.0,0.0,0.0,0.0,0.0,-0.0952,-0.1569,0.0,0.0,0.0,0.0,0.0,0.0,0.0,0.0,0.0,0.132,0.2183,0.3,0.3419,0.358,0.358,-1.0244,-1.003,-1.0304,-1.0164,-0.9846,-1.0079,-1.0379,-1.0582,-1.0448,-1.0114,-0.9761,-0.8494,-0.7351,-0.6752,-0.6729,-0.6662,-0.5945,-0.592,-0.5902,-0.5857,-0.5988,-0.5893,-0.6086,-0.7355,-0.8362,-0.7089,-0.8303,-0.8604,-0.8461,-0.8247,-0.7743,-0.7198,-0.6645,-0.6374,-0.6043,-0.5378,-0.4587,-0.4486,-0.45,-0.4462,-0.4462,-0.4517,-0.4732,-0.5214,-0.5269,-0.5044,-0.4875,-0.5616,-0.5673,-0.4824,-0.4496,-0.4515,-0.4517,-0.4462,-0.484,-0.5703,-0.7391,-0.7066,-0.663,-0.6411,-0.6684,-0.6416,-0.7501,-0.8243,-0.8758,-0.8728,-0.8808,-0.8646,-0.7777,-0.6475,-0.5007,-0.4517,-0.4462,-0.4462,-0.4462,-0.4462,-0.4462,-0.4462,-0.4462,-0.4462,-0.4462,-0.4462,-0.4463,-0.4462,-0.4462,-0.4462,-0.4462,-0.447,-0.4315,-0.3131,0.0,0.0,0.0,0.0,0.0,0.0,0.0,0.0,0.0,-0.0839,-0.1569,0.0,0.0,0.0,0.0,0.0,0.0,0.0,0.0,0.1024,0.1802,0.2607,0.3331,0.358,0.358,-0.9766,-0.9733,-0.9801,-0.9846,-0.9857,-0.9337,-0.9628,-1.0479,-1.0505,-1.0552,-1.039,-0.9749,-0.8664,-0.7759,-0.7622,-0.7683,-0.7519,-0.726,-0.6933,-0.6752,-0.6904,-0.6621,-0.6101,-0.8101,-0.768,-0.6533,-0.775,-0.7888,-0.7553,-0.7276,-0.6735,-0.6126,-0.622,-0.6071,-0.5062,-0.4725,-0.451,-0.4512,-0.446,-0.4462,-0.4462,-0.4462,-0.457,-0.4625,-0.4679,-0.4622,-0.4505,-0.4903,-0.4734,-0.4622,-0.4512,-0.4462,-0.4462,-0.4462,-0.5003,-0.5706,-0.6414,-0.6748,-0.6362,-0.6251,-0.6411,-0.6632,-0.7182,-0.7676,-0.839,-0.8775,-0.8755,-0.8755,-0.7563,-0.6152,-0.4899,-0.4517,-0.4462,-0.4462,-0.4462,-0.4462,-0.4462,-0.4472,-0.447,-0.4349,-0.4293,-0.4408,-0.4465,-0.4463,-0.4462,-0.4462,-0.4463,-0.4472,-0.4254,-0.3242,-0.1731,0.0,0.0,0.0,0.0,0.0,0.0,0.0,0.0,0.0,-0.084,-0.1514,0.0,0.0,0.0,0.0,0.0,0.0,0.0,0.0853,0.1806,0.269,0.3498,0.3585,0.3624,-0.9285,-0.9432,-0.9625,-0.953,-0.9284,-0.8914,-0.908,-0.9525,-0.9578,-0.9997,-1.0473,-1.0342,-0.9591,-0.8647,-0.8072,-0.7779,-0.7927,-0.7936,-0.7578,-0.7351,-0.7498,-0.7841,-0.8329,-0.8555,-0.7707,-0.773,-0.7505,-0.7099,-0.6572,-0.6167,-0.5885,-0.5622,-0.5395,-0.5183,-0.4519,-0.4517,-0.4462,-0.4462,-0.4462,-0.4462,-0.4462,-0.4462,-0.4462,-0.4462,-0.4462,-0.4462,-0.4462,-0.4462,-0.4462,-0.4462,-0.4462,-0.4462,-0.4462,-0.4517,-0.4736,-0.5005,-0.5277,-0.5658,-0.6034,-0.6088,-0.6305,-0.6522,-0.6907,-0.7777,-0.8533,-0.8808,-0.8808,-0.8755,-0.7453,-0.6043,-0.4846,-0.4517,-0.4462,-0.4462,-0.4462,-0.4462,-0.4465,-0.4479,-0.4426,-0.4247,-0.4127,-0.4242,-0.4413,-0.4465,-0.4467,-0.447,-0.4467,-0.4468,-0.4482,-0.4098,-0.2295,0.0,0.0,0.0,0.0,0.0,0.0,0.0,0.0,0.0,0.0,-0.0617,0.0,0.0,0.0,0.0,0.0,0.0,0.0,0.1043,0.187,0.2698,0.3527,0.3708,0.3718,-0.8935,-0.9132,-0.9381,-0.9194,-0.8831,-0.8802,-0.9,-0.9289,-0.9375,-0.98,-1.0386,-1.0577,-1.0142,-0.9466,-0.872,-0.8443,-0.8438,-0.846,-0.8198,-0.796,-0.8093,-0.8776,-0.9151,-0.8962,-0.8782,-0.917,-0.8043,-0.6976,-0.5957,-0.555,-0.5504,-0.5273,-0.4844,-0.4572,-0.4517,-0.4462,-0.4462,-0.4462,-0.4462,-0.4462,-0.4462,-0.4462,-0.4462,-0.4462,-0.4462,-0.4462,-0.4462,-0.4462,-0.4462,-0.4462,-0.4462,-0.4462,-0.4462,-0.4517,-0.4519,-0.4625,-0.468,-0.495,-0.5492,-0.5764,-0.5984,-0.6256,-0.6578,-0.745,-0.7999,-0.8431,-0.8808,-0.8752,-0.6907,-0.5662,-0.4791,-0.4462,-0.4462,-0.4462,-0.4462,-0.4462,-0.4463,-0.4473,-0.4479,-0.4413,-0.4241,-0.4136,-0.4304,-0.4413,-0.447,-0.4475,-0.4473,-0.4468,-0.4479,-0.4438,-0.2801,-0.0727,0.0,0.0,0.0,0.0,0.0,0.0,0.0,0.0,0.0,0.0,0.0,0.0,0.0,0.0,0.0,0.0,0.048,0.1926,0.3038,0.3039,0.3449,0.3689,0.3837,-0.8818,-0.8838,-0.8848,-0.8841,-0.8808,-0.8768,-0.9415,-1.01,-1.0304,-1.0365,-1.0488,-1.053,-1.0309,-0.9987,-0.9685,-0.9503,-0.9522,-0.9253,-0.9141,-0.9179,-0.9279,-0.9019,-0.9166,-0.9144,-0.8858,-0.8108,-0.7793,-0.6976,-0.5907,-0.554,-0.5166,-0.4627,-0.4572,-0.4517,-0.4465,-0.4468,-0.4468,-0.4467,-0.4465,-0.4465,-0.4463,-0.4462,-0.4462,-0.4462,-0.4462,-0.4462,-0.4462,-0.4462,-0.4462,-0.4462,-0.4462,-0.4462,-0.4462,-0.4462,-0.4462,-0.4462,-0.4462,-0.4624,-0.4897,-0.533,-0.5873,-0.6312,-0.6696,-0.6977,-0.7549,-0.8278,-0.8646,-0.8206,-0.6147,-0.5062,-0.4572,-0.4462,-0.4462,-0.4462,-0.4463,-0.4465,-0.4463,-0.4463,-0.4467,-0.4463,-0.4411,-0.4307,-0.4079,-0.4185,-0.4418,-0.4425,-0.447,-0.4465,-0.4467,-0.4309,-0.2963,-0.1453,-0.0672,0.0,0.0,0.0,0.0,0.0,0.0,0.0,0.0,0.0,0.0,0.0,0.0,0.0,0.0,0.0,0.0,0.0,0.4172,0.3835,0.3765,0.3974,0.4061,-0.7993,-0.8808,-0.8798,-0.8788,-0.8771,-0.8816,-0.9078,-0.9432,-0.948,-0.9747,-1.0073,-1.0126,-1.012,-0.9873,-0.9649,-0.9643,-0.9593,-0.9165,-0.9291,-0.9359,-0.9237,-0.8949,-0.8951,-0.8922,-0.8786,-0.8208,-0.7924,-0.7356,-0.6322,-0.5706,-0.5111,-0.4679,-0.4517,-0.4467,-0.4472,-0.4306,-0.4309,-0.4366,-0.4418,-0.4472,-0.4472,-0.4465,-0.4462,-0.4462,-0.4462,-0.4462,-0.4462,-0.4462,-0.4462,-0.4462,-0.4462,-0.4462,-0.4462,-0.4462,-0.4462,-0.4462,-0.4462,-0.4462,-0.4462,-0.4787,-0.5277,-0.6046,-0.6433,-0.683,-0.7255,-0.7713,-0.6915,-0.6039,-0.5334,-0.4517,-0.4462,-0.4462,-0.4462,-0.4462,-0.4463,-0.4465,-0.441,-0.4351,-0.446,-0.4405,-0.447,-0.4425,-0.4136,-0.3903,-0.4138,-0.4371,-0.4415,-0.4462,-0.4465,-0.4467,-0.3347,-0.2791,-0.2122,-0.2121,-0.2065,0.0,0.0,0.0,0.0,0.0,0.0,0.0,0.0,0.0,0.0,0.0,0.0,0.0,0.0,0.0,0.3913,0.4274,0.4268,0.4261,0.4205,-0.7235,-0.8109,-0.8322,-0.8535,-0.8781,-0.8785,-0.8802,-0.8773,-0.8823,-0.9128,-0.9713,-0.9724,-0.963,-0.9489,-0.9375,-0.9269,-0.9167,-0.8815,-0.8961,-0.8839,-0.8568,-0.8506,-0.8553,-0.8406,-0.8057,-0.8156,-0.7616,-0.6804,-0.6088,-0.5703,-0.5164,-0.4679,-0.4462,-0.4467,-0.4299,-0.3518,-0.3184,-0.3186,-0.3635,-0.4141,-0.4312,-0.4475,-0.4467,-0.4467,-0.4465,-0.4462,-0.4462,-0.4462,-0.4462,-0.4462,-0.4462,-0.4462,-0.4462,-0.4462,-0.4462,-0.4462,-0.4462,-0.4462,-0.4462,-0.4572,-0.4791,-0.5393,-0.5664,-0.6403,-0.6921,-0.6566,-0.5607,-0.4952,-0.4572,-0.4462,-0.4462,-0.4462,-0.4462,-0.4462,-0.4462,-0.4463,-0.4184,-0.407,-0.4236,-0.4348,-0.4413,-0.4477,-0.4371,-0.4138,-0.419,-0.4421,-0.4413,-0.4462,-0.4463,-0.4465,-0.4354,-0.4019,-0.391,-0.4076,0.0,0.0,0.0,0.0,0.0,0.0,0.0,0.0,0.0,0.0,0.0,0.0,0.0,0.0,0.0,0.0,0.3256,0.4038,0.4409,0.4379,0.4368,-0.6586,-0.6704,-0.7168,-0.7869,-0.8593,-0.8814,-0.8778,-0.8791,-0.8776,-0.9105,-0.9505,-0.9166,-0.9014,-0.9171,-0.9123,-0.8996,-0.8635,-0.8155,-0.8104,-0.8239,-0.7617,-0.7708,-0.7702,-0.7577,-0.7453,-0.7453,-0.6856,-0.6041,-0.5649,-0.5433,-0.5003,-0.4679,-0.4462,-0.4463,-0.4233,-0.1551,-0.0277,-0.0389,-0.1726,-0.2849,-0.3638,-0.4028,-0.4247,-0.4472,-0.4467,-0.4462,-0.4463,-0.4465,-0.4465,-0.4468,-0.4465,-0.4465,-0.4465,-0.4463,-0.4462,-0.4462,-0.4462,-0.4462,-0.4462,-0.4462,-0.4572,-0.4682,-0.5009,-0.5126,-0.4851,-0.4625,-0.4789,-0.4462,-0.4462,-0.4462,-0.4462,-0.4462,-0.4462,-0.4462,-0.4462,-0.4408,-0.4128,-0.3967,-0.419,-0.4358,-0.4411,-0.447,-0.4484,-0.4432,-0.442,-0.447,-0.4465,-0.4462,-0.4462,-0.4468,-0.4473,-0.4467,-0.4468,-0.4467,-0.4465,-0.4463,0.0,0.0,0.0,0.0,0.0,0.0,0.0,0.0,0.0,0.0,0.0,0.0,0.0,0.0,0.0,0.3708,0.4135,0.4356,0.4103,-0.5769,-0.6532,-0.5806,-0.6187,-0.7399,-0.8416,-0.8761,-0.8798,-0.8828,-0.8951,-0.9047,-0.8843,-0.8851,-0.891,-0.8857,-0.8637,-0.8071,-0.7937,-0.7854,-0.726,-0.6758,-0.6227,-0.6279,-0.6848,-0.702,-0.664,-0.5934,-0.5496,-0.554,-0.5164,-0.4842,-0.4519,-0.4462,-0.4467,-0.3681,0.0,0.0,0.0,-0.0558,-0.106,-0.1675,-0.2901,-0.3907,-0.4421,-0.4468,-0.4465,-0.447,-0.4472,-0.4475,-0.4421,-0.4364,-0.4245,-0.4413,-0.4467,-0.4462,-0.4462,-0.4462,-0.4462,-0.4462,-0.4462,-0.4462,-0.4462,-0.4462,-0.4462,-0.4462,-0.4462,-0.4517,-0.4462,-0.4462,-0.4462,-0.4462,-0.4462,-0.4462,-0.4462,-0.4463,-0.4468,-0.4359,-0.4203,-0.4263,-0.4374,-0.4485,-0.4475,-0.448,-0.4485,-0.4475,-0.4479,-0.4475,-0.4354,-0.4241,-0.4421,-0.4485,-0.4468,-0.4463,-0.4463,-0.4405,-0.379,-0.4138,0.0,0.0,0.0,0.0,0.0,0.0,0.0,0.0,0.0,0.0,0.0,0.0,0.0,0.0,0.0,0.2797,0.3128,0.334,-0.5009,-0.5767,-0.4873,-0.4984,-0.5989,-0.726,-0.8104,-0.8704,-0.8767,-0.878,-0.8777,-0.8799,-0.8603,-0.8469,-0.8371,-0.8049,-0.7343,-0.7012,-0.7141,-0.649,-0.6312,-0.6018,-0.6006,-0.6225,-0.6738,-0.631,-0.5496,-0.4838,-0.5433,-0.484,-0.4572,-0.4519,-0.4462,-0.4467,-0.3852,0.0,0.0,-0.0837,-0.0614,-0.1508,-0.2179,-0.3018,-0.3909,-0.4306,-0.4475,-0.4472,-0.448,-0.4484,-0.4432,-0.4263,-0.3749,-0.3688,-0.4024,-0.447,-0.4467,-0.447,-0.4473,-0.447,-0.4465,-0.4462,-0.4462,-0.4462,-0.4462,-0.4462,-0.4462,-0.4462,-0.4462,-0.4462,-0.4462,-0.4462,-0.4462,-0.4462,-0.4462,-0.4462,-0.4463,-0.4468,-0.4473,-0.4371,-0.3984,-0.4152,-0.4146,-0.4196,-0.4473,-0.4475,-0.4472,-0.448,-0.4487,-0.4252,-0.3907,-0.3747,-0.3587,-0.3408,-0.3623,-0.3623,-0.3122,-0.2343,-0.3022,-0.4279,0.0,0.0,0.0,0.0,0.0,0.0,0.0,0.0,0.0,0.0,0.0,0.0,0.0,0.0,0.0,0.0,0.0,-0.4519,-0.4517,-0.4519,-0.4515,-0.4677,-0.5642,-0.6915,-0.8561,-0.8741,-0.8771,-0.8768,-0.8791,-0.8559,-0.7949,-0.7777,-0.7453,-0.6802,-0.6088,-0.5989,-0.6114,-0.5714,-0.5871,-0.615,-0.6093,-0.6473,-0.6527,-0.5984,-0.5277,-0.549,-0.5056,-0.4677,-0.4517,-0.4462,-0.4465,-0.4298,-0.3853,-0.2623,-0.1786,-0.1004,-0.218,-0.3308,-0.4093,-0.4312,-0.448,-0.4477,-0.4304,-0.4196,-0.4087,-0.3981,-0.3245,-0.184,-0.2568,-0.3409,-0.4416,-0.4482,-0.4374,-0.4265,-0.4482,-0.4465,-0.4462,-0.4462,-0.4462,-0.4462,-0.4462,-0.4462,-0.4462,-0.4462,-0.4462,-0.4462,-0.4462,-0.4462,-0.4462,-0.4462,-0.4462,-0.4462,-0.4467,-0.4472,-0.4196,-0.3752,-0.3583,-0.3516,-0.368,-0.4353,-0.4467,-0.447,-0.4477,-0.4314,-0.3638,-0.3183,-0.2232,-0.2012,-0.1454,-0.173,-0.2399,0.0,0.0,-0.1511,-0.2694,-0.3093,0.0,0.0,0.0,0.0,0.0,0.0,0.0,0.0,0.0,0.0,0.0,0.0,0.0,0.0,0.0,0.0,-0.5216,-0.5164,-0.4677,-0.4462,-0.4517,-0.4783,-0.5239,-0.594,-0.7738,-0.8765,-0.8808,-0.8808,-0.8593,-0.8431,-0.7937,-0.7563,-0.6961,-0.6192,-0.5418,-0.515,-0.5164,-0.642,-0.6758,-0.6398,-0.6374,-0.6421,-0.6315,-0.5823,-0.5987,-0.5494,-0.484,-0.457,-0.4517,-0.4462,-0.4467,-0.4472,-0.3748,-0.2851,-0.1785,-0.2516,-0.3819,-0.4438,-0.443,-0.4479,-0.4473,-0.4133,-0.3465,-0.296,-0.2571,-0.1231,0.0,0.0,-0.4107,-0.4437,-0.4263,-0.313,-0.3641,-0.4489,-0.4467,-0.4462,-0.4462,-0.4462,-0.4462,-0.4462,-0.4462,-0.4462,-0.4462,-0.4462,-0.4462,-0.4462,-0.4462,-0.4462,-0.4462,-0.4462,-0.4463,-0.4467,-0.4415,-0.403,-0.3585,-0.3187,-0.3067,-0.3846,-0.4462,-0.4462,-0.4467,-0.4473,-0.4196,-0.3467,-0.2571,-0.162,0.0,0.0,0.0,0.0,0.0,0.0,0.0,-0.1009,0.0,0.0,0.0,0.0,0.0,0.0,0.0,0.0,0.0,0.0,0.0,0.0,0.0,0.0,0.0,0.0,0.0,-0.5269,-0.5433,-0.5056,-0.4863,-0.4809,-0.4581,-0.451,-0.5016,-0.7576,-0.8771,-0.8802,-0.8764,-0.8649,-0.8212,-0.7563,-0.702,-0.6635,-0.5603,-0.4888,-0.4778,-0.4721,-0.5559,-0.6178,-0.6339,-0.6263,-0.6367,-0.6367,-0.6034,-0.6039,-0.5494,-0.4785,-0.4572,-0.4462,-0.4465,-0.447,-0.4479,-0.449,-0.3641,-0.2852,-0.2571,-0.319,-0.4209,-0.4479,-0.4473,-0.4467,-0.3855,-0.3016,-0.24,-0.0894,0.0,0.0,0.0,-0.2582,-0.2577,-0.2518,-0.1733,-0.3422,-0.4209,-0.4477,-0.447,-0.4467,-0.4462,-0.4463,-0.4462,-0.4462,-0.4462,-0.4462,-0.4462,-0.4462,-0.4462,-0.4462,-0.4462,-0.4462,-0.4462,-0.4465,-0.4467,-0.4195,-0.3866,-0.3359,-0.2906,-0.3293,-0.4127,-0.4462,-0.4462,-0.4463,-0.447,-0.4196,-0.3583,-0.2404,-0.1118,0.0,0.0,0.0,0.0,0.0,0.0,0.0,0.0,0.0,0.0,0.0,0.0,0.0,0.0,0.0,0.0,0.0,0.0,0.0,0.0,0.0,0.0,0.0,0.0,0.0,-0.4905,-0.5485,-0.5558,-0.5449,-0.5161,-0.4612,-0.4415,-0.4711,-0.7012,-0.8459,-0.8602,-0.8775,-0.8475,-0.797,-0.7202,-0.6597,-0.6054,-0.5247,-0.4952,-0.4608,-0.4889,-0.537,-0.5269,-0.5406,-0.6029,-0.6256,-0.6253,-0.6086,-0.5487,-0.5109,-0.484,-0.4517,-0.4462,-0.4467,-0.4475,-0.4482,-0.4152,-0.3026,-0.3078,-0.3131,-0.3073,-0.3742,-0.4463,-0.4467,-0.4473,-0.4312,-0.3695,-0.2236,0.0,0.0,0.0,0.0,0.0,0.0,0.0,-0.0727,-0.241,-0.3361,-0.3974,-0.4254,-0.4475,-0.4472,-0.4467,-0.4468,-0.447,-0.4463,-0.4462,-0.4462,-0.4462,-0.4462,-0.4462,-0.4462,-0.4462,-0.4462,-0.4463,-0.4467,-0.4361,-0.3412,-0.1902,-0.1788,-0.2622,-0.3511,-0.4462,-0.4462,-0.4462,-0.4468,-0.4309,-0.3752,-0.2404,-0.0951,0.0,0.0,0.0,0.0,0.0,0.0,0.0,0.0,0.0,0.0,0.0,0.0,0.0,0.0,0.0,0.0,0.0,0.0,0.0,0.0,0.0,0.0,0.0,0.0,0.0,-0.5025,-0.5281,-0.6015,-0.5824,-0.4925,-0.4158,-0.3924,-0.4146,-0.4557,-0.6151,-0.7902,-0.852,-0.8548,-0.797,-0.7011,-0.6518,-0.6472,-0.5148,-0.5271,-0.522,-0.5259,-0.4869,-0.4639,-0.5163,-0.5858,-0.6367,-0.6367,-0.5923,-0.5433,-0.5164,-0.4952,-0.4517,-0.4463,-0.447,-0.4423,-0.4373,-0.3304,-0.1903,-0.2802,-0.3307,-0.3421,-0.3869,-0.4485,-0.4477,-0.4475,-0.4479,-0.386,-0.2795,-0.1118,0.0,0.0,0.0,0.0,0.0,0.0,0.0,0.0,-0.1843,-0.2737,-0.3469,-0.3974,-0.4317,-0.4374,-0.443,-0.4482,-0.4468,-0.4462,-0.4462,-0.4462,-0.4462,-0.4462,-0.4462,-0.4462,-0.4462,-0.4462,-0.4467,-0.4472,-0.2736,-0.0839,-0.1062,-0.1952,-0.3064,-0.4125,-0.4462,-0.4462,-0.447,-0.4484,-0.3925,-0.2403,0.0,0.0,0.0,0.0,0.0,0.0,0.0,0.0,0.0,0.0,0.0,0.0,0.0,0.0,0.0,0.0,0.0,0.0,0.0,0.0,0.0,0.0,0.0,0.0,0.0,0.0,-0.4798,-0.52,-0.5928,-0.5709,-0.4843,-0.3955,-0.3687,-0.3772,-0.3657,-0.476,-0.6692,-0.7583,-0.7934,-0.7718,-0.6762,-0.6216,-0.6291,-0.4994,-0.4806,-0.5066,-0.5251,-0.487,-0.4846,-0.4944,-0.5087,-0.5607,-0.5607,-0.5332,-0.5164,-0.5001,-0.4732,-0.4519,-0.4467,-0.4472,-0.4257,-0.3359,0.0,-0.028,0.0,0.0,0.0,-0.3247,-0.4087,-0.4247,-0.4473,-0.4477,-0.3974,-0.3021,-0.1509,0.0,0.0,0.0,0.0,0.0,0.0,0.0,0.0,0.0,0.0,0.0,0.0,-0.3249,-0.3473,-0.3242,-0.3523,-0.3626,-0.4415,-0.447,-0.4463,-0.4462,-0.4462,-0.4462,-0.4462,-0.4462,-0.4463,-0.4467,-0.4415,-0.3687,-0.1677,-0.0392,-0.1785,-0.3677,-0.4462,-0.4462,-0.4462,-0.4465,-0.448,-0.3976,-0.2513,-0.1396,0.0,0.0,0.0,0.0,0.0,0.0,0.0,0.0,0.0,0.0,0.0,0.0,0.0,0.0,0.0,0.0,0.0,0.0,0.0,0.0,0.0,0.0,0.0,0.0,0.0,-0.4334,-0.503,-0.5371,-0.5264,-0.4789,-0.399,-0.3604,-0.3595,-0.36,-0.4123,-0.5198,-0.6334,-0.6789,-0.6749,-0.6218,-0.5612,-0.5046,-0.4476,-0.4424,-0.4501,-0.4892,-0.5039,-0.4923,-0.4721,-0.4787,-0.4734,-0.4736,-0.4736,-0.4624,-0.4624,-0.4625,-0.452,-0.4473,-0.4369,-0.3414,0.0,0.0,0.0,0.0,0.0,0.0,-0.1728,-0.307,-0.3912,-0.4475,-0.4479,-0.4036,-0.325,-0.179,0.0,0.0,0.0,0.0,0.0,0.0,0.0,0.0,0.0,0.0,0.0,0.0,-0.1563,0.0,-0.212,-0.24,-0.3242,-0.4087,-0.4366,-0.4359,-0.4462,-0.4462,-0.4463,-0.4463,-0.4462,-0.4465,-0.4413,-0.4304,-0.4193,-0.2401,-0.0448,-0.1897,-0.4013,-0.4462,-0.4462,-0.4463,-0.4465,-0.4187,-0.3572,-0.2846,-0.2122,0.0,0.0,0.0,0.0,0.0,0.0,0.0,0.0,0.0,0.0,0.0,0.0,0.0,0.0,0.0,0.0,0.0,0.0,0.0,0.0,0.0,0.0,0.0,0.0,0.0,-0.4014,-0.4495,-0.4166,-0.4278,-0.4549,-0.393,-0.3604,-0.3583,-0.3617,-0.3778,-0.4222,-0.5118,-0.5948,-0.6599,-0.5664,-0.5072,-0.4749,-0.421,-0.3904,-0.3895,-0.4481,-0.5205,-0.5387,-0.4776,-0.4568,-0.4462,-0.4462,-0.4462,-0.4462,-0.4462,-0.4462,-0.4463,-0.4473,-0.3858,-0.2455,0.0,0.0,0.0,0.0,0.0,0.0,0.0,0.0,-0.3304,-0.4494,-0.4501,-0.4337,-0.4222,-0.2411,0.0,0.0,0.0,0.0,0.0,0.0,0.0,0.0,0.0,0.0,0.0,0.0,0.0,0.0,-0.1175,-0.1905,-0.3091,-0.3711,-0.3878,-0.3981,-0.4185,-0.4294,-0.4463,-0.4465,-0.4463,-0.4463,-0.4192,-0.403,-0.3633,-0.2622,-0.1898,-0.2232,-0.3623,-0.4462,-0.4462,-0.4462,-0.4465,-0.447,-0.3909,-0.3793,-0.3014,-0.2124,-0.1788,-0.1396,0.0,0.0,0.0,0.0,0.0,0.0,0.0,0.0,0.0,0.0,0.0,0.0,0.0,0.0,0.0,0.0,0.0,0.0,0.0,0.0,0.0,0.0]}]]